[[{"header":{"parameterUnit":"m.s-1","parameterCategory":1,"la1":31.0,"la2":29.5877,"lo1":-88.7671,"lo2":-86.6584,"dy":0.0162,"dx":0.0185,"nx":115,"ny":88,"refTime":"2023-06-05T18:00:00:Z","depth":0,"parameterNumber":2,"parameterNumberName":"U-component_of_WINDS"},"data":[0.0,0.0,0.0,0.0,0.0,0.0,0.0,0.0,0.0,0.0,0.0,0.0,0.0,0.0,0.0,0.0,0.0,0.0,0.0,0.0,0.0,0.0,0.0,0.0,0.0,0.0,0.0,0.0,0.0,0.0,0.0,0.0,0.0,0.0,0.0,0.0,0.0,0.0,0.0,0.0,0.0,0.0,0.0,0.0,0.0,0.0,0.0,0.0,0.0,0.0,0.0,0.0,0.0,0.0,0.0,0.0,0.0,0.0,0.0,0.0,0.0,0.0,0.0,0.0,0.0,0.0,0.0,0.0,0.0,0.0,0.0,0.0,0.0,0.0,0.0,0.0,0.0,0.0,0.0,0.0,0.0,0.0,0.0,0.0,0.0,0.0,0.0,0.0,0.0,0.0,0.0,0.0,0.0,0.0,0.0,0.0,0.0,0.0,0.0,0.0,0.0,0.0,0.0,0.0,0.0,0.0,0.0,0.0,0.0,0.0,0.0,0.0,0.0,0.0,0.0,0.0,0.0,0.0,0.0,0.0,0.0,0.0,0.0,0.0,0.0,0.0,0.0,0.0,0.0,0.0,0.0,0.0,0.0,0.0,0.0,0.0,0.0,0.0,0.0,0.0,0.0,0.0,0.0,0.0,0.0,0.0,0.0,0.0,0.0,0.0,0.0,0.0,0.0,0.0,0.0,0.0,0.0,0.0,0.0,0.0,0.0,0.0,0.0,0.0,0.0,0.0,0.0,0.0,0.0,0.0,0.0,0.0,0.0,0.0,0.0,0.0,0.0,0.0,0.0,0.0,0.0,0.0,0.0,0.0,0.0,0.0,0.0,0.0,0.0,0.0,0.0,0.0,0.0,0.0,0.0,0.0,0.0,0.0,0.0,0.0,0.0,0.0,0.0,0.0,0.0,0.0,0.0,0.0,0.0,0.0,0.0,0.0,0.0,0.0,0.0,0.0,0.0,0.0,0.0,0.0,0.0,0.0,0.0,0.0,0.0,0.0,0.0,0.0,0.0,0.0,0.0,0.0,0.0,0.0,0.0,0.0,0.0,0.0,0.0,0.0,0.0,0.0,0.0,0.0,0.0,0.0,0.0,0.0,0.0,0.0,0.0,0.0,0.0,0.0,0.0,0.0,0.0,0.0,0.0,0.0,0.0,0.0,0.0,0.0,0.0,0.0,0.0,0.0,0.0,0.0,0.0,0.0,0.0,0.0,0.0,0.0,0.0,0.0,0.0,0.0,0.0,0.0,0.0,0.0,0.0,0.0,0.0,0.0,0.0,0.0,0.0,0.0,0.0,0.0,0.0,0.0,0.0,0.0,0.0,0.0,0.0,0.0,0.0,0.0,0.0,0.0,0.0,0.0,0.0,0.0,0.0,0.0,0.0,0.0,0.0,0.0,0.0,0.0,0.0,0.0,0.0,0.0,0.0,0.0,0.0,0.0,0.0,0.0,0.0,0.0,0.0,0.0,0.0,0.0,0.0,0.0,0.0,0.0,0.0,0.0,0.0,0.0,0.0,0.0,0.0,0.0,0.0,0.0,0.0,0.0,0.0,0.0,0.0,0.0,0.0,0.0,0.0,0.0,0.0,0.0,0.0,0.0,0.0,0.0,0.0,0.0,0.0,0.0,0.0,0.0,0.0,0.0,0.0,0.0,0.0,0.0,0.0,0.0,0.0,0.0,0.0,0.0,0.0,0.0,0.0,0.0,0.0,0.0,0.0,0.0,0.0,0.0,0.0,0.0,0.0,0.0,0.0,0.0,0.0,0.0,0.0,0.0,0.0,0.0,0.0,0.0,0.0,0.0,0.0,0.0,0.0,0.0,0.0,0.0,0.0,0.0,0.0,0.0,0.0,0.0,0.0,0.0,0.0,0.0,0.0,0.0,0.0,0.0,0.0,0.0,0.0,0.0,0.0,0.0,0.0,0.0,0.0,0.0,0.0,0.0,0.0,0.0,0.0,0.0,0.0,0.0,0.0,0.0,0.0,0.0,0.0,0.0,0.0,0.0,0.0,0.0,0.0,0.0,0.0,0.0,0.0,0.0,0.0,0.0,0.0,0.0,0.0,0.0,0.0,0.0,0.0,0.0,0.0,0.0,0.0,0.0,0.0,0.0,0.0,0.0,0.0,0.0,0.0,0.0,0.0,0.0,0.0,0.0,0.0,0.0,0.0,0.0,0.0,0.0,0.0,0.0,0.0,0.0,0.0,0.0,0.0,0.0,0.0,0.0,0.0,0.0,0.0,0.0,0.0,0.0,0.0,0.0,0.0,0.0,0.0,0.0,0.0,0.0,0.0,0.0,0.0,0.0,0.0,0.0,0.0,0.0,0.0,0.0,0.0,0.0,0.0,0.0,0.0,0.0,0.0,0.0,0.0,0.0,0.0,0.0,0.0,0.0,0.0,0.0,0.0,0.0,0.0,0.0,0.0,0.0,0.0,0.0,0.0,0.0,0.0,0.0,0.0,0.0,0.0,0.0,0.0,0.0,0.0,0.0,0.0,0.0,0.0,0.0,0.0,0.0,0.0,0.0,0.0,0.0,0.0,0.0,0.0,0.0,0.0,0.0,0.0,0.0,0.0,0.0,0.0,0.0,0.0,0.0,0.0,0.0,0.0,0.0,0.0,0.0,0.0,0.0,0.0,0.0,0.0,0.0,0.0,0.0,0.0,0.0,0.0,0.0,0.0,0.0,0.0,0.0,0.0,0.0,0.0,0.0,0.0,0.0,0.0,0.0,0.0,0.0,0.0,0.0,0.0,0.0,0.0,0.0,0.0,0.0,0.0,0.0,0.0,0.0,0.0,0.0,0.0,0.0,0.0,0.0,0.0,0.0,0.0,0.0,0.0,0.0,0.0,0.0,0.0,0.0,0.0,0.0,0.0,0.0,0.0,0.0,0.0,0.0,0.0,0.0,0.0,0.0,0.0,0.0,0.0,0.0,0.0,0.0,0.0,0.0,0.0,0.0,0.0,0.0,0.0,0.0,0.0,0.0,0.0,0.0,0.0,0.0,0.0,0.0,0.0,0.0,0.0,0.0,0.0,0.0,0.0,0.0,0.0,0.0,0.0,0.0,0.0,0.0,0.0,0.0,0.0,0.0,0.0,0.0,0.0,0.0,0.0,0.0,0.0,0.0,0.0,0.0,0.0,0.0,0.0,0.0,0.0,0.0,0.0,0.0,0.0,0.0,0.0,0.0,0.0,0.0,0.0,0.0,0.0,0.0,0.0,0.0,0.0,0.0,0.0,0.0,0.0,0.0,0.0,0.0,0.0,0.0,0.0,0.0,0.0,0.0,0.0,0.0,0.0,0.0,0.0,0.0,0.0,0.0,0.0,0.0,0.0,0.0,0.0,0.0,0.0,0.0,0.0,0.0,0.0,0.0,0.0,0.0,0.0,0.0,0.0,0.0,0.0,0.0,0.0,0.0,0.0,0.0,0.0,0.0,0.0,0.0,0.0,0.0,0.0,0.0,0.0,0.0,0.0,0.0,0.0,0.0,0.0,0.0,0.0,0.0,0.0,0.0,0.0,0.0,0.0,0.0,0.0,0.0,0.0,0.0,0.0,0.0,0.0,0.0,0.0,0.0,0.0,0.0,0.0,0.0,0.0,0.0,0.0,0.0,0.0,0.0,0.0,0.0,0.0,0.0,0.0,0.0,0.0,0.0,0.0,0.0,0.0,0.0,0.0,0.0,0.0,0.0,0.0,0.0,0.0,0.0,0.0,0.0,0.0,0.0,0.0,0.0,0.0,0.0,0.0,0.0,0.0,0.0,0.0,0.0,0.0,0.0,0.0,0.0,0.0,0.0,0.0,0.0,0.0,0.0,0.0,0.0,0.0,0.0,0.0,0.0,0.0,0.0,0.0,0.0,0.0,0.0,0.0,0.0,0.0,0.0,0.0,0.0,0.0,0.0,0.0,0.0,0.0,0.0,0.0,0.0,0.0,0.0,0.0,0.0,0.0,0.0,0.0,0.0,0.0,0.0,0.0,0.0,0.0,0.0,0.0,0.0,0.0,0.0,0.0,0.0,0.0,0.0,0.0,0.0,0.0,0.0,0.0,0.0,0.0,0.0,0.0,0.0,0.0,0.0,0.0,0.0,0.0,0.0,0.0,0.0,0.0,0.0,0.0,0.0,0.0,0.0,0.0,0.0,0.0,0.0,0.0,0.0,0.0,0.0,0.0,0.0,0.0,0.0,0.0,0.0,0.0,0.0,0.0,0.0,0.0,0.0,0.0,0.0,0.0,0.0,0.0,0.0,0.0,0.0,0.0,0.0,0.3142,0.0,0.0,0.0,0.0,0.0,0.0,0.0,0.0,0.0,0.0,0.0,0.0,0.0,0.0,0.0,0.0,0.0,0.0,0.0,0.0,0.0,0.0,0.0,0.0,0.0,0.0,0.0,0.0,0.0,0.0,0.0,0.0,0.0,0.0,0.0,0.0,0.0,0.0,0.0,0.0,0.0,0.0,0.0,0.0,0.0,0.0,0.0,0.0,0.0,0.0,0.0,0.0,0.0,0.0,0.0,0.0,0.0,0.0,0.0,0.0,0.0,0.0,0.0,0.0,0.0,0.0,0.0,0.0,0.0,0.0,0.0,0.0,0.0,0.0,0.0,0.0,0.0,0.0,0.0,0.0,0.0,0.0,0.0,0.0,0.0,0.0,0.0,0.0,0.0,0.0,0.0,0.0,0.0,0.0,0.0,0.0,0.0,0.0,0.0,0.0,0.0,0.0,0.0,0.0,0.0,0.0,0.0,0.0,0.0,0.0,0.4011,0.3737,0.3401,0.313,0.2878,0.0,0.0,0.0,0.0,0.0,0.0,0.0,0.0,0.0,0.0,0.0,0.0,0.0,0.0,0.0,0.0,0.0,0.0,0.0,0.0,0.0,0.0,0.0,0.0,0.0,0.0,0.0,0.0,0.0,0.0,0.0,0.0,0.0,0.0,0.0,0.0,0.0,0.0,0.0,0.0,0.0,0.0,0.0,0.0,0.0,0.0,0.0,0.0,0.0,0.0,0.0,0.0,0.0,0.0,0.0,0.0,0.0,0.0,0.0,0.0,0.0,0.0,0.0,0.0,0.0,0.0,0.0,0.0,0.0,0.0,0.0,0.0,0.0,0.0,0.0,0.0,0.0,0.0,0.0,0.0,0.0,0.0,0.0,0.0,0.0,0.0,0.0,0.0,0.0,0.0,0.0,0.0,0.0,0.0,0.0,0.0,0.0,0.0,0.0,0.0,0.0,0.0,0.0,0.0,0.0,0.0,0.0,0.0,0.0,0.0,0.0,0.0,0.3208,0.2898,0.2606,0.0,0.0,0.0,0.0,0.0,0.0,0.0,0.0,0.0,0.0,0.0,0.0,0.0,0.0,0.0,0.0,0.0,0.0,0.0,0.0,0.0,0.0,0.0,0.0,0.0,0.0,0.0,0.0,0.0,0.0,0.0,0.0,0.0,0.0,0.0,0.0,0.0,0.0,0.0,0.0,0.0,0.0,0.0,0.0,0.0,0.0,0.0,0.0,0.0,0.0,0.0,0.0,0.0,0.0,0.0,0.0,0.0,0.0,0.0,0.0,0.0,0.0,0.0,0.0,0.0,0.0,0.0,0.0,0.0,0.0,0.0,0.0,0.0,0.0,0.0,0.0,0.0,0.0,0.0,0.0,0.0,0.0,0.0,0.0,0.0,0.0,0.0,0.0,0.0,0.0,0.0,0.0,0.0,0.0,0.0,0.0,0.0,0.0,0.0,0.0,0.0,0.0,0.0,0.0,0.0,0.0,0.0,0.0,0.0,0.0,0.3653,0.3336,0.3008,0.0,0.2352,0.0,0.0,0.0,0.0,0.0,0.0,0.0,0.0,0.0,0.0,0.0,0.0,0.0,0.0,0.0,0.0,0.0,0.0,0.0,0.0,0.0,0.0,0.0,0.0,0.0,0.0,0.0,0.0,0.0,0.0,0.0,0.0,0.0,0.0,0.0,0.0,0.0,0.0,0.0,0.0,0.0,0.0,0.0,0.0,0.0,0.0,0.0,0.0,0.0,0.0,0.0,0.0,0.0,0.0,0.0,0.0,0.0,0.0,0.0,0.0,0.0,0.0,0.0,0.0,0.0,0.0,0.0,0.0,0.0,0.0,0.0,0.0,0.0,0.0,0.0,0.0,0.0,0.0,0.0,0.0,0.0,0.0,0.0,0.0,0.0,0.0,0.0,0.0,0.0,0.0,0.0,0.0,0.0,0.0,0.0,0.0,0.0,0.0,0.0,0.0,0.0,0.0,0.0,0.0,0.0,0.0,0.0,0.0,0.0,0.0,0.3973,0.3605,0.3181,0.2747,0.0,0.0,0.0,0.0,0.0,0.0,0.0,0.0,0.0,0.0,0.0,0.0,0.0,0.0,0.0,0.0,0.0,0.0,0.0,0.0,0.0,0.0,0.0,0.0,0.0,0.0,0.0,0.0,0.0,0.0,0.0,0.0,0.0,0.0,0.0,0.0,0.0,0.0,0.0,0.0,0.0,0.0,0.0,0.0,0.0,0.0,0.0,0.0,0.0,0.0,0.0,0.0,0.0,0.0,0.0,0.0,0.0,0.0,0.0,0.0,0.0,0.0,0.0,0.0,0.0,0.0,0.0,0.0,0.0,0.0,0.0,0.0,0.0,0.0,0.0,0.0,0.0,0.0,0.0,0.0,0.0,0.0,0.0,0.0,0.0,0.0,0.0,0.0,0.0,0.0,0.0,0.0,0.0,0.0,0.0,0.0,0.0,0.0,0.0,0.0,0.0,0.0,0.0,0.0,0.0,0.0,0.0,0.0,0.0,0.0,0.427,0.4177,0.3731,0.3313,0.2803,0.2189,0.0,0.0,0.0,0.0,0.0,0.0,0.0,0.0,0.0,0.0,0.0,0.0,0.0,0.0,0.0,0.0,0.0,0.0,0.0,0.0,0.0,0.0,0.0,0.0,0.0,0.0,0.0,0.0,0.0,0.0,0.0,0.0,0.0,0.0,0.0,0.0,0.0,0.0,0.0,0.0,0.0,0.0,0.0,0.0,0.0,0.0,0.0,0.0,0.0,0.0,0.0,0.0,0.0,0.0,0.0,0.0,0.0,0.0,0.0,0.0,0.0,0.0,0.0,0.0,0.0,0.0,0.0,0.0,0.0,0.0,0.0,0.0,0.0,0.0,0.0,0.0,0.0,0.0,0.0,0.0,0.0,0.0,0.0,0.0,0.0,0.0,0.0,0.0,0.0,0.0,0.0,0.0,0.0,0.0,0.0,0.0,0.0,0.0,0.0,0.0,0.0,0.0,0.0,0.0,0.0,0.0,0.0,0.0,0.4022,0.4267,0.413,0.3546,0.3239,0.278,0.0,0.0,0.0,0.0,0.0,0.0,0.0,0.0,0.0,0.0,0.0,0.0,0.0,0.0,0.0,0.0,0.0,0.0,0.0,0.0,0.0,0.0,0.0,0.0,0.0,0.0,0.0,0.0,0.0,0.0,0.0,0.0,0.0,0.0,0.0,0.0,0.0,0.0,0.0,0.0,0.0,0.0,0.0,0.0,0.0,0.0,0.0,0.0,0.0,0.0,0.0,0.0,0.0,0.0,0.0,0.0,0.0,0.0,0.0,0.0,0.0,0.0,0.0,0.0,0.0,0.0,0.0,0.0,0.0,0.0,0.0,0.0,0.0,0.0,0.0,0.0,0.0,0.0,0.0,0.0,0.0,0.0,0.0,0.0,0.0,0.0,0.0,0.0,0.0,0.0,0.0,0.0,0.0,0.0,0.0,0.0,0.0,0.0,0.0,0.0,0.0,0.0,0.0,0.0,0.0,0.0,0.0,0.0,0.0,0.4038,0.4315,0.4312,0.4023,0.3668,0.3056,0.0,0.0,0.0,0.0,0.0,0.0,0.0,0.0,0.0,0.0,0.0,0.0,0.0,0.0,0.0,0.0,0.0,0.0,0.0,0.0,0.0,0.0,0.0,0.0,0.0,0.0,0.0,0.0,0.0,0.0,0.0,0.0,0.0,0.0,0.0,0.0,0.0,0.0,0.0,0.0,0.0,0.0,0.0,0.0,0.0,0.0,0.0,0.0,0.0,0.0,0.0,0.0,0.0,0.0,0.0,0.0,0.0,0.0,0.0,0.0,0.0,0.0,0.0,0.0,0.0,0.0,0.0,0.0,0.0,0.0,0.0,0.0,0.0,0.0,0.0,0.0,0.0,0.0,0.0,0.0,0.0,0.0,0.0,0.0,0.0,0.0,0.0,0.0,0.0,0.0,0.0,0.0,0.0,0.0,0.0,0.0,0.0,0.0,0.0,0.0,0.0,0.0,0.0,0.0,0.0,0.0,0.0,0.0,0.0,0.4398,0.0,0.4509,0.0,0.395,0.3202,0.0,0.0,0.0,0.0,0.0,0.0,0.0,0.0,0.0,0.0,0.0,0.0,0.0,0.0,0.0,0.0,0.0,0.0,0.0,0.0,0.0,0.0,0.0,0.0,0.0,0.0,0.0,0.0,0.0,0.0,0.0,0.0,0.0,0.0,0.0,0.0,0.0,0.0,0.0,0.0,0.0,0.0,0.0,0.0,0.0,0.0,0.0,0.0,0.0,0.0,0.0,0.0,0.0,0.0,0.0,0.0,0.0,0.0,0.0,0.0,0.0,0.0,0.0,0.0,0.0,0.0,0.0,0.0,0.0,0.0,0.0,0.0,0.0,0.0,0.0,0.0,0.0,0.0,0.0,0.0,0.0,0.0,0.0,0.0,0.0,0.0,0.0,0.0,0.0,0.0,0.0,0.0,0.0,0.0,0.0,0.0,0.0,0.0,0.0,0.0,0.0,0.0,0.0,0.0,0.0,0.0,0.0,0.0,0.4718,0.5152,0.4753,0.4649,0.4883,0.4041,0.3236,0.0,0.0,0.0,0.0,0.0,0.0,0.0,0.0,0.0,0.0,0.0,0.0,0.0,0.0,0.0,0.0,0.0,0.0,0.0,0.0,0.0,0.0,0.0,0.0,0.0,0.0,0.0,0.0,0.0,0.0,0.0,0.0,0.0,0.0,0.0,0.0,0.0,0.0,0.0,0.0,0.0,0.0,0.0,0.0,0.0,0.0,0.0,0.0,0.0,0.0,0.0,0.0,0.0,0.0,0.0,0.0,0.0,0.0,0.0,0.0,0.0,0.0,0.0,0.0,0.0,0.0,0.0,0.0,0.0,0.0,0.0,0.0,0.0,0.0,0.0,0.0,0.0,0.0,0.0,0.0,0.0,0.0,0.0,0.0,0.0,0.0,0.0,0.0,0.0,0.0,0.0,0.0,0.0,0.0,0.0,0.0,0.0,0.0,0.0,0.0,0.0,0.0,0.0,0.0,0.0,0.0,0.0,0.0,0.0,0.5169,0.5135,0.5009,0.4752,0.4097,0.3311,0.0,0.0,0.0,0.0,0.0,0.0,0.0,0.0,0.0,0.0,0.0,0.0,0.0,0.0,0.0,0.0,0.0,0.0,0.0,0.0,0.0,0.0,0.0,0.0,0.0,0.0,0.0,0.0,0.0,0.0,0.0,0.0,0.0,0.0,0.0,0.0,0.0,0.0,0.0,0.0,0.0,0.0,0.0,0.0,0.0,0.0,0.0,0.0,0.0,0.0,0.0,0.0,0.0,0.0,0.0,0.0,0.0,0.0,0.0,0.0,0.0,0.0,0.0,0.0,0.0,0.0,0.0,0.0,0.0,0.0,0.0,0.0,0.0,0.0,0.0,0.0,0.0,0.0,0.0,0.0,0.0,0.0,0.0,0.0,0.0,0.0,0.0,0.0,0.0,0.0,0.0,0.0,0.0,0.0,0.0,0.0,0.0,0.0,0.0,0.0,0.0,0.0,0.0,0.0,0.0,0.0,0.0,0.0,0.0,0.5739,0.5564,0.5282,0.4856,0.4228,0.3469,0.2591,0.0,0.0,0.0,0.0,0.0,0.0,0.0,0.0,0.0,0.0,0.0,0.0,0.0,0.0,0.0,0.0,0.0,0.0,0.0,0.0,0.0,0.0,0.0,0.0,0.0,0.0,0.0,0.0,0.0,0.0,0.0,0.0,0.0,0.0,0.0,0.0,0.0,0.0,0.0,0.0,0.0,0.0,0.0,0.0,0.0,0.0,0.0,0.0,0.0,0.0,0.0,0.0,0.0,0.0,0.0,0.0,0.0,0.0,0.0,0.0,0.0,0.0,0.0,0.0,0.0,0.0,0.0,0.0,0.0,0.0,0.0,0.0,0.0,0.0,0.0,0.0,0.0,0.0,0.0,0.0,0.0,0.0,0.0,0.0,0.0,0.0,0.0,0.0,0.0,0.0,0.0,0.0,0.0,0.0,0.0,0.0,0.0,0.0,0.0,0.0,0.0,0.0,0.0,0.0,0.0,0.0,0.0,0.0,0.6726,0.6045,0.5513,0.5127,0.4391,0.3689,0.0,0.0,0.0,0.0,0.0,0.0,0.0,0.0,0.0,0.0,0.0,0.0,0.0,0.0,0.0,0.0,0.0,0.0,0.0,0.0,0.0,0.0,0.0,0.0,0.0,0.0,0.0,0.0,0.0,0.0,0.0,0.0,0.0,0.0,0.0,0.0,0.0,0.0,0.0,0.0,0.0,0.0,0.0,0.0,0.0,0.0,0.0,0.0,0.0,0.0,0.0,0.0,0.0,0.0,0.0,0.0,0.0,0.0,0.0,0.0,0.0,0.0,0.0,0.0,0.0,0.0,0.0,0.0,0.0,0.0,0.0,0.0,0.0,0.0,0.0,0.0,0.0,0.0,0.0,0.0,0.0,0.0,0.0,0.0,0.0,0.0,0.0,0.0,0.0,0.0,0.0,0.0,0.0,0.0,0.0,0.0,0.0,0.0,0.0,0.0,0.0,0.0,0.0,0.0,0.0,0.0,0.0,0.0,0.0,0.7043,0.6748,0.6184,0.5418,0.4457,0.3637,0.0,0.0,0.0,0.0,0.0,0.0,0.0,0.0,0.0,0.0,0.0,0.0,0.0,0.0,0.0,0.0,0.0,0.0,0.0,0.0,0.0,0.0,0.0,0.0,0.0,0.0,0.0,0.0,0.0,0.0,0.0,0.0,0.0,0.0,0.0,0.0,0.0,0.0,0.0,0.0,0.0,0.0,0.0,0.0,0.0,0.0,0.0,0.0,0.0,0.0,0.0,0.0,0.0,0.0,0.0,0.0,0.0,0.0,0.0,0.0,0.0,0.0,0.0,0.0,0.0,0.0,0.0,0.0,0.0,0.0,0.0,0.0,0.0,0.0,0.0,0.0,0.0,0.0,0.0,0.0,0.0,0.0,0.0,0.0,0.0,0.0,0.0,0.0,0.0,0.0,0.0,0.0,0.0,0.0,0.0,0.0,0.0,0.0,0.0,0.0,0.0,0.0,0.0,0.0,0.0,0.0,0.0,0.0,0.7408,0.7372,0.6913,0.629,0.5559,0.4577,0.3743,0.0,0.0,0.0,0.0,0.0,0.0,0.0,0.0,0.0,0.0,0.0,0.0,0.0,0.0,0.0,0.0,0.0,0.0,0.0,0.0,0.0,0.0,0.0,0.0,0.0,0.0,0.0,0.0,0.0,0.0,0.0,0.0,0.0,0.0,0.0,0.0,0.0,0.0,0.0,0.0,0.0,0.0,0.0,0.0,0.0,0.0,0.0,0.0,0.0,0.0,0.0,0.0,0.0,0.0,0.0,0.0,0.0,0.0,0.0,0.0,0.0,0.0,0.0,0.0,0.0,0.0,0.0,0.0,0.0,0.0,0.0,0.0,0.0,0.0,0.0,0.0,0.0,0.0,0.0,0.0,0.0,0.0,0.0,0.0,0.0,0.0,0.0,0.0,0.0,0.0,0.0,0.0,0.0,0.0,0.0,0.0,0.0,0.0,0.0,0.0,0.0,0.0,0.0,0.0,0.0,0.0,0.0,0.0,0.7344,0.7578,0.6712,0.6024,0.5501,0.4703,0.3912,0.0,0.0,0.0,0.0,0.0,0.0,0.0,0.0,0.0,0.0,0.0,0.0,0.0,0.0,0.0,0.0,0.0,0.0,0.0,0.0,0.0,0.0,0.0,0.0,0.0,0.0,0.0,0.0,0.0,0.0,0.0,0.0,0.0,0.0,0.0,0.0,0.0,0.0,0.0,0.0,0.0,0.0,0.0,0.0,0.0,0.0,0.0,0.0,0.0,0.0,0.0,0.0,0.0,0.0,0.0,0.0,0.0,0.0,0.0,0.0,0.0,0.0,0.0,0.0,0.0,0.0,0.0,0.0,0.0,0.0,0.0,0.0,0.0,0.0,0.0,0.0,0.0,0.0,0.0,0.0,0.0,0.0,0.0,0.0,0.0,0.0,0.0,0.0,0.0,0.0,0.0,0.0,0.0,0.0,0.0,0.0,0.0,0.0,0.0,0.0,0.0,0.0,0.0,0.0,0.0,0.0,0.0,0.0,0.7878,0.7373,0.6527,0.5678,0.49,0.4389,0.3897,0.0,0.0,0.0,0.0,0.0,0.0,0.0,0.0,0.0,0.0,0.0,0.0,0.0,0.0,0.0,0.0,0.0,0.0,0.0,0.0,0.0,0.0,0.0,0.0,0.0,0.0,0.0,0.0,0.0,0.0,0.0,0.0,0.0,0.0,0.0,0.0,0.0,0.0,0.0,0.0,0.0,0.0,0.0,0.0,0.0,0.0,0.0,0.0,0.4615,0.0,0.0,0.0,0.0,0.0,0.0,0.0,0.0,0.0,0.0,0.0,0.0,0.0,0.0,0.0,0.0,0.0,0.0,0.0,0.0,0.0,0.0,0.0,0.0,0.0,0.0,0.0,0.0,0.0,0.0,0.0,0.0,0.0,0.0,0.0,0.0,0.0,0.0,0.0,0.0,0.0,0.0,0.0,0.0,0.0,0.0,0.0,0.0,0.0,0.0,0.0,0.0,0.0,0.0,0.0,0.0,0.0,0.0,0.0,0.7635,0.7015,0.6137,0.5329,0.4567,0.422,0.3831,0.0,0.0,0.0,0.0,0.0,0.0,0.0,0.0,0.0,0.0,0.0,0.0,0.0,0.0,0.0,0.0,0.0,0.0,0.0,0.0,0.0,0.0,0.0,0.0,0.0,0.0,0.0,0.0,0.0,0.0,0.0,0.0,0.0,0.0,0.0,0.0,0.0,0.0,0.0,0.0,0.0,0.0,0.0,0.0,0.0,0.0,0.0,0.0,0.0,0.0,0.0,0.0,0.0,0.0,0.0,0.0,0.0,0.0,0.0,0.0,0.0,0.0,0.0,0.0,0.0,0.0,0.0,0.0,0.0,0.0,0.0,0.0,0.0,0.0,0.0,0.0,0.0,0.0,0.0,0.0,0.0,0.0,0.0,0.0,0.0,0.0,0.0,0.0,0.0,0.0,0.0,0.0,0.0,0.0,0.0,0.0,0.0,0.0,0.0,0.0,0.0,0.0,0.0,0.0,0.0,0.0,0.0,0.7278,0.7062,0.6648,0.5679,0.4883,0.4342,0.4045,0.3745,0.3329,0.0,0.0,0.0,0.0,0.0,0.0,0.0,0.0,0.0,0.0,0.0,0.0,0.0,0.0,0.0,0.0,0.0,0.0,0.0,0.0,0.0,0.0,0.0,0.0,0.0,0.0,0.0,0.0,0.0,0.0,0.0,0.0,0.0,0.0,0.0,0.0,0.0,0.0,0.5097,0.5106,0.0,0.0,0.0,0.0,0.0,0.0,0.0,0.0,0.482,0.0,0.0,0.0,0.0,0.0,0.0,0.0,0.0,0.0,0.0,0.0,0.0,0.0,0.0,0.0,0.0,0.0,0.0,0.0,0.0,0.0,0.0,0.0,0.0,0.0,0.0,0.0,0.0,0.0,0.0,0.0,0.0,0.0,0.0,0.0,0.0,0.0,0.0,0.0,0.0,0.0,0.0,0.0,0.0,0.0,0.0,0.0,0.0,0.0,0.0,0.0,0.0,0.0,0.0,0.0,0.0,0.7276,0.6813,0.6539,0.6512,0.5121,0.4272,0.4,0.3663,0.3473,0.3404,0.0,0.0,0.0,0.0,0.0,0.0,0.0,0.0,0.0,0.0,0.0,0.0,0.0,0.0,0.0,0.0,0.0,0.0,0.0,0.0,0.0,0.0,0.0,0.0,0.0,0.0,0.0,0.0,0.0,0.0,0.0,0.0,0.0,0.0,0.0,0.0,0.0,0.0,0.0,0.5104,0.5079,0.0,0.0,0.0,0.0,0.0,0.0,0.0,0.0,0.4428,0.0,0.0,0.0,0.0,0.0,0.0,0.0,0.0,0.0,0.0,0.0,0.0,0.0,0.0,0.0,0.0,0.0,0.0,0.0,0.0,0.0,0.0,0.0,0.0,0.0,0.0,0.0,0.0,0.0,0.0,0.0,0.0,0.0,0.0,0.0,0.0,0.0,0.0,0.0,0.0,0.0,0.0,0.0,0.0,0.0,0.0,0.0,0.0,0.0,0.0,0.0,0.0,0.0,0.0,0.0,0.7424,0.6545,0.5957,0.5805,0.4519,0.376,0.3524,0.3318,0.3274,0.0,0.0,0.0,0.0,0.0,0.0,0.0,0.0,0.0,0.0,0.0,0.0,0.0,0.0,0.0,0.0,0.0,0.0,0.0,0.0,0.0,0.0,0.0,0.0,0.0,0.0,0.0,0.0,0.0,0.0,0.0,0.0,0.0,0.0,0.0,0.0,0.0,0.0,0.0,0.0,0.5072,0.5038,0.495,0.0,0.0,0.0,0.0,0.0,0.0,0.4899,0.459,0.0,0.0,0.0,0.0,0.0,0.0,0.0,0.0,0.0,0.0,0.0,0.0,0.0,0.0,0.0,0.0,0.0,0.0,0.0,0.0,0.0,0.0,0.0,0.0,0.0,0.0,0.0,0.0,0.0,0.0,0.0,0.0,0.0,0.0,0.0,0.0,0.0,0.0,0.0,0.0,0.0,0.0,0.0,0.0,0.0,0.0,0.0,0.0,0.0,0.0,0.0,0.0,0.0,0.0,0.0,0.7509,0.6236,0.5403,0.5064,0.3978,0.331,0.3138,0.3011,0.3094,0.0,0.0,0.0,0.0,0.0,0.0,0.0,0.0,0.0,0.0,0.0,0.0,0.0,0.0,0.0,0.0,0.0,0.0,0.0,0.0,0.0,0.0,0.0,0.0,0.0,0.0,0.0,0.0,0.0,0.0,0.0,0.0,0.0,0.0,0.0,0.0,0.0,0.0,0.0,0.0,0.0,0.4944,0.4891,0.4912,0.0,0.0,0.0,0.0,0.5758,0.5218,0.0,0.0,0.0,0.0,0.0,0.0,0.0,0.0,0.0,0.0,0.0,0.0,0.0,0.0,0.0,0.0,0.0,0.0,0.0,0.0,0.0,0.0,0.0,0.0,0.0,0.0,0.0,0.0,0.0,0.0,0.0,0.0,0.0,0.0,0.0,0.0,0.0,0.0,0.0,0.0,0.0,0.0,0.0,0.0,0.0,0.0,0.0,0.0,0.0,0.0,0.0,0.0,0.0,0.0,0.0,0.0,0.7103,0.5775,0.4977,0.4723,0.3568,0.2933,0.284,0.281,0.2937,0.0,0.0,0.0,0.0,0.0,0.0,0.0,0.0,0.0,0.0,0.0,0.0,0.0,0.0,0.0,0.0,0.0,0.0,0.0,0.0,0.0,0.0,0.0,0.0,0.0,0.0,0.0,0.0,0.0,0.0,0.0,0.0,0.0,0.0,0.0,0.0,0.0,0.0,0.0,0.0,0.0,0.489,0.4824,0.5174,0.5362,0.0,0.0,0.0,0.5237,0.487,0.0,0.0,0.0,0.0,0.0,0.0,0.0,0.0,0.0,0.0,0.0,0.0,0.0,0.0,0.0,0.0,0.0,0.0,0.0,0.0,0.0,0.0,0.0,0.0,0.0,0.0,0.0,0.0,0.0,0.0,0.0,0.0,0.0,0.0,0.0,0.0,0.0,0.0,0.0,0.0,0.0,0.0,0.0,0.0,0.0,0.0,0.0,0.0,0.0,0.0,0.0,0.0,0.0,0.0,0.0,0.6648,0.6716,0.5464,0.4627,0.4278,0.3394,0.2827,0.2614,0.2698,0.2928,0.0,0.0,0.0,0.0,0.0,0.0,0.0,0.0,0.0,0.0,0.0,0.0,0.0,0.0,0.0,0.0,0.0,0.0,0.0,0.0,0.0,0.0,0.0,0.0,0.0,0.0,0.0,0.0,0.0,0.0,0.0,0.0,0.0,0.0,0.0,0.0,0.0,0.0,0.0,0.0,0.0,0.0,0.5263,0.5283,0.0,0.0,0.0,0.5469,0.5529,0.0,0.0,0.0,0.0,0.0,0.0,0.0,0.0,0.0,0.0,0.0,0.0,0.0,0.0,0.0,0.0,0.0,0.0,0.0,0.0,0.0,0.0,0.0,0.0,0.0,0.0,0.0,0.0,0.0,0.0,0.0,0.0,0.0,0.0,0.0,0.0,0.0,0.0,0.0,0.0,0.0,0.0,0.0,0.0,0.0,0.0,0.0,0.0,0.0,0.0,0.0,0.0,0.0,0.0,0.0,0.0,0.0,0.6327,0.5099,0.4289,0.3916,0.3229,0.2744,0.2461,0.2649,0.0,0.0,0.0,0.0,0.0,0.0,0.0,0.0,0.0,0.0,0.0,0.0,0.0,0.0,0.0,0.0,0.0,0.0,0.0,0.0,0.0,0.0,0.0,0.0,0.0,0.0,0.0,0.4362,0.0,0.0,0.0,0.0,0.0,0.0,0.0,0.0,0.0,0.0,0.0,0.0,0.0,0.0,0.4998,0.554,0.5406,0.5501,0.0,0.0,0.5399,0.5527,0.4759,0.415,0.0,0.0,0.0,0.0,0.0,0.0,0.0,0.0,0.0,0.0,0.0,0.0,0.0,0.0,0.0,0.0,0.0,0.0,0.0,0.0,0.0,0.0,0.0,0.0,0.0,0.0,0.0,0.0,0.0,0.0,0.0,0.0,0.0,0.0,0.0,0.0,0.0,0.0,0.0,0.0,0.0,0.0,0.0,0.0,0.0,0.0,0.0,0.0,0.0,0.0,0.0,0.0,0.0,0.0,0.0,0.5905,0.4675,0.3923,0.3695,0.3105,0.2666,0.2332,0.2672,0.3012,0.0,0.0,0.0,0.0,0.0,0.0,0.0,0.0,0.0,0.0,0.0,0.0,0.0,0.0,0.0,0.0,0.0,0.0,0.0,0.0,0.0,0.0,0.0,0.0,0.0,0.0,0.0,0.0,0.0,0.0,0.0,0.0,0.0,0.0,0.0,0.0,0.0,0.0,0.0,0.0,0.0,0.4896,0.5358,0.5546,0.5664,0.0,0.0,0.5159,0.4672,0.4059,0.3606,0.3413,0.0,0.0,0.0,0.0,0.0,0.0,0.0,0.0,0.0,0.0,0.0,0.0,0.0,0.0,0.0,0.0,0.0,0.0,0.0,0.0,0.0,0.0,0.0,0.0,0.0,0.0,0.0,0.0,0.0,0.0,0.0,0.0,0.0,0.0,0.0,0.0,0.0,0.0,0.0,0.0,0.0,0.0,0.0,0.0,0.0,0.0,0.0,0.0,0.0,0.0,0.0,0.0,0.0,0.5745,0.5465,0.4355,0.3622,0.3395,0.3003,0.2653,0.237,0.2846,0.3256,0.0,0.0,0.0,0.0,0.0,0.0,0.0,0.0,0.0,0.0,0.0,0.0,0.0,0.0,0.0,0.0,0.0,0.0,0.0,0.0,0.0,0.0,0.0,0.0,0.0,0.0,0.0,0.0,0.424,0.4068,0.3751,0.0,0.0,0.0,0.0,0.0,0.0,0.0,0.0,0.0,0.0,0.4703,0.5196,0.5297,0.0,0.0,0.4831,0.4364,0.3775,0.3189,0.283,0.2913,0.2957,0.0,0.0,0.0,0.0,0.0,0.0,0.0,0.0,0.0,0.0,0.0,0.0,0.0,0.0,0.0,0.0,0.0,0.0,0.0,0.0,0.0,0.0,0.0,0.0,0.0,0.0,0.0,0.0,0.0,0.0,0.0,0.0,0.0,0.0,0.0,0.0,0.0,0.0,0.0,0.0,0.0,0.0,0.0,0.0,0.0,0.0,0.0,0.0,0.0,0.0,0.0,0.0,0.5223,0.4943,0.3948,0.3316,0.3082,0.292,0.2724,0.2531,0.3154,0.3648,0.0,0.0,0.0,0.0,0.0,0.0,0.0,0.0,0.0,0.0,0.0,0.0,0.0,0.0,0.0,0.0,0.0,0.0,0.0,0.0,0.0,0.0,0.0,0.0,0.0,0.0,0.0,0.0,0.3971,0.3728,0.3485,0.0,0.0,0.0,0.0,0.0,0.0,0.0,0.0,0.0,0.0,0.4682,0.5064,0.4967,0.4821,0.4698,0.4167,0.3595,0.2971,0.2419,0.2116,0.2311,0.0,0.0,0.0,0.0,0.0,0.0,0.0,0.0,0.0,0.0,0.0,0.0,0.0,0.0,0.0,0.0,0.0,0.0,0.0,0.0,0.0,0.0,0.0,0.0,0.0,0.0,0.0,0.0,0.0,0.0,0.6367,0.0,0.0,0.0,0.0,0.0,0.0,0.0,0.0,0.0,0.0,0.0,0.0,0.0,0.0,0.0,0.0,0.0,0.0,0.0,0.0,0.0,0.0,0.0,0.4303,0.3508,0.3001,0.2823,0.2863,0.2851,0.2823,0.37,0.4273,0.4498,0.0,0.0,0.0,0.0,0.0,0.0,0.0,0.0,0.0,0.0,0.0,0.0,0.0,0.0,0.0,0.0,0.0,0.0,0.0,0.0,0.0,0.0,0.0,0.0,0.0,0.0,0.3817,0.3462,0.3219,0.0,0.0,0.0,0.0,0.0,0.0,0.0,0.0,0.0,0.0,0.4602,0.4879,0.487,0.4556,0.4269,0.421,0.3588,0.2899,0.2226,0.1793,0.1519,0.0,0.0,0.0,0.0,0.0,0.0,0.0,0.0,0.0,0.0,0.0,0.0,0.0,0.0,0.0,0.0,0.0,0.0,0.0,0.0,0.0,0.0,0.0,0.0,0.0,0.0,0.0,0.5787,0.5792,0.0,0.0,0.0,0.0,0.0,0.0,0.0,0.0,0.0,0.0,0.0,0.4588,0.4257,0.0,0.0,0.0,0.0,0.0,0.0,0.0,0.0,0.0,0.0,0.0,0.0,0.3855,0.3607,0.2854,0.2389,0.2269,0.2571,0.2832,0.3013,0.4004,0.4829,0.547,0.0,0.0,0.0,0.0,0.0,0.0,0.0,0.0,0.0,0.0,0.0,0.0,0.0,0.0,0.0,0.0,0.0,0.0,0.0,0.0,0.0,0.0,0.0,0.0,0.0,0.3644,0.0,0.0,0.0,0.0,0.0,0.0,0.0,0.0,0.0,0.0,0.0,0.4646,0.4607,0.4492,0.4289,0.3896,0.3686,0.3436,0.0,0.0,0.0,0.0,0.0,0.0,0.0,0.0,0.0,0.0,0.0,0.0,0.0,0.0,0.4362,0.5824,0.6403,0.6676,0.6741,0.0,0.0,0.0,0.0,0.0,0.0,0.0,0.0,0.0,0.0,0.0,0.0,0.0,0.0,0.0,0.0,0.5662,0.0,0.0,0.0,0.0,0.0,0.0,0.0,0.0,0.4253,0.3878,0.3749,0.3376,0.3195,0.0,0.334,0.3627,0.0,0.0,0.0,0.0,0.0,0.0,0.0,0.0,0.305,0.278,0.2147,0.1802,0.1769,0.2348,0.2882,0.3421,0.4735,0.5775,0.6534,0.6217,0.5813,0.0,0.0,0.0,0.0,0.0,0.0,0.0,0.0,0.0,0.0,0.0,0.0,0.0,0.0,0.0,0.0,0.0,0.0,0.0,0.0,0.0,0.0,0.0,0.331,0.0,0.0,0.0,0.0,0.0,0.0,0.0,0.0,0.0,0.5216,0.4696,0.4176,0.4241,0.4184,0.3866,0.3152,0.0,0.0,0.0,0.0,0.0,0.0,0.0,0.0,-0.0184,-0.0193,-0.0075,0.0077,0.0649,0.155,0.2837,0.0,0.0,0.5014,0.5909,0.6436,0.6511,0.6587,0.6689,0.6898,0.6711,0.6926,0.0,0.0,0.0,0.0,0.0,0.0,0.0,0.0,0.5836,0.5624,0.0,0.5585,0.0,0.0,0.0,0.0,0.0,0.4618,0.0,0.0,0.3249,0.3025,0.3087,0.2697,0.2457,0.2373,0.2415,0.2435,0.2493,0.3718,0.0,0.0,0.0,0.0,0.0,0.0,0.2224,0.178,0.1428,0.1271,0.1306,0.2062,0.2979,0.4083,0.5862,0.7079,0.7547,0.6917,0.6408,0.6112,0.5247,0.0,0.0,0.0,0.0,0.0,0.0,0.0,0.0,0.0,0.0,0.0,0.0,0.0,0.0,0.0,0.0,0.0,0.0,0.0,0.0,0.3126,0.0,0.0,0.0,0.0,0.0,0.0,0.0,0.0,0.0,0.0,0.3534,0.3869,0.3804,0.3168,0.0,0.0,0.0,0.0,0.208,0.1639,0.1244,0.079,0.0267,-0.0159,-0.0572,-0.0959,0.0,0.0,-0.0883,-0.0528,0.003,0.0853,0.1143,0.1865,0.374,0.461,0.5112,0.5273,0.5046,0.4978,0.5412,0.5394,0.5481,0.5206,0.0,0.0,0.0,0.0,0.5515,0.5566,0.5529,0.5269,0.5135,0.507,0.4792,0.0,0.0,0.0,0.0,0.0,0.0,0.3224,0.2904,0.2378,0.2013,0.1755,0.1509,0.1294,0.112,0.1218,0.1215,0.1078,0.1565,0.2202,0.2981,0.0,0.0,0.0,0.0,0.1184,0.1008,0.0598,0.0469,0.0671,0.1563,0.317,0.5435,0.6887,0.7702,0.7798,0.7699,0.7284,0.6561,0.5913,0.0,0.0,0.0,0.0,0.0,0.0,0.0,0.0,0.0,0.0,0.0,0.0,0.0,0.0,0.0,0.0,0.0,0.0,0.0,0.3318,0.3377,0.3272,0.0,0.0,0.0,0.0,0.0,0.0,0.0,0.0,0.0,0.1608,0.2116,0.2126,0.0,0.0,0.2993,0.1752,0.1264,0.104,0.1089,0.0,0.0,0.0,-0.0641,-0.1146,-0.1699,-0.206,-0.2244,-0.2165,-0.1831,-0.1396,-0.091,-0.0329,0.0295,0.0847,0.2589,0.3788,0.3736,0.3658,0.3497,0.3218,0.3047,0.2902,0.433,0.4659,0.495,0.5068,0.5027,0.4908,0.4878,0.4886,0.4546,0.4288,0.4222,0.389,0.3758,0.3697,0.3507,0.0,0.0,0.0,0.2077,0.1694,0.1285,0.0932,0.063,0.0474,0.0313,0.0155,0.0206,0.015,0.0,0.0,0.0393,0.1059,0.0,0.0,0.1134,0.0588,0.0226,0.0134,-0.0235,-0.0269,0.0034,0.1619,0.3558,0.5799,0.7137,0.781,0.7848,0.7834,0.7436,0.6621,0.6118,0.5553,0.0,0.0,0.0,0.0,0.0,0.0,0.0,0.0,0.0,0.0,0.0,0.444,0.0,0.0,0.0,0.0,0.3801,0.3434,0.31,0.3064,0.0,0.0,0.0,0.0,0.0,0.0,0.0,-0.0242,-0.0479,-0.0485,-0.0073,0.0217,0.0235,-0.0022,0.1209,0.1813,0.1002,0.0,0.0462,0.0708,0.0437,0.0097,-0.0195,-0.0738,-0.1383,-0.2246,-0.273,-0.2971,-0.2947,-0.2706,-0.2438,-0.2109,-0.1505,-0.1001,-0.0966,0.0362,0.1622,0.2048,0.1665,0.123,0.1105,0.0746,0.0302,0.3087,0.2984,0.3753,0.416,0.4191,0.391,0.3909,0.4,0.351,0.3213,0.301,0.2821,0.2671,0.2626,0.2385,0.0,0.1432,0.1278,0.0887,0.0323,0.0107,-0.0164,-0.0394,-0.0505,-0.0551,-0.0642,-0.0748,-0.0892,-0.0962,-0.1076,-0.1222,-0.1302,-0.0435,-0.0073,-0.0108,-0.045,-0.0676,-0.0815,-0.1047,-0.0974,-0.047,0.1895,0.3893,0.5385,0.6694,0.7435,0.7651,0.7449,0.7025,0.6378,0.6004,0.5515,0.4911,0.0,0.0,0.0,0.0,0.0,0.0,0.0,0.0,0.0,0.0,0.0,0.0,0.0,0.0,0.0,0.3899,0.0,0.3181,0.238,0.0,0.0,0.0,0.012,-0.128,-0.1008,-0.0837,-0.1118,0.0,0.0,-0.1552,0.0,-0.1582,-0.1051,-0.018,0.0367,0.0338,0.0233,0.0254,0.0465,0.0337,0.0178,0.008,-0.048,-0.1338,-0.2423,-0.2979,-0.313,-0.3175,-0.3109,-0.3043,-0.2885,-0.2447,-0.2011,-0.1742,-0.1738,-0.1468,0.0165,-0.0628,-0.1401,-0.0793,-0.129,-0.2097,0.1613,0.1509,0.154,0.2136,0.2965,0.2838,0.2708,0.2415,0.2099,0.184,0.1635,0.1413,0.1205,0.1011,0.0885,0.053,0.0059,-0.0118,-0.0532,-0.119,-0.1104,-0.1326,-0.1742,-0.1644,-0.1673,-0.1771,-0.1826,-0.1957,-0.2155,-0.2187,-0.2257,-0.2345,-0.2159,-0.1784,-0.1165,-0.1328,-0.1508,-0.1709,-0.1692,-0.1306,-0.0502,0.1082,0.2616,0.406,0.5352,0.6224,0.658,0.6678,0.6475,0.5976,0.5844,0.5687,0.5436,0.514,0.0,0.0,0.0,0.0,0.0,0.0,0.0,0.0,0.0,0.4597,0.4637,0.0,0.4325,0.0,0.3612,0.314,0.2844,0.2166,0.0,0.0,0.0985,-0.0269,-0.2264,-0.2151,-0.1992,-0.2273,-0.2576,-0.2777,-0.2614,-0.253,-0.2247,-0.1662,-0.0987,-0.0487,-0.0239,-0.0155,0.0022,0.036,0.0382,0.0346,0.0498,-0.0122,-0.0889,-0.1878,-0.2138,-0.2398,-0.2834,-0.2735,-0.2646,-0.2918,-0.2819,-0.2646,-0.2606,-0.3039,-0.327,-0.2816,-0.2656,-0.2485,-0.2334,-0.3042,-0.4069,0.0305,0.015,-0.0075,0.0073,0.0553,0.1235,0.1287,0.1,0.0726,0.0525,0.0262,0.0064,-0.0126,-0.0314,-0.0495,-0.08,-0.117,-0.1415,-0.1845,-0.2337,-0.2357,-0.25,-0.2704,-0.2655,-0.261,-0.2631,-0.2685,-0.2826,-0.3044,-0.3103,-0.3175,-0.3299,-0.3263,-0.3032,-0.2606,-0.2343,-0.2341,-0.2508,-0.2385,-0.2011,-0.1255,-0.0069,0.1149,0.2371,0.3802,0.4725,0.5166,0.5591,0.5702,0.5407,0.5447,0.5451,0.5369,0.5174,0.5047,0.0,0.0,0.0,0.0,0.0,0.0,0.0,0.0,0.0,0.0,0.0,0.4342,0.4145,0.3716,0.3353,0.3039,0.242,0.1865,0.1427,0.0625,-0.0846,-0.3297,-0.3235,-0.3126,-0.3386,-0.3601,-0.3604,-0.3311,-0.3122,-0.2737,-0.1987,-0.1287,-0.0754,-0.0405,0.0023,0.0557,0.1034,0.1226,0.143,0.1721,0.1245,0.0485,-0.0427,-0.0802,-0.118,-0.196,-0.2105,-0.2278,-0.2808,-0.2899,-0.3039,-0.3495,-0.3788,-0.4118,-0.4494,-0.4317,-0.3953,-0.376,-0.4604,-0.5798,-0.1096,-0.1254,-0.1563,-0.1932,-0.2118,-0.0938,-0.0492,-0.0488,-0.0682,-0.0944,-0.1141,-0.1309,-0.1424,-0.1615,-0.1892,-0.2119,-0.243,-0.2739,-0.3049,-0.3423,-0.3527,-0.3656,-0.3687,-0.3669,-0.3543,-0.3375,-0.3546,-0.3646,-0.379,-0.3899,-0.4046,-0.4233,-0.4028,-0.4047,-0.4087,-0.3468,-0.3188,-0.3201,-0.306,-0.2826,-0.234,-0.1373,-0.0395,0.0601,0.1963,0.2974,0.3515,0.4177,0.4563,0.4566,0.4701,0.4808,0.4835,0.4773,0.4734,0.0,0.4691,0.0,0.0,0.0,0.0,0.0,0.0,0.0,0.0,0.4618,0.4578,0.4478,0.4174,0.3865,0.3501,0.289,0.2085,0.1124,0.0169,-0.1507,-0.4107,-0.4281,-0.4206,-0.4318,-0.4423,-0.4274,-0.3821,-0.3565,-0.3105,-0.2261,-0.1471,-0.0795,-0.0284,0.061,0.1495,0.2092,0.2651,0.315,0.3323,0.3126,0.2494,0.1479,0.0991,0.0343,-0.0655,-0.1159,-0.1697,-0.2496,-0.2801,-0.322,-0.4318,-0.4333,-0.4541,-0.5401,-0.5631,-0.5519,-0.5112,-0.5873,-0.7163,-0.2898,-0.2974,-0.3521,-0.3824,-0.3956,-0.3913,-0.3336,-0.2372,-0.243,-0.2532,-0.2748,-0.2799,-0.2928,-0.3125,-0.3311,-0.3565,-0.3891,-0.4156,-0.4486,-0.4944,-0.489,-0.5008,-0.523,-0.5165,-0.4963,-0.4646,-0.4643,-0.4692,-0.4677,-0.4703,-0.4789,-0.4923,-0.4857,-0.4816,-0.4738,0.0,0.0,0.0,-0.3686,-0.3526,-0.3155,-0.258,-0.1801,-0.1006,-0.0271,0.0,0.1499,0.1962,0.2306,0.2607,0.2954,0.0,0.0,0.0,0.0,0.0,0.0,0.0,0.0,0.0,0.0,0.0,0.6359,0.6142,0.5175,0.5211,0.5293,0.5266,0.5118,0.4721,0.3958,0.2977,0.1908,0.0677,-0.0428,-0.2148,-0.4776,-0.5376,-0.5367,-0.4701,-0.478,-0.4781,-0.4465,-0.4021,-0.3483,-0.2884,-0.2039,-0.1038,0.0027,0.1266,0.2312,0.3009,0.4208,0.5037,0.5061,0.4962,0.4529,0.3582,0.317,0.2499,0.1168,0.0256,-0.0569,-0.1611,-0.2526,-0.3445,-0.4419,-0.489,-0.5293,-0.5898,-0.6498,-0.6714,-0.5966,-0.6602,-0.7601,-0.43,0.0,-0.5002,-0.5312,0.0,-0.5701,-0.5476,-0.4845,-0.4219,-0.4064,-0.4102,-0.417,-0.4139,-0.4151,-0.4489,-0.4691,-0.4891,-0.5219,-0.555,-0.5877,-0.5925,-0.6037,-0.6207,-0.6113,-0.5973,-0.5734,-0.5591,-0.5559,-0.5634,-0.5491,-0.5512,-0.5633,-0.5593,-0.5548,-0.5496,-0.5486,-0.5043,-0.43,-0.4261,-0.4131,-0.3922,-0.3508,-0.3027,-0.2443,0.0,0.0,0.0,0.0,0.0,0.0,0.0,0.0,0.0,0.0,0.0,0.365,0.425,0.484,0.5424,0.6095,0.6632,0.6924,0.7395,0.7222,0.613,0.6186,0.6426,0.6685,0.6385,0.5858,0.5176,0.3428,0.1847,0.0737,-0.1354,-0.3519,-0.5147,-0.5804,-0.5789,-0.5373,-0.5389,-0.5396,-0.5186,-0.4809,-0.4215,-0.348,-0.263,-0.1463,0.0116,0.1534,0.2911,0.463,0.5974,0.678,0.675,0.6734,0.6411,0.5512,0.5039,0.4206,0.2696,0.1389,0.0114,-0.1256,-0.2669,-0.3963,-0.4916,-0.5543,-0.6021,-0.6535,-0.7046,-0.7297,-0.6889,-0.7646,-0.8546,-0.5693,-0.577,-0.6318,-0.6553,-0.6626,-0.7011,-0.7239,-0.7096,0.0,0.0,0.0,-0.5378,-0.5297,-0.5186,-0.5498,-0.5624,-0.569,-0.6083,-0.6404,-0.6666,-0.6802,-0.6919,-0.6958,-0.6958,-0.6848,-0.6708,-0.6429,-0.6388,-0.6515,-0.6295,-0.6253,-0.6306,-0.6265,-0.6139,-0.615,-0.6091,-0.5709,-0.5103,-0.487,-0.4745,-0.4626,-0.435,-0.404,-0.3708,-0.3175,-0.2626,-0.2094,-0.151,-0.1042,-0.0615,-0.0192,0.0264,0.0684,0.1277,0.1918,0.2613,0.3516,0.4422,0.5214,0.6171,0.7092,0.7923,0.8336,0.8198,0.734,0.7293,0.7568,0.816,0.7595,0.7012,0.6442,0.3996,0.1905,0.067,-0.2209,-0.4451,-0.5662,-0.5918,-0.5964,-0.5879,-0.5947,-0.5981,-0.5768,-0.5561,-0.5124,-0.426,-0.3366,-0.1821,0.03,0.2168,0.4037,0.6232,0.7387,0.8119,0.8198,0.8195,0.7895,0.7055,0.6591,0.5698,0.3908,0.2164,0.0412,-0.1568,-0.3177,-0.4696,-0.5833,-0.6514,-0.6913,-0.7446,-0.7734,-0.7935,-0.8083,-0.881,-0.9556,-0.7022,-0.7249,-0.7638,-0.7944,-0.8093,-0.8318,-0.8456,-0.8326,-0.7236,-0.6722,-0.6762,-0.6537,-0.6454,-0.6423,-0.6477,-0.6548,-0.6683,-0.6942,-0.7204,0.0,-0.7531,-0.7647,-0.7812,-0.7812,-0.7629,-0.737,-0.7321,-0.7218,-0.6997,-0.6944,-0.6905,-0.6904,-0.6859,-0.6703,-0.6427,-0.6245,-0.6105,-0.599,-0.5712,-0.5425,-0.5203,-0.5082,-0.4843,-0.4459,-0.4061,-0.3643,-0.3113,-0.2725,-0.241,-0.2173,-0.1781,-0.1348,-0.088,-0.0267,0.0528,0.1498,0.2805,0.4163,0.5465,0.6851,0.8131,0.9262,0.9252,0.9049,0.8727,0.835,0.8388,0.8942,0.8501,0.7773,0.6882,0.4652,0.202,-0.0758,-0.2284,-0.3932,-0.6218,-0.6257,-0.6085,-0.6159,-0.6276,-0.6276,-0.6102,-0.5961,-0.5738,-0.5269,-0.4147,-0.2314,0.1019,0.386,0.5775,0.7251,0.8192,0.8728,0.8868,0.9075,0.8745,0.8093,0.7685,0.6588,0.4185,0.2332,0.0316,-0.2304,-0.4247,-0.5834,-0.7176,-0.7852,-0.8164,-0.8565,-0.8945,-0.9293,-0.9387,-0.987,-1.0173,-0.8093,-0.8169,-0.8556,-0.8789,-0.8941,-0.9089,-0.916,-0.9145,-0.851,-0.8066,-0.7744,-0.7579,-0.7351,-0.7223,-0.7265,-0.7238,-0.7265,-0.7526,-0.7787,-0.7982,-0.7982,-0.8117,-0.8382,-0.8441,-0.8318,-0.8212,-0.8028,-0.7917,-0.768,-0.756,-0.7452,-0.7459,-0.7286,-0.7165,-0.6954,-0.6775,-0.66,-0.6473,-0.609,-0.5825,-0.5687,-0.5631,-0.554,-0.5345,-0.5169,-0.4942,-0.4578,-0.4308,-0.4087,-0.3913,-0.3592,-0.3226,-0.2823,-0.2238,-0.1471,-0.0603,0.0713,0.2033,0.3303,0.5559,0.7414,0.8601,0.8915,0.928,0.9782,0.9619,0.9686,1.0168,0.9776,0.8854,0.7282,0.48,0.1895,-0.1383,-0.2837,-0.4554,-0.6603,-0.7012,-0.6826,-0.6691,-0.6711,-0.6699,-0.6496,-0.6278,-0.6159,-0.5904,-0.4351,-0.1798,0.0969,0.3299,0.5446,0.7203,0.8189,0.8694,0.9007,0.948,0.9296,0.8373,0.7687,0.6294,0.3899,0.167,-0.0912,-0.331,-0.5292,-0.6839,-0.8009,-0.8401,-0.8721,-0.898,-0.9224,-0.9452,-0.9547,-0.9846,-1.013,-0.9076,-0.9153,-0.9337,-0.9468,-0.9625,-0.9695,-0.9771,-0.9695,-0.9544,-0.9225,-0.8699,-0.8411,-0.8136,-0.7924,-0.7941,-0.7967,-0.7873,-0.8017,-0.8194,-0.8375,-0.8333,-0.8436,-0.877,-0.877,-0.8835,-0.8812,-0.8639,-0.8482,-0.8335,-0.8165,-0.799,-0.792,-0.765,-0.7469,-0.7469,-0.7289,-0.7079,-0.6844,-0.6446,-0.6235,-0.6088,-0.6083,-0.6083,-0.6083,-0.5985,-0.5893,-0.5736,-0.5541,-0.5349,-0.526,-0.505,-0.4747,-0.4447,-0.3942,-0.3346,-0.2614,-0.1429,-0.0089,0.1364,0.3773,0.5806,0.7001,0.7635,0.8444,0.954,0.9827,1.0209,1.0769,1.0522,0.9413,0.6966,0.3786,0.0794,-0.1905,-0.3541,-0.5291,-0.7282,-0.782,-0.7778,-0.7386,-0.7212,-0.7096,-0.6855,-0.6564,-0.6311,-0.5832,-0.3969,-0.1736,0.0121,0.202,0.4044,0.6097,0.7644,0.8547,0.8852,0.9055,0.8911,0.8016,0.6991,0.5184,0.2783,0.003,-0.2459,-0.4596,-0.6442,-0.779,-0.8639,-0.8988,-0.9204,-0.9446,-0.953,-0.9461,-0.9546,-0.981,-1.0036,-1.0084,-1.0351,-1.0013,-1.0067,-1.0368,-1.0368,-1.0293,-1.0143,-1.0143,-0.9986,-0.9707,-0.9143,-0.8885,-0.8819,-0.871,-0.8674,-0.8762,-0.8654,-0.8627,-0.8807,-0.8614,-0.8576,-0.8787,-0.8776,-0.8835,-0.8952,-0.8918,-0.8837,-0.8709,-0.8815,-0.8702,-0.8309,-0.7947,-0.7768,-0.7742,-0.7537,-0.7346,-0.7325,-0.709,-0.6816,-0.6423,-0.6347,-0.6396,-0.6347,-0.6244,-0.619,-0.6162,-0.5888,-0.5746,-0.5746,-0.5609,-0.5447,-0.5206,-0.498,-0.4571,-0.3978,-0.2852,-0.1257,0.0807,0.2135,0.3296,0.4495,0.5026,0.5887,0.7158,0.7738,0.8763,0.986,1.0073,0.8899,0.6118,0.1533,-0.1822,-0.3158,-0.4324,-0.575,-0.7697,-0.866,-0.8809,-0.8187,-0.7708,-0.7361,-0.7025,-0.6653,-0.62,-0.5527,-0.4301,-0.2755,-0.1181,0.0243,0.1814,0.4006,0.6348,0.8168,0.853,0.7899,0.736,0.6959,0.5787,0.3627,0.0923,-0.1348,-0.3377,-0.6022,-0.7605,-0.8778,-0.9449,-0.9925,-0.9983,-1.0008,-1.0113,-1.025,-1.029,-1.0328,-1.0326,-1.0885,-1.1022,-1.0778,-1.0737,-1.0824,-1.0738,-1.0663,-1.0588,-1.0293,-1.0143,-1.0056,-0.9665,-0.94,-0.9192,-0.9109,-0.9071,-0.9001,-0.897,-0.8997,-0.906,-0.8964,-0.8985,-0.9119,-0.9107,-0.9165,-0.9151,-0.9145,-0.9087,-0.8958,-0.8894,-0.8715,-0.8482,-0.8191,-0.8066,-0.8122,-0.7838,-0.7714,-0.7935,-0.7788,-0.7577,-0.7384,-0.6998,-0.6799,-0.6799,-0.6742,-0.6696,-0.6597,-0.6494,-0.6436,-0.6338,-0.6395,-0.6362,-0.6313,-0.6261,-0.6101,-0.5746,-0.4689,-0.3441,-0.2038,-0.0952,0.0145,0.1264,0.216,0.3147,0.4325,0.5075,0.5699,0.6353,0.8653,0.8598,0.4136,-0.0587,-0.3705,-0.4351,-0.5315,-0.666,-0.8339,-0.9075,-0.9234,-0.8623,-0.8207,-0.7684,-0.6976,-0.6239,-0.5664,-0.5103,-0.4388,-0.3421,-0.2098,-0.0919,0.0335,0.1828,0.3819,0.5584,0.6797,0.6578,0.5792,0.4983,0.3476,0.1171,-0.1162,-0.3586,-0.5677,-0.7608,-0.86,-0.9446,-1.0002,-1.0157,-1.0235,-1.0351,-1.0351,-1.0351,-1.0351,-1.039,-1.0214,-1.1543,-1.1578,-1.1437,-1.1342,-1.1377,-1.1067,-1.0962,-1.0807,-1.0519,-1.0363,-1.0288,-1.0067,-0.9825,-0.9601,-0.9522,-0.9353,-0.9267,-0.9264,-0.9308,-0.9297,-0.9238,-0.9317,-0.9502,-0.9496,-0.9533,-0.958,-0.9563,-0.9491,-0.9277,-0.8952,-0.8739,-0.8641,-0.843,-0.8378,-0.8487,-0.8143,-0.8132,-0.8366,-0.8249,-0.8145,-0.8089,-0.7683,-0.7389,-0.7334,-0.7284,-0.7228,-0.7118,-0.7128,-0.7067,-0.6951,-0.711,-0.7145,-0.715,-0.7239,-0.7205,-0.7071,-0.6325,-0.5534,-0.4833,-0.3929,-0.2955,-0.1981,-0.1025,-0.0051,0.0949,0.1675,0.1824,0.1873,0.5394,0.5722,0.1976,-0.2385,-0.49,-0.5387,-0.6212,-0.7343,-0.8837,-0.9413,-0.9585,-0.9148,-0.8805,-0.8101,-0.7029,-0.6096,-0.5438,-0.5186,-0.4768,-0.4189,-0.3174,-0.2253,-0.1262,-0.0188,0.0942,0.2575,0.4653,0.3917,0.3305,0.2527,0.0819,-0.1494,-0.3473,-0.5658,-0.727,-0.8417,-0.9325,-0.9903,-1.0157,-1.0273,-1.0273,-1.0322,-1.0322,-1.0322,-1.0322,-1.0322,-1.0205,-1.2046,-1.2216,-1.1903,-1.1939,-1.212,-1.1615,-1.1273,-1.1061,-1.0818,-1.0663,-1.0443,-1.0293,-1.0207,-1.011,-0.9959,-0.9895,-0.9846,-0.9653,-0.9561,-0.954,-0.9335,-0.9421,-0.9765,-0.9765,-0.9956,-1.0155,-1.0143,-1.0099,-0.9829,-0.9225,-0.898,-0.903,-0.8674,-0.8624,-0.8726,-0.8515,-0.8455,-0.8678,-0.8483,-0.8345,-0.828,-0.8246,-0.8111,-0.7828,-0.7758,-0.7736,-0.7747,-0.765,-0.7527,-0.7532,-0.7542,-0.7558,-0.7558,-0.7693,-0.7714,-0.7589,-0.7389,-0.7121,-0.673,-0.6274,-0.5644,-0.4956,-0.4343,-0.384,-0.2761,-0.2309,-0.2191,-0.2552,-0.0205,0.0543,-0.092,-0.4018,-0.6145,-0.6504,-0.6832,-0.7871,-0.9354,-0.9784,-0.9947,-0.9805,-0.9377,-0.8507,-0.7194,-0.6278,-0.5803,-0.5613,-0.538,-0.4989,-0.446,-0.3904,-0.3133,-0.2291,-0.1425,-0.0314,0.2097,0.1394,0.0,-0.0705,-0.1992,-0.4209,-0.5682,-0.7095,-0.8154,-0.905,-0.9672,-1.0079,-1.0244,-1.0322,-1.0322,-1.0322,-1.0322,-1.0322,-1.0322,-1.0322,-1.0205,-1.2804,-1.2719,-1.2444,-1.2344,-1.2236,-1.1883,-1.1612,-1.1359,-1.0958,-1.0738,-1.0663,-1.0513,-1.0368,-1.0363,-1.0293,-1.0143,-0.9911,-0.983,-0.9798,-0.9787,-0.9707,-0.9734,-0.995,-1.0016,-1.006,-1.0275,-1.0333,-1.0124,-0.9846,-0.9477,-0.9306,-0.933,-0.9058,-0.9064,-0.9228,-0.8958,-0.8954,-0.9139,-0.9033,-0.893,-0.8912,-0.893,-0.8811,-0.8544,-0.8193,-0.7914,-0.7801,-0.7741,-0.7741,-0.7747,-0.788,-0.7966,-0.8043,-0.8302,-0.8441,-0.8441,-0.8378,-0.8188,-0.787,-0.7527,-0.7091,-0.6653,-0.6278,-0.5876,-0.5486,-0.514,-0.5075,-0.5031,-0.4882,-0.4676,-0.5117,-0.6354,-0.7247,-0.7686,-0.7871,-0.8368,-0.9361,-0.9991,-1.0257,-0.9946,-0.9336,-0.8463,-0.7708,-0.6761,-0.6198,-0.61,-0.5755,-0.5436,-0.5114,-0.4791,-0.4507,-0.4007,-0.3701,-0.3313,-0.2596,-0.2021,-0.2531,-0.3357,-0.4567,-0.6044,-0.7517,-0.8124,-0.9072,-0.9509,-1.0069,-1.0244,-1.0361,-1.0322,-1.0322,-1.0322,-1.0322,-1.0322,-1.0322,-1.0322,-1.0205,-1.3368,-1.3201,-1.3023,-1.2795,-1.2593,-1.2249,-1.1973,-1.1702,-1.1218,-1.1017,-1.1011,-1.0703,-1.0588,-1.0588,-1.0588,-1.0438,-1.0218,-1.0143,-1.0067,-1.0067,-1.0067,-1.0204,-1.029,-1.034,-1.0394,-1.0539,-1.0509,-1.0373,-1.0153,-0.9871,-0.9695,-0.9749,-0.9438,-0.9412,-0.9594,-0.936,-0.9309,-0.9438,-0.9408,-0.9338,-0.9338,-0.9338,-0.928,-0.9035,-0.868,-0.8393,-0.821,-0.821,-0.8204,-0.8232,-0.837,-0.8452,-0.8469,-0.8734,-0.8894,-0.8958,-0.8894,-0.8709,-0.8559,-0.8269,-0.8012,-0.7865,-0.7655,-0.7466,-0.7456,-0.7333,-0.7333,-0.7537,-0.7773,-0.8108,-0.8325,-0.8392,-0.8435,-0.8559,-0.8559,-0.8971,-0.9864,-1.0492,-1.0598,-1.0271,-0.957,-0.8877,-0.8304,-0.7524,-0.7115,-0.6976,-0.669,-0.6403,-0.6228,-0.6095,-0.5957,-0.5695,-0.5683,-0.5746,-0.5527,-0.5323,-0.498,-0.5645,-0.6354,-0.7831,-0.8626,-0.9181,-0.9582,-0.9991,-1.0244,-1.0361,-1.04,-1.0351,-1.0361,-1.0322,-1.0322,-1.0322,-1.0322,-1.0322,-1.0205,-1.3561,-1.3594,-1.3437,-1.3251,-1.3192,-1.2772,-1.2492,-1.2123,-1.1727,-1.1534,-1.1498,-1.1047,-1.0982,-1.0859,-1.0988,-1.0859,-1.0889,-1.0831,-1.064,-1.0519,-1.0519,-1.0582,-1.0783,-1.0703,-1.084,-1.1033,-1.0858,-1.0783,-1.0736,-1.0402,-1.0225,-1.0185,-1.0043,-0.9898,-0.9781,-0.9837,-0.97,-0.9675,-0.9633,-0.9602,-0.949,-0.9544,-0.9491,-0.9397,-0.9291,-0.9215,-0.9017,-0.893,-0.8884,-0.8907,-0.8918,-0.9017,-0.8988,-0.9011,-0.9017,-0.9022,-0.8894,-0.8829,-0.8823,-0.8613,-0.8597,-0.8623,-0.8726,-0.8681,-0.8723,-0.8931,-0.9058,-0.9116,-0.9319,-0.9597,-0.9995,-1.0147,-0.9838,-0.901,-0.8902,-0.9379,-1.0538,-1.1217,-1.1304,-1.0818,-1.0189,-0.9636,-0.9055,-0.8497,-0.816,-0.8186,-0.814,-0.8035,-0.785,-0.7722,-0.773,-0.7574,-0.7467,-0.7534,-0.7974,-0.8324,-0.796,-0.7835,-0.8487,-0.9391,-0.9511,-0.9894,-1.004,-1.0361,-1.0438,-1.0515,-1.0544,-1.0505,-1.0428,-1.039,-1.0351,-1.0361,-1.0361,-1.04,-1.0283,-1.3737,-1.3899,-1.3646,-1.36,-1.3567,-1.3218,-1.2932,-1.2738,-1.2399,-1.228,-1.2261,-1.2107,-1.2064,-1.2058,-1.2207,-1.2195,-1.2285,-1.235,-1.1935,-1.1103,-1.0824,-1.0824,-1.0968,-1.0893,-1.0887,-1.1037,-1.0887,-1.0893,-1.0944,-1.073,-1.0695,-1.0942,-1.0869,-1.0852,-1.0804,-1.0723,-1.0634,-1.0503,-1.0491,-1.0423,-1.0288,-1.0214,-1.0147,-1.0012,-1.0012,-0.995,-0.9858,-0.9336,-0.9034,-0.9034,-0.9022,-0.9081,-0.9145,-0.921,-0.9274,-0.928,-0.9215,-0.9151,-0.9087,-0.8952,-0.8829,-0.8894,-0.8958,-0.9081,-0.9268,-0.9396,-0.9588,-0.9913,-1.0168,-1.0364,-1.0654,-1.1023,-1.0795,-1.0113,-0.9645,-0.9809,-1.084,-1.128,-1.1368,-1.1312,-1.0854,-1.0349,-0.9799,-0.9304,-0.9235,-0.9249,-0.9048,-0.8736,-0.8692,-0.8818,-0.8769,-0.8678,-0.8878,-0.9041,-0.9197,-0.9374,-0.9295,-0.9056,-0.9594,-0.9932,-1.0118,-1.0322,-1.0477,-1.0554,-1.0631,-1.0669,-1.0697,-1.0659,-1.0582,-1.0544,-1.0505,-1.0505,-1.0505,-1.0428,-1.0351,-1.419,-1.4179,-1.4025,-1.392,-1.3724,-1.3535,-1.3304,-1.3093,-1.2845,-1.2804,-1.2872,-1.2763,-1.2803,-1.2883,-1.3186,-1.3265,-1.3338,-1.3574,-1.3297,-1.2329,-1.1665,-1.1489,-1.1539,-1.1291,-1.1186,-1.1254,-1.1186,-1.126,-1.1409,-1.1335,-1.1409,-1.1668,-1.1747,-1.1742,-1.1657,-1.1556,-1.1487,-1.1243,-1.1149,-1.1018,-1.088,-1.0817,-1.0673,-1.0465,-1.0396,-1.0396,-1.0303,-0.9793,-0.9501,-0.9478,-0.9414,-0.932,-0.9361,-0.9408,-0.9408,-0.9478,-0.9408,-0.9274,-0.9274,-0.9081,-0.9017,-0.9075,-0.9145,-0.9338,-0.9652,-0.9779,-1.0104,-1.0555,-1.0744,-1.0933,-1.1178,-1.1428,-1.149,-1.1202,-1.0842,-1.088,-1.154,-1.1855,-1.1888,-1.1767,-1.1532,-1.1153,-1.0654,-1.0521,-1.0379,-1.0393,-1.0066,-0.9748,-0.9753,-0.9794,-0.9747,-0.9782,-0.9794,-0.9962,-1.0212,-1.0348,-1.0499,-1.0382,-1.0364,-1.038,-1.039,-1.0554,-1.0708,-1.0708,-1.0756,-1.0794,-1.0794,-1.0736,-1.0659,-1.0659,-1.0659,-1.0582,-1.0544,-1.0544,-1.0505,-1.4805,-1.4508,-1.4509,-1.4289,-1.3881,-1.3756,-1.3652,-1.3425,-1.3208,-1.3244,-1.3281,-1.3259,-1.3207,-1.3505,-1.3898,-1.405,-1.413,-1.4488,-1.4653,-1.4187,-1.3354,-1.2716,-1.2368,-1.1902,-1.1706,-1.1706,-1.1706,-1.1861,-1.2077,-1.2003,-1.215,-1.2365,-1.2565,-1.2535,-1.2407,-1.2324,-1.2193,-1.2006,-1.1813,-1.1619,-1.1405,-1.1322,-1.1108,-1.0766,-1.0709,-1.0645,-1.0511,-1.0399,-1.0345,-1.029,-0.9994,-0.9796,-0.9604,-0.9526,-0.958,-0.9592,-0.9467,-0.9427,-0.9344,-0.9338,-0.9261,-0.9468,-0.9592,-0.9701,-1.0168,-1.0476,-1.0762,-1.1136,-1.1276,-1.1428,-1.174,-1.1864,-1.1911,-1.2112,-1.1981,-1.224,-1.2818,-1.2801,-1.259,-1.238,-1.2272,-1.2123,-1.1589,-1.1664,-1.1703,-1.1636,-1.1469,-1.1272,-1.1151,-1.0922,-1.0825,-1.0763,-1.0766,-1.0926,-1.1148,-1.1058,-1.117,-1.1194,-1.1062,-1.0864,-1.0704,-1.076,-1.0794,-1.0833,-1.0905,-1.0922,-1.0881,-1.0833,-1.0833,-1.0833,-1.0784,-1.0669,-1.0659,-1.0708,-1.0659,-1.5301,-1.5346,-1.5151,-1.4919,-1.4588,-1.4396,-1.419,-1.3919,-1.3988,-1.4011,-1.4081,-1.42,-1.4296,-1.4667,-1.4892,-1.5071,-1.5272,-1.5686,-1.5805,-1.5597,-1.5128,-1.3903,-1.2912,-1.2377,-1.2157,-1.2157,-1.2231,-1.2305,-1.268,-1.2673,-1.282,-1.32,-1.3477,-1.352,-1.3216,-1.341,-1.3395,-1.31,-1.3014,-1.2784,-1.2483,-1.2267,-1.2071,-1.1636,-1.1471,-1.1398,-1.1345,-1.1199,-1.0838,-1.0357,-1.0209,-1.0131,-1.0103,-1.0085,-1.0006,-1.0006,-1.003,-1.0036,-1.003,-0.9962,-1.0042,-1.0257,-1.0398,-1.0725,-1.1061,-1.1193,-1.1416,-1.1675,-1.1721,-1.1824,-1.2135,-1.2313,-1.2498,-1.2674,-1.2744,-1.2805,-1.2989,-1.2981,-1.2923,-1.2945,-1.286,-1.2614,-1.2449,-1.2388,-1.2588,-1.2671,-1.2425,-1.2083,-1.1905,-1.1774,-1.1543,-1.1702,-1.178,-1.1907,-1.1958,-1.1808,-1.1822,-1.1882,-1.1728,-1.1454,-1.1216,-1.1013,-1.0976,-1.0881,-1.1059,-1.11,-1.1033,-1.0978,-1.0978,-1.104,-1.0968,-1.0881,-1.0957,-1.1033,-1.0899,-1.5722,-1.5857,-1.5708,-1.5493,-1.5216,-1.4918,-1.4674,-1.459,-1.4537,-1.4573,-1.4741,-1.4908,-1.5151,-1.5333,-1.565,-1.5891,-1.6154,-1.6484,-1.664,-1.6585,-1.6173,-1.5015,-1.3653,-1.3063,-1.2945,-1.2826,-1.2826,-1.2973,-1.3266,-1.3339,-1.355,-1.3848,-1.4281,-1.4289,-1.4122,-1.4289,-1.4353,-1.4137,-1.3992,-1.3775,-1.3404,-1.3258,-1.2886,-1.2519,-1.2231,-1.2157,-1.1855,-1.1626,-1.1199,-1.0657,-1.049,-1.0441,-1.0339,-1.0333,-1.0333,-1.0333,-1.0333,-1.0327,-1.0327,-1.0327,-1.0541,-1.0742,-1.0955,-1.1361,-1.1744,-1.1942,-1.2115,-1.249,-1.2512,-1.2559,-1.2649,-1.2779,-1.2813,-1.292,-1.3103,-1.3224,-1.3224,-1.3172,-1.3233,-1.3285,-1.3277,-1.3155,-1.2981,-1.3015,-1.3152,-1.3254,-1.2845,-1.2629,-1.2508,-1.2369,-1.2265,-1.2324,-1.2398,-1.2374,-1.2454,-1.2349,-1.2375,-1.2447,-1.2393,-1.2085,-1.1826,-1.1511,-1.1388,-1.1336,-1.1296,-1.1326,-1.1404,-1.136,-1.1199,-1.1199,-1.1169,-1.1172,-1.1232,-1.1358,-1.1239,-1.6181,-1.6149,-1.6155,-1.5994,-1.5789,-1.5427,-1.5234,-1.5196,-1.5,-1.4944,-1.5168,-1.5384,-1.5543,-1.5733,-1.6072,-1.6402,-1.6656,-1.6894,-1.7147,-1.7139,-1.6805,-1.5803,-1.4668,-1.4282,-1.4,-1.3778,-1.3696,-1.382,-1.395,-1.4137,-1.4346,-1.4569,-1.4864,-1.5007,-1.4927,-1.5007,-1.5007,-1.4927,-1.4784,-1.4497,-1.4201,-1.4057,-1.3695,-1.3185,-1.2893,-1.2599,-1.2224,-1.1916,-1.1579,-1.0918,-1.0833,-1.073,-1.0536,-1.0499,-1.0511,-1.0536,-1.063,-1.0548,-1.0505,-1.0765,-1.0874,-1.1179,-1.152,-1.1868,-1.2336,-1.2643,-1.2923,-1.3328,-1.3439,-1.3402,-1.3429,-1.3285,-1.3141,-1.323,-1.3371,-1.3527,-1.3459,-1.3407,-1.3354,-1.3459,-1.3511,-1.3511,-1.3511,-1.3511,-1.3502,-1.3459,-1.3134,-1.3012,-1.3042,-1.303,-1.2832,-1.2683,-1.2733,-1.2704,-1.2793,-1.2871,-1.2966,-1.304,-1.2949,-1.2761,-1.2528,-1.2273,-1.2054,-1.1931,-1.1675,-1.183,-1.2163,-1.1975,-1.1746,-1.1642,-1.1741,-1.1609,-1.1478,-1.1662,-1.1646,-1.6612,-1.6779,-1.6757,-1.66,-1.6323,-1.6035,-1.5784,-1.5648,-1.5673,-1.5554,-1.5583,-1.5711,-1.5896,-1.6004,-1.6162,-1.6327,-1.6648,-1.6976,-1.7221,-1.7383,-1.7342,-1.6957,-1.6202,-1.5729,-1.5237,-1.4903,-1.4825,-1.4765,-1.4736,-1.4832,-1.507,-1.5284,-1.5505,-1.578,-1.563,-1.5709,-1.578,-1.563,-1.5426,-1.5204,-1.4919,-1.4633,-1.4274,-1.384,-1.3411,-1.3046,-1.2746,-1.2526,-1.2271,-1.1924,-1.1672,-1.1468,-1.1338,-1.1338,-1.1326,-1.1319,-1.1345,-1.1363,-1.1443,-1.155,-1.1741,-1.1992,-1.2404,-1.2927,-1.3193,-1.3437,-1.3677,-1.3889,-1.3842,-1.3965,-1.4081,-1.4042,-1.3802,-1.3661,-1.3842,-1.3947,-1.3622,-1.3459,-1.3459,-1.345,-1.3511,-1.3511,-1.3511,-1.3511,-1.3502,-1.3494,-1.3451,-1.3355,-1.3482,-1.3582,-1.3507,-1.3287,-1.3237,-1.326,-1.3135,-1.3203,-1.3238,-1.3324,-1.3314,-1.3284,-1.3062,-1.2834,-1.2573,-1.2249,-1.196,-1.2242,-1.2717,-1.2797,-1.2594,-1.2477,-1.2298,-1.2199,-1.2133,-1.2159,-1.2086,-1.6595,-1.6979,-1.6979,-1.6973,-1.6793,-1.6641,-1.6392,-1.6228,-1.6159,-1.6031,-1.5878,-1.5992,-1.597,-1.5922,-1.6079,-1.6245,-1.6566,-1.6968,-1.7302,-1.7465,-1.7538,-1.7518,-1.7456,-1.6951,-1.6481,-1.5861,-1.5689,-1.5568,-1.5414,-1.5524,-1.5618,-1.5655,-1.5929,-1.607,-1.6061,-1.6132,-1.614,-1.607,-1.5921,-1.578,-1.5497,-1.5284,-1.4856,-1.4353,-1.384,-1.3557,-1.3346,-1.3127,-1.2973,-1.282,-1.2526,-1.2224,-1.1929,-1.1929,-1.1929,-1.1855,-1.1929,-1.2009,-1.2003,-1.2231,-1.2512,-1.268,-1.3193,-1.3557,-1.3833,-1.4088,-1.4238,-1.4401,-1.4482,-1.4594,-1.4606,-1.4629,-1.4427,-1.4247,-1.4393,-1.4298,-1.3725,-1.3511,-1.3511,-1.3511,-1.3511,-1.3511,-1.3511,-1.3511,-1.3511,-1.3502,-1.3494,-1.3485,-1.3868,-1.4032,-1.409,-1.3995,-1.3937,-1.3785,-1.3541,-1.3449,-1.345,-1.3467,-1.3464,-1.347,-1.3403,-1.3186,-1.2979,-1.2724,-1.2576,-1.2851,-1.323,-1.3322,-1.3238,-1.299,-1.2797,-1.2818,-1.2764,-1.2594,-1.2498,-1.6501,-1.6979,-1.6972,-1.716,-1.7289,-1.7047,-1.6938,-1.6887,-1.6638,-1.6382,-1.603,-1.6144,-1.6052,-1.5801,-1.5914,-1.6162,-1.6484,-1.6804,-1.7139,-1.7456,-1.7546,-1.7602,-1.7721,-1.7565,-1.7276,-1.6475,-1.6461,-1.633,-1.6071,-1.6085,-1.6101,-1.5996,-1.6079,-1.6281,-1.6342,-1.6421,-1.643,-1.6438,-1.6342,-1.6202,-1.5929,-1.5788,-1.5434,-1.4856,-1.4425,-1.4137,-1.4008,-1.379,-1.3645,-1.3645,-1.3419,-1.2973,-1.2526,-1.2298,-1.2378,-1.2231,-1.2378,-1.2526,-1.2599,-1.2826,-1.3127,-1.3339,-1.371,-1.4072,-1.4418,-1.4617,-1.4728,-1.4958,-1.5097,-1.5146,-1.5043,-1.5138,-1.506,-1.4915,-1.4992,-1.4649,-1.4084,-1.375,-1.3622,-1.3511,-1.3511,-1.3511,-1.3511,-1.3511,-1.3511,-1.3511,-1.3511,-1.3631,-1.4061,-1.4364,-1.4456,-1.4496,-1.4369,-1.44,-1.4216,-1.386,-1.3793,-1.3759,-1.3755,-1.3662,-1.3652,-1.3465,-1.33,-1.3434,-1.3445,-1.3543,-1.3538,-1.3545,-1.3456,-1.3295,-1.3276,-1.3256,-1.3096,-1.2936,-1.299,-1.6588,-1.6683,-1.7052,-1.7232,-1.7318,-1.7267,-1.723,-1.7245,-1.715,-1.6828,-1.6316,-1.6367,-1.6107,-1.5784,-1.5733,-1.5989,-1.6402,-1.6648,-1.6976,-1.7221,-1.7392,-1.7473,-1.7554,-1.7546,-1.7357,-1.7329,-1.7142,-1.6944,-1.6665,-1.6598,-1.6534,-1.6641,-1.659,-1.6587,-1.67,-1.6839,-1.67,-1.663,-1.6551,-1.6412,-1.6219,-1.6,-1.5788,-1.5284,-1.4927,-1.4721,-1.4649,-1.4433,-1.4217,-1.4209,-1.4065,-1.3775,-1.3492,-1.3046,-1.2973,-1.2973,-1.3046,-1.3119,-1.3266,-1.3492,-1.371,-1.3992,-1.4281,-1.4497,-1.4784,-1.4999,-1.5141,-1.5363,-1.5513,-1.5683,-1.5641,-1.5608,-1.5643,-1.554,-1.5343,-1.5232,-1.5112,-1.4564,-1.3896,-1.3656,-1.3579,-1.3511,-1.3511,-1.3511,-1.3571,-1.3571,-1.3571,-1.37,-1.407,-1.4433,-1.4713,-1.4763,-1.4746,-1.4814,-1.4851,-1.4491,-1.4221,-1.4148,-1.4104,-1.3855,-1.3803,-1.3652,-1.361,-1.361,-1.361,-1.3579,-1.3632,-1.3695,-1.37,-1.3552,-1.3609,-1.3619,-1.3552,-1.3482,-1.3678,-1.6683,-1.6777,-1.7066,-1.7246,-1.7333,-1.7333,-1.7333,-1.7333,-1.7318,-1.6967,-1.6513,-1.6338,-1.6102,-1.5632,-1.5582,-1.5831,-1.6245,-1.6484,-1.673,-1.7057,-1.7221,-1.731,-1.731,-1.7302,-1.7221,-1.7253,-1.7257,-1.7237,-1.7081,-1.6988,-1.6945,-1.6855,-1.6777,-1.6829,-1.6875,-1.6908,-1.6839,-1.6769,-1.6621,-1.6482,-1.6237,-1.6017,-1.5788,-1.5505,-1.5355,-1.515,-1.4999,-1.4927,-1.4848,-1.4776,-1.4633,-1.4497,-1.4289,-1.4,-1.371,-1.3564,-1.371,-1.3848,-1.4,-1.4225,-1.4433,-1.4497,-1.4784,-1.4927,-1.507,-1.5204,-1.5426,-1.5584,-1.5735,-1.5805,-1.5788,-1.5805,-1.5805,-1.578,-1.5617,-1.5617,-1.5531,-1.4889,-1.435,-1.3845,-1.3631,-1.3545,-1.3511,-1.3511,-1.3631,-1.364,-1.358,-1.3821,-1.4079,-1.4501,-1.4906,-1.5013,-1.5084,-1.5255,-1.5285,-1.5029,-1.4779,-1.4685,-1.4558,-1.4307,-1.4171,-1.4139,-1.3872,-1.3658,-1.361,-1.3741,-1.3658,-1.3711,-1.3742,-1.3773,-1.3737,-1.3742,-1.3899,-1.4046,-1.4104,-1.6935,-1.7167,-1.724,-1.7406,-1.7426,-1.7419,-1.7512,-1.7419,-1.752,-1.715,-1.6595,-1.6507,-1.6189,-1.5723,-1.5673,-1.5839,-1.6252,-1.6484,-1.6812,-1.7049,-1.7131,-1.7221,-1.7147,-1.7057,-1.6968,-1.6886,-1.6935,-1.7065,-1.7225,-1.7215,-1.7175,-1.7178,-1.7087,-1.7,-1.7031,-1.6972,-1.6806,-1.663,-1.6621,-1.643,-1.6105,-1.5885,-1.5726,-1.5584,-1.5584,-1.5505,-1.5355,-1.5275,-1.5204,-1.5213,-1.507,-1.4935,-1.4935,-1.4784,-1.4497,-1.4225,-1.4369,-1.4505,-1.4641,-1.4721,-1.4935,-1.4999,-1.5141,-1.5284,-1.5355,-1.5497,-1.5647,-1.5805,-1.5805,-1.5805,-1.5805,-1.5805,-1.5805,-1.5805,-1.5797,-1.5771,-1.5608,-1.5189,-1.4667,-1.4204,-1.3802,-1.3579,-1.3528,-1.364,-1.37,-1.3821,-1.3761,-1.3941,-1.4309,-1.4775,-1.5138,-1.5264,-1.5424,-1.5604,-1.5636,-1.5562,-1.5395,-1.5363,-1.5183,-1.4919,-1.4864,-1.4789,-1.4377,-1.4011,-1.3983,-1.4083,-1.3909,-1.3736,-1.3716,-1.3716,-1.3773,-1.3821,-1.3915,-1.3915,-1.3962,-1.7699,-1.7658,-1.8218,-1.8267,-1.8009,-1.7986,-1.7994,-1.7994,-1.7986,-1.7606,-1.7029,-1.6953,-1.6619,-1.6209,-1.6237,-1.6394,-1.6648,-1.6886,-1.7057,-1.7131,-1.7131,-1.6976,-1.682,-1.6566,-1.6558,-1.6558,-1.6558,-1.6878,-1.7154,-1.725,-1.7458,-1.7643,-1.7246,-1.7018,-1.7268,-1.7046,-1.683,-1.6612,-1.6612,-1.6403,-1.6079,-1.5876,-1.5805,-1.5797,-1.5726,-1.5735,-1.5655,-1.5505,-1.5497,-1.5426,-1.5284,-1.5204,-1.5133,-1.5133,-1.5133,-1.4999,-1.4927,-1.4935,-1.507,-1.5141,-1.5292,-1.5363,-1.5426,-1.5576,-1.5647,-1.5726,-1.5726,-1.5805,-1.5805,-1.5805,-1.5805,-1.5805,-1.5805,-1.5805,-1.5805,-1.5805,-1.5711,-1.5514,-1.4992,-1.4453,-1.4007,-1.3699,-1.3528,-1.3709,-1.383,-1.389,-1.4001,-1.4181,-1.4478,-1.4951,-1.541,-1.5603,-1.5766,-1.5966,-1.6088,-1.5972,-1.5976,-1.6009,-1.5871,-1.5593,-1.5485,-1.5337,-1.4882,-1.4572,-1.4605,-1.445,-1.4253,-1.4079,-1.3788,-1.3668,-1.3668,-1.3716,-1.3821,-1.3821,-1.3821,-1.9036,-1.8311,-1.8635,-1.8675,-1.8288,-1.8172,-1.8087,-1.8087,-1.8079,-1.7819,-1.7466,-1.7316,-1.6962,-1.6609,-1.6812,-1.6976,-1.7147,-1.7383,-1.7456,-1.7375,-1.7212,-1.7057,-1.6894,-1.6558,-1.6386,-1.6386,-1.6468,-1.6722,-1.7074,-1.7324,-1.7564,-1.7958,-1.7548,-1.7269,-1.7451,-1.696,-1.6657,-1.6412,-1.6272,-1.6061,-1.5929,-1.5867,-1.5805,-1.5805,-1.5805,-1.5805,-1.5805,-1.5735,-1.5655,-1.5655,-1.5576,-1.5505,-1.5576,-1.5576,-1.5505,-1.5505,-1.5434,-1.5434,-1.5355,-1.5497,-1.5576,-1.5655,-1.5647,-1.5726,-1.5805,-1.5805,-1.5805,-1.5805,-1.5805,-1.5805,-1.5805,-1.5805,-1.5805,-1.5805,-1.5805,-1.5805,-1.5771,-1.5643,-1.53,-1.4752,-1.4213,-1.387,-1.3579,-1.3709,-1.389,-1.407,-1.424,-1.4419,-1.4715,-1.5059,-1.5526,-1.5931,-1.6104,-1.6322,-1.643,-1.6496,-1.6554,-1.6622,-1.6753,-1.645,-1.6148,-1.5828,-1.5563,-1.5477,-1.5604,-1.5311,-1.4838,-1.4344,-1.3972,-1.3762,-1.361,-1.372,-1.3868,-1.3726,-1.3726,-2.0226,-1.932,-1.9485,-1.9272,-1.8846,-1.8589,-1.8465,-1.8465,-1.855,-1.8263,-1.801,-1.7834,-1.76,-1.7317,-1.7622,-1.7761,-1.7635,-1.7861,-1.7861,-1.7708,-1.7465,-1.7302,-1.7049,-1.664,-1.6476,-1.6386,-1.6476,-1.673,-1.7049,-1.7342,-1.778,-1.8222,-1.7725,-1.7611,-1.7461,-1.6962,-1.6542,-1.6281,-1.6008,-1.5867,-1.5805,-1.5805,-1.5805,-1.5805,-1.5805,-1.5805,-1.5805,-1.5805,-1.5805,-1.5805,-1.5805,-1.5726,-1.5735,-1.5726,-1.5726,-1.5735,-1.5735,-1.5655,-1.5655,-1.5655,-1.5805,-1.5805,-1.5805,-1.5805,-1.5805,-1.5805,-1.5805,-1.5805,-1.5805,-1.5805,-1.5805,-1.5805,-1.5805,-1.5805,-1.5805,-1.5805,-1.5797,-1.5694,-1.5403,-1.4786,-1.4281,-1.3913,-1.3735,-1.3804,-1.395,-1.4189,-1.4428,-1.4684,-1.4989,-1.5312,-1.5682,-1.6165,-1.6296,-1.6477,-1.6627,-1.6775,-1.6955,-1.7078,-1.7211,-1.718,-1.6743,-1.6613,-1.645,-1.6501,-1.6461,-1.6302,-1.5918,-1.5006,-1.4247,-1.4447,-1.4531,-1.4049,-1.3886,-1.3734,-1.3631,-2.0845,-2.0879,-2.0874,-2.0562,-1.9906,-1.9627,-1.9496,-1.9396,-1.9496,-1.9274,-1.8904,-1.8812,-1.8718,-1.8622,-1.8659,-1.8676,-1.8388,-1.854,-1.8362,-1.8121,-1.7878,-1.7546,-1.7221,-1.6886,-1.664,-1.6558,-1.6648,-1.6894,-1.7139,-1.7538,-1.8014,-1.8479,-1.7867,-1.7818,-1.7587,-1.7062,-1.6438,-1.614,-1.5867,-1.5805,-1.5805,-1.5805,-1.5805,-1.5805,-1.5805,-1.5805,-1.5805,-1.5805,-1.5805,-1.5805,-1.5805,-1.5805,-1.5805,-1.5805,-1.5805,-1.5805,-1.5805,-1.5805,-1.5805,-1.5805,-1.5805,-1.5805,-1.5805,-1.5805,-1.5805,-1.5805,-1.5805,-1.5805,-1.5805,-1.5805,-1.5805,-1.5805,-1.5805,-1.5805,-1.5805,-1.5805,-1.5805,-1.5797,-1.5454,-1.4821,-1.4393,-1.411,-1.3941,-1.3987,-1.4074,-1.4309,-1.4897,-1.5168,-1.5575,-1.5861,-1.6035,-1.6273,-1.6441,-1.6591,-1.6751,-1.692,-1.7022,-1.7145,-1.7278,-1.7278,-1.7169,-1.7114,-1.6994,-1.6994,-1.6862,-1.6918,-1.6863,-1.5998,-1.5496,-1.5571,-1.538,-1.4668,-1.4174,-1.4039,-1.3824,-2.152,-2.1405,-2.1613,-2.1229,-2.0397,-2.0178,-2.0027,-2.0027,-2.0027,-1.9915,-1.9735,-1.973,-1.972,-1.9649,-1.9678,-1.9616,-1.9327,-1.9074,-1.8869,-1.8523,-1.8193,-1.787,-1.7546,-1.7302,-1.7057,-1.7057,-1.7147,-1.7221,-1.7538,-1.7781,-1.8121,-1.8294,-1.792,-1.7854,-1.7633,-1.6991,-1.636,-1.6,-1.5867,-1.5805,-1.5805,-1.5805,-1.5805,-1.5805,-1.5805,-1.5805,-1.5805,-1.5805,-1.5805,-1.5805,-1.5805,-1.5805,-1.5805,-1.5805,-1.5805,-1.5805,-1.5805,-1.5805,-1.5805,-1.5805,-1.5805,-1.5805,-1.5805,-1.5805,-1.5805,-1.5805,-1.5805,-1.5805,-1.5805,-1.5805,-1.5805,-1.5805,-1.5805,-1.5805,-1.5805,-1.5805,-1.5805,-1.5805,-1.5591,-1.4992,-1.4709,-1.4461,-1.4319,-1.4256,-1.4347,-1.4462,-1.5065,-1.5628,-1.5994,-1.6228,-1.6316,-1.642,-1.6581,-1.6633,-1.6782,-1.6931,-1.7078,-1.72,-1.7278,-1.7278,-1.7278,-1.7267,-1.7169,-1.718,-1.7158,-1.7125,-1.7038,-1.683,-1.6515,-1.6202,-1.5688,-1.4993,-1.4608,-1.4338,-1.4143,-2.1706,-2.1606,-2.1798,-2.1525,-2.0993,-2.0607,-2.0555,-2.0654,-2.0654,-2.0703,-2.0704,-2.0862,-2.082,-2.0695,-2.0708,-2.0419,-2.0142,-1.9792,-1.9368,-1.9038,-1.8594,-1.8273,-1.8031,-1.787,-1.7627,-1.7635,-1.7716,-1.7789,-1.7942,-1.8121,-1.8442,-1.8488,-1.8139,-1.8055,-1.7714,-1.6929,-1.6149,-1.5929,-1.5797,-1.5805,-1.5805,-1.5805,-1.5805,-1.5805,-1.5805,-1.5805,-1.5805,-1.5805,-1.5805,-1.5805,-1.5805,-1.5805,-1.5805,-1.5805,-1.5805,-1.5805,-1.5805,-1.5805,-1.5805,-1.5805,-1.5805,-1.5805,-1.5805,-1.5805,-1.5805,-1.5805,-1.5805,-1.5805,-1.5805,-1.5805,-1.5805,-1.5805,-1.5805,-1.5805,-1.5805,-1.5805,-1.5805,-1.5788,-1.5548,-1.5197,-1.4983,-1.4786,-1.4706,-1.4663,-1.4895,-1.497,-1.534,-1.5839,-1.6206,-1.638,-1.6365,-1.6517,-1.6663,-1.6738,-1.6747,-1.6941,-1.7145,-1.7211,-1.7278,-1.7278,-1.7278,-1.7278,-1.7278,-1.7245,-1.7234,-1.7267,-1.7202,-1.7015,-1.6841,-1.6602,-1.6084,-1.5551,-1.5056,-1.4805,-1.4589,-2.1509,-2.166,-2.1679,-2.1608,-2.1449,-2.1157,-2.1105,-2.1293,-2.1392,-2.1535,-2.1845,-2.1924,-2.1923,-2.1768,-2.1665,-2.1248,-2.0727,-2.0386,-1.991,-1.9295,-1.8993,-1.8683,-1.8514,-1.8273,-1.8201,-1.8121,-1.8121,-1.8282,-1.8353,-1.8451,-1.8772,-1.8735,-1.8378,-1.8154,-1.8008,-1.6893,-1.6307,-1.6079,-1.5972,-1.5876,-1.5876,-1.5876,-1.5876,-1.5876,-1.5876,-1.5867,-1.5867,-1.5876,-1.5842,-1.5694,-1.5764,-1.5764,-1.5781,-1.5781,-1.5807,-1.5867,-1.5876,-1.5797,-1.5797,-1.5805,-1.5805,-1.5805,-1.5805,-1.5805,-1.5805,-1.5805,-1.5805,-1.5805,-1.5805,-1.5805,-1.5805,-1.5805,-1.5805,-1.5805,-1.5805,-1.5805,-1.5805,-1.5805,-1.5583,-1.5411,-1.5257,-1.5103,-1.505,-1.5089,-1.5437,-1.562,-1.5799,-1.6047,-1.6408,-1.6494,-1.6423,-1.6602,-1.6789,-1.6752,-1.6806,-1.7062,-1.7222,-1.7278,-1.7278,-1.7278,-1.7278,-1.7278,-1.7278,-1.7278,-1.7278,-1.7278,-1.7278,-1.7256,-1.7103,-1.6885,-1.6645,-1.6202,-1.5679,-1.5288,-1.5141,-2.1651,-2.1731,-2.1731,-2.1724,-2.1645,-2.1527,-2.1651,-2.183,-2.1998,-2.2176,-2.2353,-2.2451,-2.258,-2.2457,-2.2255,-2.1861,-2.1278,-2.0847,-2.033,-1.9594,-1.932,-1.9073,-1.8834,-1.8683,-1.8612,-1.8531,-1.8612,-1.8531,-1.8362,-1.8612,-1.8612,-1.8506,-1.8406,-1.8132,-1.7794,-1.7207,-1.6813,-1.6607,-1.6386,-1.6149,-1.614,-1.6149,-1.607,-1.607,-1.6,-1.6,-1.6,-1.6,-1.5834,-1.5566,-1.5592,-1.5713,-1.5644,-1.5635,-1.5887,-1.6044,-1.6132,-1.607,-1.6,-1.5938,-1.5805,-1.5805,-1.5805,-1.5805,-1.5805,-1.5805,-1.5805,-1.5805,-1.5805,-1.5805,-1.5805,-1.5805,-1.5805,-1.5805,-1.5805,-1.5805,-1.5805,-1.5805,-1.5711,-1.5591,-1.5454,-1.53,-1.5163,-1.5385,-1.5701,-1.5813,-1.5959,-1.6273,-1.6566,-1.6495,-1.6459,-1.6674,-1.6819,-1.6789,-1.6842,-1.7117,-1.7245,-1.728,-1.7286,-1.7278,-1.7278,-1.7355,-1.7289,-1.73,-1.7289,-1.7278,-1.7278,-1.7278,-1.7278,-1.7169,-1.6928,-1.6732,-1.6245,-1.5955,-1.5785,-2.1731,-2.1731,-2.1731,-2.1731,-2.1731,-2.1731,-2.1909,-2.2185,-2.252,-2.2608,-2.2706,-2.2794,-2.2872,-2.2872,-2.2755,-2.2353,-2.1802,-2.1327,-2.0777,-1.9948,-1.9627,-1.939,-1.924,-1.9109,-1.9002,-1.8931,-1.8851,-1.8834,-1.8683,-1.8763,-1.8692,-1.8541,-1.8355,-1.8326,-1.802,-1.7662,-1.7213,-1.7033,-1.6766,-1.659,-1.6466,-1.6387,-1.6281,-1.6272,-1.6202,-1.6132,-1.6132,-1.6079,-1.5957,-1.5599,-1.5528,-1.561,-1.5498,-1.5578,-1.5845,-1.6067,-1.621,-1.6167,-1.6061,-1.6,-1.5938,-1.5797,-1.5805,-1.5805,-1.5805,-1.5805,-1.5805,-1.5805,-1.5805,-1.5805,-1.5805,-1.5805,-1.5805,-1.5805,-1.5805,-1.5805,-1.5805,-1.5805,-1.5797,-1.5694,-1.5643,-1.5489,-1.5403,-1.5627,-1.5878,-1.6,-1.6044,-1.6351,-1.6621,-1.6533,-1.649,-1.6675,-1.697,-1.708,-1.7103,-1.723,-1.7311,-1.7307,-1.7395,-1.7513,-1.7483,-1.7535,-1.7429,-1.7311,-1.73,-1.7278,-1.7278,-1.7278,-1.7334,-1.7334,-1.7279,-1.7027,-1.6765,-1.6569,-1.6332,-2.1741,-2.1731,-2.1731,-2.1741,-2.1741,-2.1731,-2.2008,-2.2441,-2.2872,-2.3057,-2.3047,-2.3057,-2.3047,-2.3047,-2.3105,-2.2761,-2.234,-2.1812,-2.1316,-2.076,-2.0366,-2.0061,-1.9893,-1.9752,-1.9611,-1.9421,-1.9286,-1.9101,-1.894,-1.8763,-1.8683,-1.8612,-1.8461,-1.8364,-1.8214,-1.7923,-1.7561,-1.7468,-1.7142,-1.6928,-1.683,-1.6581,-1.6456,-1.6421,-1.6342,-1.6342,-1.6342,-1.6315,-1.6033,-1.5822,-1.5739,-1.5508,-1.5429,-1.5526,-1.565,-1.5854,-1.6138,-1.621,-1.6132,-1.6132,-1.6,-1.5867,-1.5805,-1.5805,-1.5805,-1.5805,-1.5805,-1.5805,-1.5805,-1.5805,-1.5805,-1.5805,-1.5805,-1.5805,-1.5805,-1.5805,-1.5805,-1.5805,-1.5805,-1.578,-1.5771,-1.5703,-1.5668,-1.5859,-1.6,-1.6,-1.607,-1.6202,-1.6412,-1.6482,-1.6464,-1.6649,-1.693,-1.7375,-1.7432,-1.7358,-1.744,-1.7455,-1.7719,-1.7856,-1.7787,-1.7712,-1.7698,-1.7581,-1.7376,-1.7278,-1.7278,-1.7334,-1.7334,-1.739,-1.7379,-1.7335,-1.7071,-1.7015,-1.6829,-2.2008,-2.2008,-2.2008,-2.2008,-2.2008,-2.2008,-2.2097,-2.2264,-2.253,-2.2706,-2.2891,-2.2882,-2.2969,-2.3144,-2.3319,-2.3051,-2.2849,-2.2601,-2.2294,-2.1784,-2.1328,-2.1192,-2.0957,-2.0636,-2.0307,-1.9968,-1.9767,-1.9361,-1.8807,-1.8603,-1.8362,-1.821,-1.8282,-1.8282,-1.8204,-1.8135,-1.803,-1.784,-1.7418,-1.7278,-1.7117,-1.6901,-1.6756,-1.6745,-1.6551,-1.6551,-1.6551,-1.6542,-1.6258,-1.5904,-1.6044,-1.5912,-1.5503,-1.5622,-1.5805,-1.612,-1.6369,-1.6403,-1.6272,-1.6132,-1.6,-1.5867,-1.5805,-1.5805,-1.5805,-1.5805,-1.5805,-1.5805,-1.5805,-1.5805,-1.5805,-1.5805,-1.5805,-1.5805,-1.5805,-1.5805,-1.5805,-1.5805,-1.5805,-1.5805,-1.5805,-1.5805,-1.5797,-1.5929,-1.607,-1.607,-1.6035,-1.6131,-1.6167,-1.6289,-1.6446,-1.6629,-1.6788,-1.7139,-1.7395,-1.7382,-1.7519,-1.7688,-1.7978,-1.8226,-1.8176,-1.8154,-1.8029,-1.7919,-1.7726,-1.7475,-1.7278,-1.7367,-1.7589,-1.7445,-1.7479,-1.7479,-1.7423,-1.7312,-1.72,-2.2036,-2.2176,-2.2176,-2.2185,-2.2185,-2.2097,-2.2106,-2.2097,-2.2264,-2.253,-2.2618,-2.2794,-2.2891,-2.3057,-2.3299,-2.3352,-2.3123,-2.32,-2.3021,-2.2757,-2.2461,-2.2034,-2.1807,-2.1288,-2.0756,-2.0361,-1.9922,-1.9414,-1.8887,-1.8531,-1.829,-1.8201,-1.8121,-1.804,-1.8095,-1.8132,-1.8134,-1.7952,-1.7814,-1.771,-1.7551,-1.7288,-1.7211,-1.7092,-1.6869,-1.6778,-1.6691,-1.6682,-1.6405,-1.6107,-1.6254,-1.6044,-1.5705,-1.578,-1.5991,-1.63,-1.6533,-1.639,-1.6138,-1.6123,-1.6035,-1.5867,-1.5805,-1.5805,-1.5805,-1.5805,-1.5805,-1.5805,-1.5805,-1.5805,-1.5805,-1.5805,-1.5805,-1.5805,-1.5805,-1.5805,-1.5805,-1.5805,-1.5805,-1.5805,-1.5805,-1.5805,-1.5876,-1.6,-1.6053,-1.5913,-1.5773,-1.5745,-1.5936,-1.6086,-1.6323,-1.66,-1.6738,-1.6858,-1.7072,-1.7363,-1.7676,-1.7927,-1.8433,-1.8617,-1.8594,-1.8545,-1.8373,-1.8273,-1.8134,-1.7915,-1.7774,-1.7811,-1.7889,-1.7812,-1.7701,-1.7723,-1.7645,-1.7468,-1.7368,-2.1861,-2.2375,-2.2422,-2.2441,-2.2353,-2.2176,-2.2097,-2.2097,-2.2264,-2.2353,-2.2441,-2.2618,-2.2794,-2.2882,-2.3309,-2.3584,-2.3588,-2.3739,-2.393,-2.3682,-2.3453,-2.3104,-2.2461,-2.1715,-2.126,-2.0557,-1.9901,-1.9531,-1.9056,-1.8692,-1.8531,-1.8442,-1.8442,-1.8282,-1.8112,-1.8121,-1.8149,-1.8037,-1.8188,-1.8249,-1.81,-1.7852,-1.7513,-1.7413,-1.7193,-1.6963,-1.6917,-1.6844,-1.6743,-1.6496,-1.6331,-1.6184,-1.6056,-1.6056,-1.6239,-1.6413,-1.662,-1.6441,-1.6189,-1.6139,-1.6044,-1.5947,-1.5805,-1.5805,-1.5805,-1.5805,-1.5805,-1.5805,-1.5805,-1.5805,-1.5805,-1.5805,-1.5805,-1.5805,-1.5805,-1.5805,-1.5805,-1.5805,-1.5805,-1.5805,-1.5805,-1.5805,-1.5938,-1.6053,-1.6131,-1.5806,-1.5724,-1.5735,-1.5682,-1.5913,-1.6079,-1.6351,-1.6424,-1.6486,-1.693,-1.7251,-1.7721,-1.8141,-1.8557,-1.8812,-1.8775,-1.8731,-1.8773,-1.879,-1.8806,-1.8574,-1.8455,-1.8425,-1.8417,-1.8295,-1.8216,-1.8047,-1.7913,-1.7835,-1.7568,-2.2141,-2.2275,-2.2581,-2.2618,-2.2441,-2.2353,-2.2264,-2.2097,-2.2185,-2.2185,-2.2176,-2.2441,-2.2627,-2.2803,-2.3406,-2.3816,-2.4023,-2.4419,-2.485,-2.4858,-2.4638,-2.4063,-2.3557,-2.2633,-2.1892,-2.1095,-2.0335,-1.9629,-1.9216,-1.8851,-1.87,-1.862,-1.8612,-1.8523,-1.8273,-1.8282,-1.8273,-1.8103,-1.8417,-1.8503,-1.8243,-1.8067,-1.7862,-1.7633,-1.7358,-1.7156,-1.7064,-1.6899,-1.6862,-1.6762,-1.6771,-1.6551,-1.623,-1.6294,-1.6312,-1.6386,-1.667,-1.6468,-1.626,-1.6148,-1.6114,-1.5947,-1.5805,-1.5805,-1.5805,-1.5805,-1.5805,-1.5805,-1.5805,-1.5805,-1.5805,-1.5805,-1.5805,-1.5805,-1.5805,-1.5805,-1.5805,-1.5805,-1.5805,-1.5805,-1.5805,-1.5867,-1.6,-1.6053,-1.6111,-1.6106,-1.6107,-1.606,-1.5742,-1.5695,-1.5584,-1.5814,-1.5907,-1.6085,-1.659,-1.7012,-1.7445,-1.78,-1.8137,-1.8468,-1.8903,-1.9072,-1.9252,-1.9548,-1.9571,-1.9287,-1.9097,-1.8985,-1.8946,-1.8815,-1.8736,-1.8577,-1.8577,-1.8542,-1.8058,-2.209,-2.2388,-2.2805,-2.2882,-2.2696,-2.2618,-2.253,-2.2451,-2.2274,-2.2274,-2.2264,-2.2353,-2.253,-2.2803,-2.3406,-2.4013,-2.4433,-2.502,-2.5452,-2.5724,-2.5467,-2.502,-2.4302,-2.3361,-2.2301,-2.1391,-2.0499,-1.9795,-1.9338,-1.932,-1.924,-1.9011,-1.8922,-1.8843,-1.8603,-1.8523,-1.8442,-1.8371,-1.8692,-1.8629,-1.8458,-1.8357,-1.832,-1.8045,-1.7697,-1.744,-1.7211,-1.7037,-1.6908,-1.6899,-1.6881,-1.6826,-1.6615,-1.6606,-1.6496,-1.6419,-1.6487,-1.654,-1.6278,-1.6105,-1.6053,-1.5867,-1.5805,-1.5805,-1.5805,-1.5805,-1.5805,-1.5805,-1.5805,-1.5805,-1.5805,-1.5805,-1.5805,-1.5805,-1.5805,-1.5805,-1.5805,-1.5805,-1.5805,-1.5805,-1.5805,-1.5797,-1.5929,-1.6132,-1.6209,-1.6276,-1.6328,-1.5926,-1.5689,-1.5541,-1.5395,-1.534,-1.5558,-1.5935,-1.6546,-1.6831,-1.7012,-1.7403,-1.776,-1.8543,-1.9187,-1.951,-1.9799,-1.9972,-2.0036,-1.9935,-1.9767,-1.9621,-1.9411,-1.9236,-1.9188,-1.9115,-1.9186,-1.9163,-1.8731,-2.1884,-2.2539,-2.2959,-2.3144,-2.3047,-2.2882,-2.2794,-2.2706,-2.253,-2.2432,-2.2441,-2.2441,-2.2441,-2.2794,-2.3396,-2.4003,-2.4594,-2.5285,-2.5874,-2.6046,-2.5769,-2.5253,-2.4516,-2.3541,-2.2405,-2.1421,-2.0536,-2.0125,-1.9794,-1.9706,-1.9627,-1.939,-1.9311,-1.9161,-1.8851,-1.878,-1.8692,-1.8692,-1.8851,-1.9002,-1.8928,-1.8903,-1.877,-1.8449,-1.8082,-1.7651,-1.7431,-1.7229,-1.7009,-1.6908,-1.6908,-1.6802,-1.6784,-1.6729,-1.6542,-1.6419,-1.6441,-1.6303,-1.5998,-1.607,-1.5948,-1.5867,-1.5805,-1.5814,-1.5814,-1.5865,-1.5874,-1.5891,-1.5891,-1.584,-1.584,-1.584,-1.584,-1.5805,-1.5805,-1.5805,-1.5805,-1.5805,-1.5805,-1.5805,-1.5805,-1.5797,-1.6008,-1.614,-1.6315,-1.6392,-1.6265,-1.5742,-1.5414,-1.5401,-1.5281,-1.5312,-1.5416,-1.589,-1.6403,-1.6661,-1.6757,-1.7094,-1.7561,-1.8649,-1.9401,-1.9478,-1.9728,-2.025,-2.0277,-2.0138,-2.0234,-2.0177,-1.9923,-1.9629,-1.9749,-1.9789,-1.9677,-1.9621,-1.9369,-2.1724,-2.2549,-2.2969,-2.3135,-2.3047,-2.3047,-2.2969,-2.2803,-2.2706,-2.2618,-2.253,-2.2618,-2.2794,-2.2969,-2.3484,-2.409,-2.4775,-2.5454,-2.5837,-2.6037,-2.5949,-2.543,-2.4614,-2.3578,-2.2418,-2.1484,-2.0703,-2.0352,-2.0098,-2.0029,-1.9863,-1.9784,-1.9557,-1.9399,-1.9231,-1.9082,-1.8922,-1.8922,-1.8922,-1.9082,-1.9082,-1.8997,-1.8999,-1.877,-1.8577,-1.8064,-1.7688,-1.7449,-1.7193,-1.7009,-1.6908,-1.683,-1.6751,-1.6682,-1.6531,-1.6347,-1.6367,-1.6262,-1.6096,-1.6062,-1.5929,-1.5805,-1.5814,-1.584,-1.5917,-1.6105,-1.6131,-1.6199,-1.6148,-1.5977,-1.5942,-1.5942,-1.5934,-1.5848,-1.5805,-1.5805,-1.5805,-1.5805,-1.5805,-1.5805,-1.5805,-1.5867,-1.6079,-1.6211,-1.6412,-1.6522,-1.6497,-1.6056,-1.5506,-1.5339,-1.5256,-1.5308,-1.5413,-1.5409,-1.5664,-1.6365,-1.6591,-1.6867,-1.736,-1.8327,-1.8956,-1.9116,-1.941,-1.9963,-2.0154,-2.0104,-2.0268,-2.0409,-2.0396,-2.0131,-2.0407,-2.0422,-2.0254,-1.9939,-1.9676]},{"header":{"parameterUnit":"m.s-1","parameterCategory":1,"la1":31.0,"la2":29.5877,"lo1":-88.7671,"lo2":-86.6584,"dy":0.0162,"dx":0.0185,"nx":115,"ny":88,"refTime":"2023-06-05T18:00:00:Z","depth":0,"parameterNumber":3,"parameterNumberName":"V-component_of_WINDS"},"data":[0.0,0.0,0.0,0.0,0.0,0.0,0.0,0.0,0.0,0.0,0.0,0.0,0.0,0.0,0.0,0.0,0.0,0.0,0.0,0.0,0.0,0.0,0.0,0.0,0.0,0.0,0.0,0.0,0.0,0.0,0.0,0.0,0.0,0.0,0.0,0.0,0.0,0.0,0.0,0.0,0.0,0.0,0.0,0.0,0.0,0.0,0.0,0.0,0.0,0.0,0.0,0.0,0.0,0.0,0.0,0.0,0.0,0.0,0.0,0.0,0.0,0.0,0.0,0.0,0.0,0.0,0.0,0.0,0.0,0.0,0.0,0.0,0.0,0.0,0.0,0.0,0.0,0.0,0.0,0.0,0.0,0.0,0.0,0.0,0.0,0.0,0.0,0.0,0.0,0.0,0.0,0.0,0.0,0.0,0.0,0.0,0.0,0.0,0.0,0.0,0.0,0.0,0.0,0.0,0.0,0.0,0.0,0.0,0.0,0.0,0.0,0.0,0.0,0.0,0.0,0.0,0.0,0.0,0.0,0.0,0.0,0.0,0.0,0.0,0.0,0.0,0.0,0.0,0.0,0.0,0.0,0.0,0.0,0.0,0.0,0.0,0.0,0.0,0.0,0.0,0.0,0.0,0.0,0.0,0.0,0.0,0.0,0.0,0.0,0.0,0.0,0.0,0.0,0.0,0.0,0.0,0.0,0.0,0.0,0.0,0.0,0.0,0.0,0.0,0.0,0.0,0.0,0.0,0.0,0.0,0.0,0.0,0.0,0.0,0.0,0.0,0.0,0.0,0.0,0.0,0.0,0.0,0.0,0.0,0.0,0.0,0.0,0.0,0.0,0.0,0.0,0.0,0.0,0.0,0.0,0.0,0.0,0.0,0.0,0.0,0.0,0.0,0.0,0.0,0.0,0.0,0.0,0.0,0.0,0.0,0.0,0.0,0.0,0.0,0.0,0.0,0.0,0.0,0.0,0.0,0.0,0.0,0.0,0.0,0.0,0.0,0.0,0.0,0.0,0.0,0.0,0.0,0.0,0.0,0.0,0.0,0.0,0.0,0.0,0.0,0.0,0.0,0.0,0.0,0.0,0.0,0.0,0.0,0.0,0.0,0.0,0.0,0.0,0.0,0.0,0.0,0.0,0.0,0.0,0.0,0.0,0.0,0.0,0.0,0.0,0.0,0.0,0.0,0.0,0.0,0.0,0.0,0.0,0.0,0.0,0.0,0.0,0.0,0.0,0.0,0.0,0.0,0.0,0.0,0.0,0.0,0.0,0.0,0.0,0.0,0.0,0.0,0.0,0.0,0.0,0.0,0.0,0.0,0.0,0.0,0.0,0.0,0.0,0.0,0.0,0.0,0.0,0.0,0.0,0.0,0.0,0.0,0.0,0.0,0.0,0.0,0.0,0.0,0.0,0.0,0.0,0.0,0.0,0.0,0.0,0.0,0.0,0.0,0.0,0.0,0.0,0.0,0.0,0.0,0.0,0.0,0.0,0.0,0.0,0.0,0.0,0.0,0.0,0.0,0.0,0.0,0.0,0.0,0.0,0.0,0.0,0.0,0.0,0.0,0.0,0.0,0.0,0.0,0.0,0.0,0.0,0.0,0.0,0.0,0.0,0.0,0.0,0.0,0.0,0.0,0.0,0.0,0.0,0.0,0.0,0.0,0.0,0.0,0.0,0.0,0.0,0.0,0.0,0.0,0.0,0.0,0.0,0.0,0.0,0.0,0.0,0.0,0.0,0.0,0.0,0.0,0.0,0.0,0.0,0.0,0.0,0.0,0.0,0.0,0.0,0.0,0.0,0.0,0.0,0.0,0.0,0.0,0.0,0.0,0.0,0.0,0.0,0.0,0.0,0.0,0.0,0.0,0.0,0.0,0.0,0.0,0.0,0.0,0.0,0.0,0.0,0.0,0.0,0.0,0.0,0.0,0.0,0.0,0.0,0.0,0.0,0.0,0.0,0.0,0.0,0.0,0.0,0.0,0.0,0.0,0.0,0.0,0.0,0.0,0.0,0.0,0.0,0.0,0.0,0.0,0.0,0.0,0.0,0.0,0.0,0.0,0.0,0.0,0.0,0.0,0.0,0.0,0.0,0.0,0.0,0.0,0.0,0.0,0.0,0.0,0.0,0.0,0.0,0.0,0.0,0.0,0.0,0.0,0.0,0.0,0.0,0.0,0.0,0.0,0.0,0.0,0.0,0.0,0.0,0.0,0.0,0.0,0.0,0.0,0.0,0.0,0.0,0.0,0.0,0.0,0.0,0.0,0.0,0.0,0.0,0.0,0.0,0.0,0.0,0.0,0.0,0.0,0.0,0.0,0.0,0.0,0.0,0.0,0.0,0.0,0.0,0.0,0.0,0.0,0.0,0.0,0.0,0.0,0.0,0.0,0.0,0.0,0.0,0.0,0.0,0.0,0.0,0.0,0.0,0.0,0.0,0.0,0.0,0.0,0.0,0.0,0.0,0.0,0.0,0.0,0.0,0.0,0.0,0.0,0.0,0.0,0.0,0.0,0.0,0.0,0.0,0.0,0.0,0.0,0.0,0.0,0.0,0.0,0.0,0.0,0.0,0.0,0.0,0.0,0.0,0.0,0.0,0.0,0.0,0.0,0.0,0.0,0.0,0.0,0.0,0.0,0.0,0.0,0.0,0.0,0.0,0.0,0.0,0.0,0.0,0.0,0.0,0.0,0.0,0.0,0.0,0.0,0.0,0.0,0.0,0.0,0.0,0.0,0.0,0.0,0.0,0.0,0.0,0.0,0.0,0.0,0.0,0.0,0.0,0.0,0.0,0.0,0.0,0.0,0.0,0.0,0.0,0.0,0.0,0.0,0.0,0.0,0.0,0.0,0.0,0.0,0.0,0.0,0.0,0.0,0.0,0.0,0.0,0.0,0.0,0.0,0.0,0.0,0.0,0.0,0.0,0.0,0.0,0.0,0.0,0.0,0.0,0.0,0.0,0.0,0.0,0.0,0.0,0.0,0.0,0.0,0.0,0.0,0.0,0.0,0.0,0.0,0.0,0.0,0.0,0.0,0.0,0.0,0.0,0.0,0.0,0.0,0.0,0.0,0.0,0.0,0.0,0.0,0.0,0.0,0.0,0.0,0.0,0.0,0.0,0.0,0.0,0.0,0.0,0.0,0.0,0.0,0.0,0.0,0.0,0.0,0.0,0.0,0.0,0.0,0.0,0.0,0.0,0.0,0.0,0.0,0.0,0.0,0.0,0.0,0.0,0.0,0.0,0.0,0.0,0.0,0.0,0.0,0.0,0.0,0.0,0.0,0.0,0.0,0.0,0.0,0.0,0.0,0.0,0.0,0.0,0.0,0.0,0.0,0.0,0.0,0.0,0.0,0.0,0.0,0.0,0.0,0.0,0.0,0.0,0.0,0.0,0.0,0.0,0.0,0.0,0.0,0.0,0.0,0.0,0.0,0.0,0.0,0.0,0.0,0.0,0.0,0.0,0.0,0.0,0.0,0.0,0.0,0.0,0.0,0.0,0.0,0.0,0.0,0.0,0.0,0.0,0.0,0.0,0.0,0.0,0.0,0.0,0.0,0.0,0.0,0.0,0.0,0.0,0.0,0.0,0.0,0.0,0.0,0.0,0.0,0.0,0.0,0.0,0.0,0.0,0.0,0.0,0.0,0.0,0.0,0.0,0.0,0.0,0.0,0.0,0.0,0.0,0.0,0.0,0.0,0.0,0.0,0.0,0.0,0.0,0.0,0.0,0.0,0.0,0.0,0.0,0.0,0.0,0.0,0.0,0.0,0.0,0.0,0.0,0.0,0.0,0.0,0.0,0.0,0.0,0.0,0.0,0.0,0.0,0.0,0.0,0.0,0.0,0.0,0.0,0.0,0.0,0.0,0.0,0.0,0.0,0.0,0.0,0.0,0.0,0.0,0.0,0.0,0.0,0.0,0.0,0.0,0.0,0.0,0.0,0.0,0.0,0.0,0.0,0.0,0.0,0.0,0.0,0.0,0.0,0.0,0.0,0.0,0.0,0.0,0.0,0.0,0.0,0.0,0.0,0.0,0.0,0.0,0.0,0.0,0.0,0.0,0.0,0.0,0.0,0.0,0.0,0.0,0.0,0.0,0.0,0.0,0.0,0.0,0.0,0.0,0.0,0.0,0.0,0.0,0.0,0.0,0.0,0.0,0.0,0.0,0.0,0.0,0.0,0.0,0.0,0.0,0.0,0.0,0.0,0.0,0.0,0.0,0.0,0.0,0.0,0.0,0.0,0.0,0.0,0.0,0.0,0.0,0.0,0.0,0.4039,0.0,0.0,0.0,0.0,0.0,0.0,0.0,0.0,0.0,0.0,0.0,0.0,0.0,0.0,0.0,0.0,0.0,0.0,0.0,0.0,0.0,0.0,0.0,0.0,0.0,0.0,0.0,0.0,0.0,0.0,0.0,0.0,0.0,0.0,0.0,0.0,0.0,0.0,0.0,0.0,0.0,0.0,0.0,0.0,0.0,0.0,0.0,0.0,0.0,0.0,0.0,0.0,0.0,0.0,0.0,0.0,0.0,0.0,0.0,0.0,0.0,0.0,0.0,0.0,0.0,0.0,0.0,0.0,0.0,0.0,0.0,0.0,0.0,0.0,0.0,0.0,0.0,0.0,0.0,0.0,0.0,0.0,0.0,0.0,0.0,0.0,0.0,0.0,0.0,0.0,0.0,0.0,0.0,0.0,0.0,0.0,0.0,0.0,0.0,0.0,0.0,0.0,0.0,0.0,0.0,0.0,0.0,0.0,0.0,0.0,0.305,0.3409,0.3744,0.4024,0.4207,0.0,0.0,0.0,0.0,0.0,0.0,0.0,0.0,0.0,0.0,0.0,0.0,0.0,0.0,0.0,0.0,0.0,0.0,0.0,0.0,0.0,0.0,0.0,0.0,0.0,0.0,0.0,0.0,0.0,0.0,0.0,0.0,0.0,0.0,0.0,0.0,0.0,0.0,0.0,0.0,0.0,0.0,0.0,0.0,0.0,0.0,0.0,0.0,0.0,0.0,0.0,0.0,0.0,0.0,0.0,0.0,0.0,0.0,0.0,0.0,0.0,0.0,0.0,0.0,0.0,0.0,0.0,0.0,0.0,0.0,0.0,0.0,0.0,0.0,0.0,0.0,0.0,0.0,0.0,0.0,0.0,0.0,0.0,0.0,0.0,0.0,0.0,0.0,0.0,0.0,0.0,0.0,0.0,0.0,0.0,0.0,0.0,0.0,0.0,0.0,0.0,0.0,0.0,0.0,0.0,0.0,0.0,0.0,0.0,0.0,0.0,0.0,0.3962,0.4217,0.4358,0.0,0.0,0.0,0.0,0.0,0.0,0.0,0.0,0.0,0.0,0.0,0.0,0.0,0.0,0.0,0.0,0.0,0.0,0.0,0.0,0.0,0.0,0.0,0.0,0.0,0.0,0.0,0.0,0.0,0.0,0.0,0.0,0.0,0.0,0.0,0.0,0.0,0.0,0.0,0.0,0.0,0.0,0.0,0.0,0.0,0.0,0.0,0.0,0.0,0.0,0.0,0.0,0.0,0.0,0.0,0.0,0.0,0.0,0.0,0.0,0.0,0.0,0.0,0.0,0.0,0.0,0.0,0.0,0.0,0.0,0.0,0.0,0.0,0.0,0.0,0.0,0.0,0.0,0.0,0.0,0.0,0.0,0.0,0.0,0.0,0.0,0.0,0.0,0.0,0.0,0.0,0.0,0.0,0.0,0.0,0.0,0.0,0.0,0.0,0.0,0.0,0.0,0.0,0.0,0.0,0.0,0.0,0.0,0.0,0.0,0.3528,0.3855,0.414,0.0,0.4567,0.0,0.0,0.0,0.0,0.0,0.0,0.0,0.0,0.0,0.0,0.0,0.0,0.0,0.0,0.0,0.0,0.0,0.0,0.0,0.0,0.0,0.0,0.0,0.0,0.0,0.0,0.0,0.0,0.0,0.0,0.0,0.0,0.0,0.0,0.0,0.0,0.0,0.0,0.0,0.0,0.0,0.0,0.0,0.0,0.0,0.0,0.0,0.0,0.0,0.0,0.0,0.0,0.0,0.0,0.0,0.0,0.0,0.0,0.0,0.0,0.0,0.0,0.0,0.0,0.0,0.0,0.0,0.0,0.0,0.0,0.0,0.0,0.0,0.0,0.0,0.0,0.0,0.0,0.0,0.0,0.0,0.0,0.0,0.0,0.0,0.0,0.0,0.0,0.0,0.0,0.0,0.0,0.0,0.0,0.0,0.0,0.0,0.0,0.0,0.0,0.0,0.0,0.0,0.0,0.0,0.0,0.0,0.0,0.0,0.0,0.428,0.4594,0.4898,0.4931,0.0,0.0,0.0,0.0,0.0,0.0,0.0,0.0,0.0,0.0,0.0,0.0,0.0,0.0,0.0,0.0,0.0,0.0,0.0,0.0,0.0,0.0,0.0,0.0,0.0,0.0,0.0,0.0,0.0,0.0,0.0,0.0,0.0,0.0,0.0,0.0,0.0,0.0,0.0,0.0,0.0,0.0,0.0,0.0,0.0,0.0,0.0,0.0,0.0,0.0,0.0,0.0,0.0,0.0,0.0,0.0,0.0,0.0,0.0,0.0,0.0,0.0,0.0,0.0,0.0,0.0,0.0,0.0,0.0,0.0,0.0,0.0,0.0,0.0,0.0,0.0,0.0,0.0,0.0,0.0,0.0,0.0,0.0,0.0,0.0,0.0,0.0,0.0,0.0,0.0,0.0,0.0,0.0,0.0,0.0,0.0,0.0,0.0,0.0,0.0,0.0,0.0,0.0,0.0,0.0,0.0,0.0,0.0,0.0,0.0,0.407,0.4805,0.5183,0.546,0.53,0.4668,0.0,0.0,0.0,0.0,0.0,0.0,0.0,0.0,0.0,0.0,0.0,0.0,0.0,0.0,0.0,0.0,0.0,0.0,0.0,0.0,0.0,0.0,0.0,0.0,0.0,0.0,0.0,0.0,0.0,0.0,0.0,0.0,0.0,0.0,0.0,0.0,0.0,0.0,0.0,0.0,0.0,0.0,0.0,0.0,0.0,0.0,0.0,0.0,0.0,0.0,0.0,0.0,0.0,0.0,0.0,0.0,0.0,0.0,0.0,0.0,0.0,0.0,0.0,0.0,0.0,0.0,0.0,0.0,0.0,0.0,0.0,0.0,0.0,0.0,0.0,0.0,0.0,0.0,0.0,0.0,0.0,0.0,0.0,0.0,0.0,0.0,0.0,0.0,0.0,0.0,0.0,0.0,0.0,0.0,0.0,0.0,0.0,0.0,0.0,0.0,0.0,0.0,0.0,0.0,0.0,0.0,0.0,0.0,0.31,0.4157,0.4922,0.5382,0.5527,0.5313,0.0,0.0,0.0,0.0,0.0,0.0,0.0,0.0,0.0,0.0,0.0,0.0,0.0,0.0,0.0,0.0,0.0,0.0,0.0,0.0,0.0,0.0,0.0,0.0,0.0,0.0,0.0,0.0,0.0,0.0,0.0,0.0,0.0,0.0,0.0,0.0,0.0,0.0,0.0,0.0,0.0,0.0,0.0,0.0,0.0,0.0,0.0,0.0,0.0,0.0,0.0,0.0,0.0,0.0,0.0,0.0,0.0,0.0,0.0,0.0,0.0,0.0,0.0,0.0,0.0,0.0,0.0,0.0,0.0,0.0,0.0,0.0,0.0,0.0,0.0,0.0,0.0,0.0,0.0,0.0,0.0,0.0,0.0,0.0,0.0,0.0,0.0,0.0,0.0,0.0,0.0,0.0,0.0,0.0,0.0,0.0,0.0,0.0,0.0,0.0,0.0,0.0,0.0,0.0,0.0,0.0,0.0,0.0,0.0,0.327,0.4814,0.5775,0.605,0.6227,0.5808,0.0,0.0,0.0,0.0,0.0,0.0,0.0,0.0,0.0,0.0,0.0,0.0,0.0,0.0,0.0,0.0,0.0,0.0,0.0,0.0,0.0,0.0,0.0,0.0,0.0,0.0,0.0,0.0,0.0,0.0,0.0,0.0,0.0,0.0,0.0,0.0,0.0,0.0,0.0,0.0,0.0,0.0,0.0,0.0,0.0,0.0,0.0,0.0,0.0,0.0,0.0,0.0,0.0,0.0,0.0,0.0,0.0,0.0,0.0,0.0,0.0,0.0,0.0,0.0,0.0,0.0,0.0,0.0,0.0,0.0,0.0,0.0,0.0,0.0,0.0,0.0,0.0,0.0,0.0,0.0,0.0,0.0,0.0,0.0,0.0,0.0,0.0,0.0,0.0,0.0,0.0,0.0,0.0,0.0,0.0,0.0,0.0,0.0,0.0,0.0,0.0,0.0,0.0,0.0,0.0,0.0,0.0,0.0,0.0,0.4047,0.0,0.638,0.0,0.674,0.6216,0.0,0.0,0.0,0.0,0.0,0.0,0.0,0.0,0.0,0.0,0.0,0.0,0.0,0.0,0.0,0.0,0.0,0.0,0.0,0.0,0.0,0.0,0.0,0.0,0.0,0.0,0.0,0.0,0.0,0.0,0.0,0.0,0.0,0.0,0.0,0.0,0.0,0.0,0.0,0.0,0.0,0.0,0.0,0.0,0.0,0.0,0.0,0.0,0.0,0.0,0.0,0.0,0.0,0.0,0.0,0.0,0.0,0.0,0.0,0.0,0.0,0.0,0.0,0.0,0.0,0.0,0.0,0.0,0.0,0.0,0.0,0.0,0.0,0.0,0.0,0.0,0.0,0.0,0.0,0.0,0.0,0.0,0.0,0.0,0.0,0.0,0.0,0.0,0.0,0.0,0.0,0.0,0.0,0.0,0.0,0.0,0.0,0.0,0.0,0.0,0.0,0.0,0.0,0.0,0.0,0.0,0.0,0.0,0.3507,0.5477,0.6002,0.664,0.7448,0.7071,0.6527,0.0,0.0,0.0,0.0,0.0,0.0,0.0,0.0,0.0,0.0,0.0,0.0,0.0,0.0,0.0,0.0,0.0,0.0,0.0,0.0,0.0,0.0,0.0,0.0,0.0,0.0,0.0,0.0,0.0,0.0,0.0,0.0,0.0,0.0,0.0,0.0,0.0,0.0,0.0,0.0,0.0,0.0,0.0,0.0,0.0,0.0,0.0,0.0,0.0,0.0,0.0,0.0,0.0,0.0,0.0,0.0,0.0,0.0,0.0,0.0,0.0,0.0,0.0,0.0,0.0,0.0,0.0,0.0,0.0,0.0,0.0,0.0,0.0,0.0,0.0,0.0,0.0,0.0,0.0,0.0,0.0,0.0,0.0,0.0,0.0,0.0,0.0,0.0,0.0,0.0,0.0,0.0,0.0,0.0,0.0,0.0,0.0,0.0,0.0,0.0,0.0,0.0,0.0,0.0,0.0,0.0,0.0,0.0,0.0,0.5568,0.6397,0.7055,0.7532,0.7665,0.7141,0.0,0.0,0.0,0.0,0.0,0.0,0.0,0.0,0.0,0.0,0.0,0.0,0.0,0.0,0.0,0.0,0.0,0.0,0.0,0.0,0.0,0.0,0.0,0.0,0.0,0.0,0.0,0.0,0.0,0.0,0.0,0.0,0.0,0.0,0.0,0.0,0.0,0.0,0.0,0.0,0.0,0.0,0.0,0.0,0.0,0.0,0.0,0.0,0.0,0.0,0.0,0.0,0.0,0.0,0.0,0.0,0.0,0.0,0.0,0.0,0.0,0.0,0.0,0.0,0.0,0.0,0.0,0.0,0.0,0.0,0.0,0.0,0.0,0.0,0.0,0.0,0.0,0.0,0.0,0.0,0.0,0.0,0.0,0.0,0.0,0.0,0.0,0.0,0.0,0.0,0.0,0.0,0.0,0.0,0.0,0.0,0.0,0.0,0.0,0.0,0.0,0.0,0.0,0.0,0.0,0.0,0.0,0.0,0.0,0.6291,0.7153,0.7722,0.8042,0.8389,0.8075,0.6976,0.0,0.0,0.0,0.0,0.0,0.0,0.0,0.0,0.0,0.0,0.0,0.0,0.0,0.0,0.0,0.0,0.0,0.0,0.0,0.0,0.0,0.0,0.0,0.0,0.0,0.0,0.0,0.0,0.0,0.0,0.0,0.0,0.0,0.0,0.0,0.0,0.0,0.0,0.0,0.0,0.0,0.0,0.0,0.0,0.0,0.0,0.0,0.0,0.0,0.0,0.0,0.0,0.0,0.0,0.0,0.0,0.0,0.0,0.0,0.0,0.0,0.0,0.0,0.0,0.0,0.0,0.0,0.0,0.0,0.0,0.0,0.0,0.0,0.0,0.0,0.0,0.0,0.0,0.0,0.0,0.0,0.0,0.0,0.0,0.0,0.0,0.0,0.0,0.0,0.0,0.0,0.0,0.0,0.0,0.0,0.0,0.0,0.0,0.0,0.0,0.0,0.0,0.0,0.0,0.0,0.0,0.0,0.0,0.7636,0.8282,0.8738,0.897,0.931,0.9189,0.0,0.0,0.0,0.0,0.0,0.0,0.0,0.0,0.0,0.0,0.0,0.0,0.0,0.0,0.0,0.0,0.0,0.0,0.0,0.0,0.0,0.0,0.0,0.0,0.0,0.0,0.0,0.0,0.0,0.0,0.0,0.0,0.0,0.0,0.0,0.0,0.0,0.0,0.0,0.0,0.0,0.0,0.0,0.0,0.0,0.0,0.0,0.0,0.0,0.0,0.0,0.0,0.0,0.0,0.0,0.0,0.0,0.0,0.0,0.0,0.0,0.0,0.0,0.0,0.0,0.0,0.0,0.0,0.0,0.0,0.0,0.0,0.0,0.0,0.0,0.0,0.0,0.0,0.0,0.0,0.0,0.0,0.0,0.0,0.0,0.0,0.0,0.0,0.0,0.0,0.0,0.0,0.0,0.0,0.0,0.0,0.0,0.0,0.0,0.0,0.0,0.0,0.0,0.0,0.0,0.0,0.0,0.0,0.0,0.8394,1.0196,1.1043,1.0808,1.0563,1.0129,0.0,0.0,0.0,0.0,0.0,0.0,0.0,0.0,0.0,0.0,0.0,0.0,0.0,0.0,0.0,0.0,0.0,0.0,0.0,0.0,0.0,0.0,0.0,0.0,0.0,0.0,0.0,0.0,0.0,0.0,0.0,0.0,0.0,0.0,0.0,0.0,0.0,0.0,0.0,0.0,0.0,0.0,0.0,0.0,0.0,0.0,0.0,0.0,0.0,0.0,0.0,0.0,0.0,0.0,0.0,0.0,0.0,0.0,0.0,0.0,0.0,0.0,0.0,0.0,0.0,0.0,0.0,0.0,0.0,0.0,0.0,0.0,0.0,0.0,0.0,0.0,0.0,0.0,0.0,0.0,0.0,0.0,0.0,0.0,0.0,0.0,0.0,0.0,0.0,0.0,0.0,0.0,0.0,0.0,0.0,0.0,0.0,0.0,0.0,0.0,0.0,0.0,0.0,0.0,0.0,0.0,0.0,0.0,0.7806,0.9827,1.1795,1.2969,1.3257,1.2405,1.1434,0.0,0.0,0.0,0.0,0.0,0.0,0.0,0.0,0.0,0.0,0.0,0.0,0.0,0.0,0.0,0.0,0.0,0.0,0.0,0.0,0.0,0.0,0.0,0.0,0.0,0.0,0.0,0.0,0.0,0.0,0.0,0.0,0.0,0.0,0.0,0.0,0.0,0.0,0.0,0.0,0.0,0.0,0.0,0.0,0.0,0.0,0.0,0.0,0.0,0.0,0.0,0.0,0.0,0.0,0.0,0.0,0.0,0.0,0.0,0.0,0.0,0.0,0.0,0.0,0.0,0.0,0.0,0.0,0.0,0.0,0.0,0.0,0.0,0.0,0.0,0.0,0.0,0.0,0.0,0.0,0.0,0.0,0.0,0.0,0.0,0.0,0.0,0.0,0.0,0.0,0.0,0.0,0.0,0.0,0.0,0.0,0.0,0.0,0.0,0.0,0.0,0.0,0.0,0.0,0.0,0.0,0.0,0.0,0.8753,1.1613,1.3174,1.4544,1.5643,1.4367,1.2896,0.0,0.0,0.0,0.0,0.0,0.0,0.0,0.0,0.0,0.0,0.0,0.0,0.0,0.0,0.0,0.0,0.0,0.0,0.0,0.0,0.0,0.0,0.0,0.0,0.0,0.0,0.0,0.0,0.0,0.0,0.0,0.0,0.0,0.0,0.0,0.0,0.0,0.0,0.0,0.0,0.0,0.0,0.0,0.0,0.0,0.0,0.0,0.0,0.0,0.0,0.0,0.0,0.0,0.0,0.0,0.0,0.0,0.0,0.0,0.0,0.0,0.0,0.0,0.0,0.0,0.0,0.0,0.0,0.0,0.0,0.0,0.0,0.0,0.0,0.0,0.0,0.0,0.0,0.0,0.0,0.0,0.0,0.0,0.0,0.0,0.0,0.0,0.0,0.0,0.0,0.0,0.0,0.0,0.0,0.0,0.0,0.0,0.0,0.0,0.0,0.0,0.0,0.0,0.0,0.0,0.0,0.0,0.0,1.0129,1.277,1.4239,1.5288,1.5903,1.5057,1.3816,0.0,0.0,0.0,0.0,0.0,0.0,0.0,0.0,0.0,0.0,0.0,0.0,0.0,0.0,0.0,0.0,0.0,0.0,0.0,0.0,0.0,0.0,0.0,0.0,0.0,0.0,0.0,0.0,0.0,0.0,0.0,0.0,0.0,0.0,0.0,0.0,0.0,0.0,0.0,0.0,0.0,0.0,0.0,0.0,0.0,0.0,0.0,0.0,0.0363,0.0,0.0,0.0,0.0,0.0,0.0,0.0,0.0,0.0,0.0,0.0,0.0,0.0,0.0,0.0,0.0,0.0,0.0,0.0,0.0,0.0,0.0,0.0,0.0,0.0,0.0,0.0,0.0,0.0,0.0,0.0,0.0,0.0,0.0,0.0,0.0,0.0,0.0,0.0,0.0,0.0,0.0,0.0,0.0,0.0,0.0,0.0,0.0,0.0,0.0,0.0,0.0,0.0,0.0,0.0,0.0,0.0,0.0,0.0,1.1058,1.3918,1.5383,1.6279,1.661,1.6319,1.4947,0.0,0.0,0.0,0.0,0.0,0.0,0.0,0.0,0.0,0.0,0.0,0.0,0.0,0.0,0.0,0.0,0.0,0.0,0.0,0.0,0.0,0.0,0.0,0.0,0.0,0.0,0.0,0.0,0.0,0.0,0.0,0.0,0.0,0.0,0.0,0.0,0.0,0.0,0.0,0.0,0.0,0.0,0.0,0.0,0.0,0.0,0.0,0.0,0.0,0.0,0.0,0.0,0.0,0.0,0.0,0.0,0.0,0.0,0.0,0.0,0.0,0.0,0.0,0.0,0.0,0.0,0.0,0.0,0.0,0.0,0.0,0.0,0.0,0.0,0.0,0.0,0.0,0.0,0.0,0.0,0.0,0.0,0.0,0.0,0.0,0.0,0.0,0.0,0.0,0.0,0.0,0.0,0.0,0.0,0.0,0.0,0.0,0.0,0.0,0.0,0.0,0.0,0.0,0.0,0.0,0.0,0.0,0.9109,1.1753,1.502,1.6263,1.7029,1.7416,1.7347,1.5752,1.2534,0.0,0.0,0.0,0.0,0.0,0.0,0.0,0.0,0.0,0.0,0.0,0.0,0.0,0.0,0.0,0.0,0.0,0.0,0.0,0.0,0.0,0.0,0.0,0.0,0.0,0.0,0.0,0.0,0.0,0.0,0.0,0.0,0.0,0.0,0.0,0.0,0.0,0.0,0.0056,0.0335,0.0,0.0,0.0,0.0,0.0,0.0,0.0,0.0,0.1719,0.0,0.0,0.0,0.0,0.0,0.0,0.0,0.0,0.0,0.0,0.0,0.0,0.0,0.0,0.0,0.0,0.0,0.0,0.0,0.0,0.0,0.0,0.0,0.0,0.0,0.0,0.0,0.0,0.0,0.0,0.0,0.0,0.0,0.0,0.0,0.0,0.0,0.0,0.0,0.0,0.0,0.0,0.0,0.0,0.0,0.0,0.0,0.0,0.0,0.0,0.0,0.0,0.0,0.0,0.0,0.0,0.8297,0.9821,1.2428,1.6117,1.6243,1.6668,1.7498,1.6872,1.5194,1.2595,0.0,0.0,0.0,0.0,0.0,0.0,0.0,0.0,0.0,0.0,0.0,0.0,0.0,0.0,0.0,0.0,0.0,0.0,0.0,0.0,0.0,0.0,0.0,0.0,0.0,0.0,0.0,0.0,0.0,0.0,0.0,0.0,0.0,0.0,0.0,0.0,0.0,0.0,0.0,0.0581,0.077,0.0,0.0,0.0,0.0,0.0,0.0,0.0,0.0,0.2404,0.0,0.0,0.0,0.0,0.0,0.0,0.0,0.0,0.0,0.0,0.0,0.0,0.0,0.0,0.0,0.0,0.0,0.0,0.0,0.0,0.0,0.0,0.0,0.0,0.0,0.0,0.0,0.0,0.0,0.0,0.0,0.0,0.0,0.0,0.0,0.0,0.0,0.0,0.0,0.0,0.0,0.0,0.0,0.0,0.0,0.0,0.0,0.0,0.0,0.0,0.0,0.0,0.0,0.0,0.0,0.9168,1.0373,1.2631,1.5949,1.6157,1.6451,1.6942,1.6127,1.4618,0.0,0.0,0.0,0.0,0.0,0.0,0.0,0.0,0.0,0.0,0.0,0.0,0.0,0.0,0.0,0.0,0.0,0.0,0.0,0.0,0.0,0.0,0.0,0.0,0.0,0.0,0.0,0.0,0.0,0.0,0.0,0.0,0.0,0.0,0.0,0.0,0.0,0.0,0.0,0.0,0.0815,0.1002,0.1132,0.0,0.0,0.0,0.0,0.0,0.0,0.332,0.3319,0.0,0.0,0.0,0.0,0.0,0.0,0.0,0.0,0.0,0.0,0.0,0.0,0.0,0.0,0.0,0.0,0.0,0.0,0.0,0.0,0.0,0.0,0.0,0.0,0.0,0.0,0.0,0.0,0.0,0.0,0.0,0.0,0.0,0.0,0.0,0.0,0.0,0.0,0.0,0.0,0.0,0.0,0.0,0.0,0.0,0.0,0.0,0.0,0.0,0.0,0.0,0.0,0.0,0.0,0.0,0.992,1.0856,1.2729,1.5585,1.5957,1.6089,1.6143,1.5312,1.3958,0.0,0.0,0.0,0.0,0.0,0.0,0.0,0.0,0.0,0.0,0.0,0.0,0.0,0.0,0.0,0.0,0.0,0.0,0.0,0.0,0.0,0.0,0.0,0.0,0.0,0.0,0.0,0.0,0.0,0.0,0.0,0.0,0.0,0.0,0.0,0.0,0.0,0.0,0.0,0.0,0.0,0.1244,0.1437,0.1751,0.0,0.0,0.0,0.0,0.4621,0.4536,0.0,0.0,0.0,0.0,0.0,0.0,0.0,0.0,0.0,0.0,0.0,0.0,0.0,0.0,0.0,0.0,0.0,0.0,0.0,0.0,0.0,0.0,0.0,0.0,0.0,0.0,0.0,0.0,0.0,0.0,0.0,0.0,0.0,0.0,0.0,0.0,0.0,0.0,0.0,0.0,0.0,0.0,0.0,0.0,0.0,0.0,0.0,0.0,0.0,0.0,0.0,0.0,0.0,0.0,0.0,0.0,1.0238,1.1152,1.2964,1.5691,1.5453,1.5268,1.5325,1.4456,1.3113,0.0,0.0,0.0,0.0,0.0,0.0,0.0,0.0,0.0,0.0,0.0,0.0,0.0,0.0,0.0,0.0,0.0,0.0,0.0,0.0,0.0,0.0,0.0,0.0,0.0,0.0,0.0,0.0,0.0,0.0,0.0,0.0,0.0,0.0,0.0,0.0,0.0,0.0,0.0,0.0,0.0,0.1507,0.1649,0.2399,0.3096,0.0,0.0,0.0,0.5423,0.5652,0.0,0.0,0.0,0.0,0.0,0.0,0.0,0.0,0.0,0.0,0.0,0.0,0.0,0.0,0.0,0.0,0.0,0.0,0.0,0.0,0.0,0.0,0.0,0.0,0.0,0.0,0.0,0.0,0.0,0.0,0.0,0.0,0.0,0.0,0.0,0.0,0.0,0.0,0.0,0.0,0.0,0.0,0.0,0.0,0.0,0.0,0.0,0.0,0.0,0.0,0.0,0.0,0.0,0.0,0.0,0.8137,1.0542,1.1329,1.2886,1.517,1.5152,1.489,1.4453,1.3562,1.2433,0.0,0.0,0.0,0.0,0.0,0.0,0.0,0.0,0.0,0.0,0.0,0.0,0.0,0.0,0.0,0.0,0.0,0.0,0.0,0.0,0.0,0.0,0.0,0.0,0.0,0.0,0.0,0.0,0.0,0.0,0.0,0.0,0.0,0.0,0.0,0.0,0.0,0.0,0.0,0.0,0.0,0.0,0.2248,0.2958,0.0,0.0,0.0,0.6348,0.6982,0.0,0.0,0.0,0.0,0.0,0.0,0.0,0.0,0.0,0.0,0.0,0.0,0.0,0.0,0.0,0.0,0.0,0.0,0.0,0.0,0.0,0.0,0.0,0.0,0.0,0.0,0.0,0.0,0.0,0.0,0.0,0.0,0.0,0.0,0.0,0.0,0.0,0.0,0.0,0.0,0.0,0.0,0.0,0.0,0.0,0.0,0.0,0.0,0.0,0.0,0.0,0.0,0.0,0.0,0.0,0.0,0.0,1.0849,1.152,1.2817,1.4743,1.5028,1.4628,1.3607,1.2875,0.0,0.0,0.0,0.0,0.0,0.0,0.0,0.0,0.0,0.0,0.0,0.0,0.0,0.0,0.0,0.0,0.0,0.0,0.0,0.0,0.0,0.0,0.0,0.0,0.0,0.0,0.0,0.2713,0.0,0.0,0.0,0.0,0.0,0.0,0.0,0.0,0.0,0.0,0.0,0.0,0.0,0.0,0.207,0.2808,0.3545,0.4535,0.0,0.0,0.7569,0.8311,0.8326,0.8144,0.0,0.0,0.0,0.0,0.0,0.0,0.0,0.0,0.0,0.0,0.0,0.0,0.0,0.0,0.0,0.0,0.0,0.0,0.0,0.0,0.0,0.0,0.0,0.0,0.0,0.0,0.0,0.0,0.0,0.0,0.0,0.0,0.0,0.0,0.0,0.0,0.0,0.0,0.0,0.0,0.0,0.0,0.0,0.0,0.0,0.0,0.0,0.0,0.0,0.0,0.0,0.0,0.0,0.0,0.0,1.1106,1.1719,1.2934,1.482,1.5094,1.4384,1.2737,1.2571,1.1648,0.0,0.0,0.0,0.0,0.0,0.0,0.0,0.0,0.0,0.0,0.0,0.0,0.0,0.0,0.0,0.0,0.0,0.0,0.0,0.0,0.0,0.0,0.0,0.0,0.0,0.0,0.0,0.0,0.0,0.0,0.0,0.0,0.0,0.0,0.0,0.0,0.0,0.0,0.0,0.0,0.0,0.2348,0.3063,0.4161,0.5352,0.0,0.0,0.8544,0.8974,0.9225,0.9096,0.829,0.0,0.0,0.0,0.0,0.0,0.0,0.0,0.0,0.0,0.0,0.0,0.0,0.0,0.0,0.0,0.0,0.0,0.0,0.0,0.0,0.0,0.0,0.0,0.0,0.0,0.0,0.0,0.0,0.0,0.0,0.0,0.0,0.0,0.0,0.0,0.0,0.0,0.0,0.0,0.0,0.0,0.0,0.0,0.0,0.0,0.0,0.0,0.0,0.0,0.0,0.0,0.0,0.0,0.9284,1.1394,1.1883,1.3062,1.4851,1.4597,1.381,1.2631,1.1971,1.0993,0.0,0.0,0.0,0.0,0.0,0.0,0.0,0.0,0.0,0.0,0.0,0.0,0.0,0.0,0.0,0.0,0.0,0.0,0.0,0.0,0.0,0.0,0.0,0.0,0.0,0.0,0.0,0.0,0.2969,0.3136,0.3452,0.0,0.0,0.0,0.0,0.0,0.0,0.0,0.0,0.0,0.0,0.2634,0.3294,0.4504,0.0,0.0,0.808,0.8997,0.9344,0.9601,0.9632,0.9239,0.8773,0.0,0.0,0.0,0.0,0.0,0.0,0.0,0.0,0.0,0.0,0.0,0.0,0.0,0.0,0.0,0.0,0.0,0.0,0.0,0.0,0.0,0.0,0.0,0.0,0.0,0.0,0.0,0.0,0.0,0.0,0.0,0.0,0.0,0.0,0.0,0.0,0.0,0.0,0.0,0.0,0.0,0.0,0.0,0.0,0.0,0.0,0.0,0.0,0.0,0.0,0.0,0.0,0.9876,1.1715,1.2333,1.3425,1.4979,1.4514,1.3696,1.258,1.1772,1.0745,0.0,0.0,0.0,0.0,0.0,0.0,0.0,0.0,0.0,0.0,0.0,0.0,0.0,0.0,0.0,0.0,0.0,0.0,0.0,0.0,0.0,0.0,0.0,0.0,0.0,0.0,0.0,0.0,0.3259,0.3477,0.3721,0.0,0.0,0.0,0.0,0.0,0.0,0.0,0.0,0.0,0.0,0.3188,0.3596,0.4611,0.572,0.6772,0.8004,0.8954,0.9282,0.9703,0.9953,0.991,0.0,0.0,0.0,0.0,0.0,0.0,0.0,0.0,0.0,0.0,0.0,0.0,0.0,0.0,0.0,0.0,0.0,0.0,0.0,0.0,0.0,0.0,0.0,0.0,0.0,0.0,0.0,0.0,0.0,0.0,1.1028,0.0,0.0,0.0,0.0,0.0,0.0,0.0,0.0,0.0,0.0,0.0,0.0,0.0,0.0,0.0,0.0,0.0,0.0,0.0,0.0,0.0,0.0,0.0,1.1985,1.3093,1.4118,1.505,1.5082,1.4169,1.2477,1.2103,1.1059,0.9171,0.0,0.0,0.0,0.0,0.0,0.0,0.0,0.0,0.0,0.0,0.0,0.0,0.0,0.0,0.0,0.0,0.0,0.0,0.0,0.0,0.0,0.0,0.0,0.0,0.0,0.0,0.3467,0.3795,0.4028,0.0,0.0,0.0,0.0,0.0,0.0,0.0,0.0,0.0,0.0,0.3563,0.3968,0.3979,0.4419,0.5087,0.6183,0.7398,0.8359,0.8684,0.956,1.0161,0.0,0.0,0.0,0.0,0.0,0.0,0.0,0.0,0.0,0.0,0.0,0.0,0.0,0.0,0.0,0.0,0.0,0.0,0.0,0.0,0.0,0.0,0.0,0.0,0.0,0.0,0.0,1.3308,1.3242,0.0,0.0,0.0,0.0,0.0,0.0,0.0,0.0,0.0,0.0,0.0,1.7272,1.7397,0.0,0.0,0.0,0.0,0.0,0.0,0.0,0.0,0.0,0.0,0.0,0.0,1.1438,1.3005,1.357,1.4274,1.5183,1.458,1.3615,1.2312,1.1387,1.0182,0.8627,0.0,0.0,0.0,0.0,0.0,0.0,0.0,0.0,0.0,0.0,0.0,0.0,0.0,0.0,0.0,0.0,0.0,0.0,0.0,0.0,0.0,0.0,0.0,0.0,0.0,0.3565,0.0,0.0,0.0,0.0,0.0,0.0,0.0,0.0,0.0,0.0,0.0,0.5611,0.505,0.4838,0.4519,0.3948,0.404,0.4601,0.0,0.0,0.0,0.0,0.0,0.0,0.0,0.0,0.0,0.0,0.0,0.0,0.0,0.0,0.9517,0.8676,0.8307,0.7886,0.7011,0.0,0.0,0.0,0.0,0.0,0.0,0.0,0.0,0.0,0.0,0.0,0.0,0.0,0.0,0.0,0.0,1.5044,0.0,0.0,0.0,0.0,0.0,0.0,0.0,0.0,1.8241,1.8644,1.9287,1.9396,1.909,0.0,1.847,1.688,0.0,0.0,0.0,0.0,0.0,0.0,0.0,0.0,1.2464,1.3665,1.4154,1.4675,1.523,1.4617,1.3704,1.255,1.089,0.9518,0.8477,0.8326,0.8113,0.0,0.0,0.0,0.0,0.0,0.0,0.0,0.0,0.0,0.0,0.0,0.0,0.0,0.0,0.0,0.0,0.0,0.0,0.0,0.0,0.0,0.0,0.0,0.4105,0.0,0.0,0.0,0.0,0.0,0.0,0.0,0.0,0.0,0.7625,0.7336,0.7196,0.7272,0.6412,0.5471,0.4564,0.0,0.0,0.0,0.0,0.0,0.0,0.0,1.0293,1.0565,1.1053,1.1504,1.1738,1.2385,1.2856,1.2795,0.0,0.0,1.1066,1.0391,0.9863,0.9342,0.8584,0.7797,0.705,0.6177,0.5315,0.0,0.0,0.0,0.0,0.0,0.0,0.0,0.0,1.9701,1.9295,0.0,1.841,0.0,0.0,0.0,0.0,0.0,1.7385,0.0,0.0,2.0229,2.1191,2.2681,2.279,2.1992,2.0429,2.0404,1.9477,1.7736,1.66,0.0,0.0,0.0,0.0,0.0,0.0,1.3846,1.3989,1.4834,1.5299,1.5315,1.5153,1.4482,1.315,1.0685,0.9142,0.8682,0.8244,0.8055,0.8185,0.7816,0.0,0.0,0.0,0.0,0.0,0.0,0.0,0.0,0.0,0.0,0.0,0.0,0.0,0.0,0.0,0.0,0.0,0.0,0.0,0.0,0.47,0.0,0.0,0.0,0.0,0.0,0.0,0.0,0.0,0.0,0.0,0.7011,0.8065,0.9185,0.9608,0.0,0.0,0.0,0.0,0.459,0.4827,0.6324,0.7517,0.7652,0.9081,1.0473,1.1248,0.0,0.0,1.2625,1.3427,1.3945,1.3939,1.4525,1.4411,1.2234,1.1198,1.0718,1.1118,1.012,0.9121,0.9007,0.8188,0.7143,2.5031,0.0,0.0,0.0,0.0,2.1914,2.2324,2.2595,2.2597,2.2467,2.2182,2.0963,0.0,0.0,0.0,0.0,0.0,0.0,2.0945,2.2056,2.2158,2.2449,2.2941,2.3017,2.2795,2.2296,2.231,2.1391,1.9736,1.9351,1.7932,1.5517,0.0,0.0,0.0,0.0,1.4248,1.4888,1.5223,1.5364,1.5376,1.5193,1.4301,1.2651,1.0758,0.9344,0.851,0.8256,0.8054,0.7854,0.7991,0.0,0.0,0.0,0.0,0.0,0.0,0.0,0.0,0.0,0.0,0.0,0.0,0.0,0.0,0.0,0.0,0.0,0.0,0.0,0.6442,0.7325,0.718,0.0,0.0,0.0,0.0,0.0,0.0,0.0,0.0,0.0,0.9236,0.9353,0.9691,0.0,0.0,0.8451,0.7092,0.6817,0.6756,0.6689,0.0,0.0,0.0,0.947,1.0465,1.12,1.2309,1.3407,1.427,1.4652,1.4837,1.4875,1.5075,1.4997,1.437,1.3802,1.3319,1.303,1.2971,1.261,1.141,1.0626,0.9957,2.8975,2.6765,2.4884,2.4102,2.417,2.4673,2.5097,2.5433,2.5457,2.5283,2.4898,2.3884,2.3075,2.2392,2.1533,0.0,0.0,0.0,2.26,2.3494,2.3539,2.3732,2.4054,2.4116,2.3943,2.3613,2.3612,2.291,2.1523,2.1191,1.9996,1.7957,0.0,0.0,1.5721,1.4969,1.4803,1.5312,1.5389,1.5408,1.541,1.5089,1.427,1.3025,1.1477,1.0132,0.9068,0.8663,0.8259,0.7855,0.8156,0.808,0.0,0.0,0.0,0.0,0.0,0.0,0.0,0.0,0.0,0.0,0.0,0.7037,0.0,0.0,0.0,0.0,0.738,0.7364,0.7531,0.8196,0.0,0.0,0.0,0.0,0.0,0.0,0.0,1.1072,1.1553,1.1689,1.1191,1.1033,1.0779,1.0273,1.0025,0.9437,0.8161,0.0,0.8464,0.7702,0.8348,0.8925,0.8924,0.9934,1.1066,1.2118,1.3417,1.4444,1.4986,1.5151,1.5177,1.5245,1.5278,1.528,1.5243,1.5074,1.4814,1.4347,1.4612,1.442,1.2961,1.2204,1.1539,3.2059,3.1715,2.8504,2.7025,2.6843,2.6964,2.7379,2.8017,2.8082,2.7666,2.6942,2.6844,2.5957,2.4469,2.3689,0.0,2.3413,2.3403,2.3909,2.4685,2.4629,2.5019,2.5778,2.5698,2.5267,2.4503,2.4481,2.4046,2.3183,2.2396,2.1528,2.0545,1.8139,1.6816,1.6562,1.5853,1.5493,1.5545,1.5453,1.5379,1.5383,1.4899,1.4405,1.3937,1.2589,1.1287,1.0107,0.9323,0.8636,0.8054,0.8264,0.8177,0.7709,0.0,0.0,0.0,0.0,0.0,0.0,0.0,0.0,0.0,0.0,0.0,0.0,0.0,0.0,0.0,0.8655,0.0,0.8507,0.8034,0.0,0.0,0.0,1.0956,1.2709,1.2812,1.2766,1.2783,0.0,0.0,1.2875,0.0,1.2222,1.0671,1.0311,0.9896,0.9115,0.9704,0.9704,0.819,0.8587,0.908,0.914,1.0477,1.1976,1.3237,1.4482,1.5049,1.5099,1.5113,1.5127,1.5197,1.5234,1.5278,1.5292,1.5253,1.5242,1.5136,1.5143,1.4895,1.3962,1.3101,1.2363,3.3574,3.2915,3.2053,3.055,2.8813,2.9473,2.9466,2.906,2.9104,2.9043,2.8801,2.8129,2.761,2.7247,2.7036,2.6967,2.6973,2.6972,2.7085,2.7259,2.6618,2.6412,2.6584,2.5944,2.5531,2.5329,2.5325,2.4864,2.4025,2.3806,2.2916,2.1415,2.0119,1.8528,1.6659,1.6411,1.6415,1.6611,1.5769,1.5315,1.5324,1.5,1.4651,1.4278,1.292,1.1644,1.0582,0.9582,0.8791,0.8188,0.8307,0.8391,0.837,0.8555,0.0,0.0,0.0,0.0,0.0,0.0,0.0,0.0,0.0,0.8925,0.9101,0.0,0.9275,0.0,0.9409,0.9453,0.9526,1.0082,0.0,0.0,1.0717,1.2321,1.4294,1.3778,1.3329,1.3581,1.3566,1.3805,1.4453,1.3992,1.3427,1.2842,1.1285,1.0145,0.9978,1.0136,1.0137,0.97,0.9719,0.9896,0.9909,1.1191,1.2331,1.2753,1.4097,1.5143,1.5108,1.5126,1.5201,1.5191,1.521,1.5201,1.5168,1.5107,1.5059,1.5012,1.5061,1.505,1.4738,1.4309,1.3848,3.4901,3.4453,3.4414,3.3359,3.1694,3.1441,3.1028,3.055,3.0226,3.0093,3.0018,2.916,2.8789,2.8768,2.8375,2.8192,2.8198,2.8168,2.8143,2.8126,2.7634,2.721,2.6856,2.637,2.5924,2.5568,2.5543,2.5292,2.4794,2.4393,2.3714,2.275,2.1512,1.9986,1.8252,1.75,1.7205,1.73,1.6706,1.6381,1.6397,1.5859,1.5465,1.5187,1.3944,1.2808,1.181,1.1092,1.0394,0.9754,0.9776,0.9684,0.9394,0.9481,0.9394,0.0,0.0,0.0,0.0,0.0,0.0,0.0,0.0,0.0,0.0,0.0,0.9311,0.9421,0.9557,0.9876,1.0344,1.0586,1.0856,1.1218,1.1917,1.3352,1.5852,1.5386,1.503,1.5434,1.5445,1.5304,1.509,1.5011,1.4589,1.3704,1.2512,1.1499,1.091,1.0527,1.02,1.0045,0.9984,1.0016,1.0148,1.0925,1.1689,1.2239,1.312,1.3836,1.3945,1.4299,1.4589,1.4615,1.4916,1.5107,1.4989,1.4917,1.485,1.4699,1.4691,1.4753,1.4803,1.4829,1.4719,3.5882,3.5896,3.5806,3.5396,3.4623,3.3053,3.2223,3.193,3.1242,3.0884,3.074,2.9971,2.9653,2.9585,2.8864,2.8515,2.849,2.8443,2.8411,2.8388,2.8218,2.7768,2.7094,2.6958,2.6463,2.5638,2.5635,2.5542,2.5363,2.4615,2.4176,2.4005,2.2553,2.1318,2.0316,1.8943,1.808,1.7701,1.7805,1.7844,1.7776,1.6976,1.646,1.62,1.5166,1.4144,1.3233,1.2854,1.2369,1.1741,1.1709,1.1326,1.061,1.0596,1.027,0.0,0.9512,0.0,0.0,0.0,0.0,0.0,0.0,0.0,0.0,0.9112,0.9132,0.9181,0.943,0.9939,1.0856,1.0691,1.1115,1.2528,1.2948,1.4335,1.7272,1.7331,1.7188,1.7482,1.7416,1.6829,1.5614,1.5914,1.5612,1.4275,1.371,1.3003,1.1833,1.0744,1.0006,0.9739,0.948,0.9347,0.9721,0.9991,1.0489,1.1428,1.1932,1.2085,1.2502,1.325,1.3822,1.3978,1.4577,1.499,1.4813,1.4748,1.4624,1.4349,1.4387,1.4472,1.4537,1.4816,1.4933,3.582,3.5795,3.5745,3.5635,3.5405,3.4348,3.3133,3.1924,3.1763,3.1304,3.0639,3.0458,3.0406,3.0367,3.0229,3.0122,3.0062,3.0046,3.0018,2.9946,2.9222,2.8767,2.8568,2.7865,2.7108,2.6351,2.6332,2.5946,2.5234,2.507,2.4636,2.3932,2.3607,2.2658,2.1155,0.0,0.0,0.0,1.8324,1.8356,1.767,1.7526,1.7132,1.6454,1.5544,0.0,1.3688,1.2938,1.2444,1.2265,1.2186,0.0,0.0,0.0,0.0,0.0,0.0,0.0,0.0,0.0,0.0,0.0,0.9209,0.8979,0.8875,0.8672,0.8553,0.8593,0.9378,1.0125,1.0656,1.2642,1.3577,1.2912,1.4017,1.6048,1.8979,1.9223,1.8718,1.7545,1.7382,1.724,1.6961,1.659,1.6212,1.5754,1.4742,1.3574,1.2539,1.0903,0.9629,0.9126,0.8487,0.8022,0.81,0.8682,0.9286,1.0045,1.0876,1.1509,1.2131,1.3044,1.3719,1.3872,1.4508,1.492,1.4681,1.4511,1.4348,1.4152,1.451,1.4734,1.4314,1.457,1.4759,3.566,0.0,3.5588,3.5543,0.0,3.5007,3.4094,3.2907,3.2599,3.1949,3.1157,3.1148,3.0916,3.05,3.0492,3.0481,3.0449,3.0375,3.0316,3.0235,2.9787,2.9346,2.8891,2.8452,2.7803,2.6975,2.6586,2.6154,2.5678,2.529,2.4865,2.4397,2.3985,2.3334,2.2462,2.2002,2.0804,1.8812,1.9221,1.9229,1.8854,1.8478,1.8088,1.7664,0.0,0.0,0.0,0.0,0.0,0.0,0.0,0.0,0.0,0.0,0.0,1.2729,1.217,1.1758,1.1565,1.1225,1.0665,0.9935,0.8582,0.7847,0.8024,0.7882,0.7865,0.8183,0.8952,0.9946,1.1228,1.3497,1.5043,1.5334,1.6742,1.8317,1.9549,1.9751,1.9388,1.8737,1.8488,1.8364,1.7937,1.7637,1.7065,1.6372,1.5303,1.4222,1.3242,1.146,0.975,0.8353,0.7377,0.681,0.6839,0.7127,0.7674,0.825,0.8998,0.9969,1.1123,1.2187,1.3085,1.3673,1.4403,1.4791,1.4481,1.4253,1.41,1.3934,1.4055,1.4169,1.3894,1.4846,1.574,3.5444,3.5432,3.5378,3.5355,3.5321,3.5247,3.4802,3.4114,0.0,0.0,0.0,3.1715,3.1234,3.0579,3.0405,3.0343,3.033,3.0234,3.0128,3.0071,3.006,2.9673,2.8981,2.8981,2.8525,2.7675,2.7039,2.6607,2.6375,2.5725,2.5313,2.5059,2.4444,2.3952,2.3566,2.2733,2.1683,2.0467,2.0283,2.0152,2.0039,1.9421,1.9009,1.8858,1.8241,1.7835,1.7689,1.7709,1.7665,1.7606,1.7616,1.7264,1.649,1.5788,1.5074,1.4274,1.3354,1.2751,1.2512,1.2112,1.146,1.0562,0.8264,0.7002,0.7244,0.7012,0.7119,0.7744,0.8325,0.9608,1.1926,1.4052,1.6099,1.8054,1.9386,2.0079,2.0076,1.9819,1.9662,1.9688,1.9606,1.9412,1.8721,1.8478,1.8016,1.6772,1.5838,1.483,1.3727,1.1695,0.9511,0.7594,0.6507,0.5872,0.5794,0.5765,0.5977,0.6695,0.7417,0.8407,0.9985,1.1398,1.2591,1.3759,1.448,1.478,1.4621,1.4545,1.4252,1.4003,1.4024,1.4024,1.4142,1.5571,1.672,3.5304,3.5239,3.5176,3.5108,3.5054,3.4982,3.4888,3.4679,3.3325,3.2675,3.2507,3.1776,3.1374,3.1221,3.0472,3.0157,3.0147,3.0068,3.0007,0.0,2.9926,2.9836,2.9672,2.9672,2.9236,2.8496,2.8307,2.791,2.7301,2.7093,2.67,2.5993,2.5823,2.5016,2.3573,2.2712,2.2203,2.1971,2.1318,2.0606,1.9938,1.9828,1.9425,1.8754,1.8705,1.8313,1.7657,1.7702,1.7708,1.7699,1.7684,1.7624,1.7517,1.7459,1.7297,1.7122,1.6759,1.6394,1.5986,1.5571,1.4227,1.1749,0.9664,0.8076,0.713,0.6379,0.6264,0.6923,0.7722,0.9387,1.2353,1.4753,1.7068,1.9282,2.0046,2.0466,2.0993,2.0308,1.9748,1.9684,1.9606,1.9606,1.9354,1.8763,1.8199,1.7648,1.6478,1.5255,1.332,1.0899,0.8685,0.6971,0.587,0.527,0.5069,0.4774,0.5203,0.5907,0.7166,0.8509,1.0042,1.1723,1.318,1.4347,1.5057,1.5501,1.5747,1.5749,1.5435,1.5216,1.5494,1.5856,1.5778,1.6673,1.7015,3.5054,3.5037,3.4964,3.4927,3.4888,3.483,3.4791,3.4734,3.4131,3.3596,3.3211,3.2828,3.2159,3.1286,3.0855,3.044,2.9972,2.9907,2.9841,2.9789,2.9789,2.9773,2.9719,2.9682,2.9494,2.9118,2.8703,2.8308,2.7928,2.7495,2.71,2.6672,2.6274,2.5618,2.4866,2.4024,2.3403,2.2952,2.2147,2.1551,2.1224,2.1199,2.1041,2.0668,2.0732,2.0587,2.0231,2.027,2.0316,2.037,2.0369,2.0371,2.0411,2.0032,1.9789,1.9737,1.9205,1.8561,1.7821,1.7108,1.5809,1.3764,1.2498,1.1207,0.9911,0.7859,0.7005,0.7732,0.813,0.9662,1.3069,1.6076,1.8418,1.9776,2.0843,2.1655,2.1938,2.1421,2.07,2.0292,2.0204,2.0022,1.9555,1.8763,1.8143,1.7775,1.6527,1.4912,1.3442,1.1895,0.9978,0.7758,0.6171,0.525,0.4941,0.5094,0.5613,0.6541,0.789,0.9419,1.101,1.2683,1.3915,1.493,1.5591,1.5917,1.6063,1.5884,1.5733,1.5632,1.5738,1.5967,1.6047,1.655,1.6859,3.5095,3.5075,3.4845,3.4728,3.4706,3.4666,3.4645,3.4666,3.4708,3.443,3.3942,3.3733,3.2936,3.1781,3.1555,3.1085,3.0444,3.0184,3.0055,2.9945,2.9794,2.9664,2.9607,2.9607,2.9588,2.9513,2.8933,2.8633,2.8595,2.8014,2.7638,2.7394,2.6679,2.6263,2.6263,2.5421,2.4689,2.4065,2.3244,2.2674,2.2329,2.2311,2.2311,2.2311,2.2337,2.2382,2.2382,2.2431,2.2498,2.2559,2.2547,2.2573,2.2614,2.2073,2.1736,2.1679,2.1104,2.0351,1.9503,1.8546,1.7479,1.6294,1.5398,1.4407,1.3131,1.0678,0.9152,0.9403,0.879,1.005,1.4443,1.8005,2.0199,2.0733,2.1745,2.2471,2.275,2.255,2.1964,2.115,2.0797,2.032,1.9494,1.8665,1.7946,1.7182,1.5919,1.4663,1.3847,1.3127,1.158,0.9478,0.7066,0.563,0.5478,0.6341,0.7088,0.7809,0.9111,1.0749,1.2426,1.3769,1.4896,1.577,1.625,1.6517,1.6333,1.6299,1.6268,1.6197,1.626,1.6143,1.6206,1.6572,1.6869,3.5754,3.5514,3.4921,3.4539,3.445,3.445,3.4473,3.4517,3.4517,3.4542,3.4419,3.3825,3.3449,3.3204,3.2506,3.2091,3.1864,3.1205,3.0847,3.0715,3.0039,2.9664,2.9663,2.9626,2.9588,2.9512,2.94,2.9363,2.9401,2.9288,2.8914,2.8277,2.7488,2.7092,2.6998,2.6284,2.5831,2.5756,2.4929,2.3769,2.2398,2.2318,2.2304,2.2318,2.2327,2.2322,2.241,2.2363,2.242,2.242,2.2495,2.2474,2.2551,2.2462,2.2469,2.2562,2.2417,2.2132,2.1743,2.075,1.9964,1.9468,1.782,1.6625,1.6076,1.4864,1.3429,1.2121,0.9559,1.0989,1.704,2.0627,2.2524,2.2829,2.2777,2.2641,2.3004,2.3473,2.325,2.1752,2.1035,2.0225,1.9433,1.8529,1.7509,1.6398,1.5508,1.4864,1.4601,1.3904,1.3117,1.1717,0.8859,0.6703,0.697,0.8471,0.9294,0.9404,1.0548,1.2146,1.3621,1.4665,1.5555,1.666,1.7181,1.7228,1.7494,1.7723,1.7555,1.7248,1.7255,1.7401,1.7468,1.7446,1.7356,3.6456,3.6334,3.553,3.4848,3.433,3.4316,3.434,3.4363,3.4473,3.4517,3.4502,3.4269,3.3896,3.3427,3.3126,3.2711,3.2183,3.1806,3.1636,3.1598,3.126,3.0827,3.0298,3.0261,2.9978,2.9471,2.9453,2.9491,2.9531,2.955,2.942,2.9101,2.8332,2.79,2.7864,2.7112,2.6681,2.6575,2.6293,2.5785,2.5129,2.4204,2.3712,2.3712,2.3708,2.3742,2.379,2.3818,2.3813,2.386,2.4289,2.4601,2.4633,2.511,2.5411,2.5393,2.4994,2.4486,2.3898,2.2949,2.2109,2.1428,2.0551,1.9869,1.9507,1.8941,1.8354,1.7454,1.3847,1.3627,1.9048,2.2434,2.4072,2.3765,2.3728,2.3813,2.3713,2.3797,2.3442,2.2464,2.1661,2.0689,1.943,1.7992,1.6806,1.5941,1.5301,1.4966,1.4931,1.4502,1.3941,1.3214,1.1841,1.0613,0.9618,1.0629,1.1429,1.1528,1.2535,1.4092,1.4759,1.601,1.6966,1.7393,1.7536,1.7673,1.7769,1.7861,1.7816,1.7749,1.7749,1.7749,1.7749,1.7726,1.7603,3.7175,3.7,3.6,3.5169,3.4501,3.4314,3.4245,3.4274,3.4404,3.4431,3.4454,3.4539,3.4264,3.3759,3.3761,3.3443,3.2859,3.2575,3.2461,3.2424,3.2217,3.1706,3.108,3.1061,3.0702,3.0155,3.0099,3.0102,3.0107,2.9981,2.9983,2.9889,2.9157,2.8745,2.8652,2.7939,2.7454,2.7363,2.7194,2.7063,2.6876,2.5937,2.5351,2.5367,2.5402,2.5418,2.5449,2.5487,2.5483,2.5495,2.6079,2.6434,2.6453,2.7016,2.7368,2.7343,2.6863,2.6319,2.5761,2.5164,2.451,2.3844,2.3474,2.3164,2.289,2.2535,2.2543,2.2539,1.8812,1.7876,2.1001,2.3689,2.4635,2.4052,2.4458,2.4591,2.4115,2.3896,2.3575,2.3077,2.2352,2.1242,1.9577,1.7958,1.6736,1.6325,1.5841,1.5498,1.5598,1.5541,1.5182,1.4354,1.4872,1.4063,1.1812,1.2711,1.3508,1.3635,1.443,1.5514,1.5994,1.7158,1.777,1.7646,1.7913,1.7958,1.7861,1.7794,1.7794,1.7789,1.7789,1.7789,1.7789,1.7789,1.7856,3.7917,3.7596,3.6096,3.5425,3.5198,3.4463,3.4185,3.4296,3.4311,3.434,3.4427,3.4473,3.4458,3.4405,3.4449,3.4508,3.4339,3.3663,3.3344,3.3269,3.2555,3.2062,3.1939,3.1939,3.1818,3.1489,3.1452,3.1548,3.1654,3.1143,3.0808,3.0732,3.0002,2.9589,2.9457,2.8746,2.8315,2.8166,2.7531,2.7083,2.7083,2.6971,2.695,2.7075,2.7054,2.6979,2.7017,2.7125,2.714,2.7159,2.7196,2.7253,2.7253,2.7276,2.7351,2.7366,2.7339,2.7289,2.7247,2.7176,2.7134,2.707,2.6304,2.6086,2.5731,2.5128,2.5041,2.591,2.3515,2.2611,2.3419,2.4338,2.4877,2.4705,2.4637,2.4407,2.3899,2.3768,2.3721,2.3527,2.2922,2.1734,1.9767,1.8495,1.7727,1.7275,1.7063,1.6977,1.6942,1.7079,1.6701,1.6305,1.6285,1.5993,1.3431,1.415,1.5293,1.5374,1.5655,1.6725,1.7232,1.7672,1.779,1.7857,1.7906,1.7905,1.7833,1.7789,1.7789,1.7789,1.7789,1.7789,1.7789,1.7789,1.7856,3.8266,3.7739,3.7192,3.6628,3.6046,3.5258,3.4958,3.4959,3.4492,3.4316,3.434,3.4386,3.445,3.4431,3.4473,3.4517,3.4564,3.4282,3.417,3.4132,3.3851,3.3395,3.2801,3.2761,3.24,3.1861,3.1801,3.1868,3.1955,3.174,3.1669,3.1499,3.0826,3.0355,3.0183,2.9531,2.9062,2.8984,2.8649,2.8538,2.8482,2.8538,2.8595,2.8615,2.766,2.7151,2.7204,2.7221,2.7221,2.724,2.771,2.801,2.8049,2.8483,2.8727,2.8727,2.8745,2.8556,2.8139,2.8091,2.7922,2.7447,2.7195,2.7065,2.6967,2.6757,2.6729,2.6817,2.6666,2.6187,2.5726,2.5248,2.4864,2.514,2.4776,2.4303,2.3917,2.3682,2.3589,2.3574,2.3107,2.2191,2.1035,1.9775,1.8933,1.8636,1.7845,1.7372,1.7266,1.7278,1.7273,1.7015,1.7044,1.6845,1.5942,1.5888,1.6447,1.6498,1.6752,1.7067,1.7496,1.7826,1.7999,1.7883,1.7888,1.7833,1.7766,1.7789,1.7789,1.7789,1.7789,1.7789,1.7789,1.7789,1.7856,3.8549,3.8069,3.7821,3.7424,3.6833,3.6083,3.5784,3.5751,3.5045,3.4679,3.466,3.447,3.4363,3.4363,3.4363,3.4409,3.4495,3.4517,3.4539,3.4539,3.4539,3.4173,3.3657,3.356,3.3216,3.2678,3.2585,3.265,3.2698,3.254,3.247,3.2393,3.1609,3.1026,3.0663,3.0143,2.9749,2.9483,2.939,2.9392,2.9392,2.9392,2.9431,2.9323,2.839,2.7885,2.794,2.794,2.7921,2.8015,2.8483,2.8764,2.8821,2.9251,2.955,2.9531,2.955,2.9401,2.8896,2.8838,2.8647,2.812,2.8077,2.8107,2.807,2.8102,2.8102,2.8129,2.8267,2.8275,2.7661,2.6414,2.5579,2.5579,2.4857,2.4316,2.4263,2.4275,2.4229,2.4051,2.3539,2.2827,2.2063,2.0956,2.0375,2.0258,1.9158,1.8596,1.8615,1.835,1.8066,1.7926,1.7888,1.7684,1.7139,1.7142,1.7224,1.7244,1.7225,1.7487,1.7588,1.7922,1.8021,1.7932,1.7833,1.7766,1.7743,1.7749,1.7766,1.7789,1.7789,1.7789,1.7789,1.7789,1.7856,3.8833,3.8656,3.7945,3.7679,3.7514,3.6833,3.6537,3.6496,3.5825,3.5497,3.5386,3.4772,3.4567,3.4442,3.4586,3.4442,3.4535,3.4614,3.4531,3.4404,3.4404,3.4344,3.42,3.4204,3.412,3.3956,3.4176,3.42,3.4051,3.35,3.3187,3.3056,3.2344,3.1632,3.0788,3.073,3.0302,2.9776,2.9646,2.9553,2.9425,2.9593,2.9651,2.9578,2.9468,2.9451,2.9492,2.9437,2.9288,2.9362,2.94,2.9492,2.9399,2.9474,2.9492,2.9511,2.955,2.9569,2.9551,2.9551,2.9495,2.9345,2.9457,2.9308,2.9214,2.9212,2.9173,2.9134,2.9111,2.9103,2.8824,2.7879,2.6848,2.5982,2.4964,2.4433,2.4977,2.5493,2.554,2.4879,2.4298,2.3554,2.2841,2.2136,2.1679,2.1607,2.1206,2.0933,2.0857,2.0383,1.9878,1.9352,1.9079,1.8885,1.8448,1.8056,1.7985,1.7912,1.7894,1.7945,1.7793,1.7941,1.7837,1.7766,1.7721,1.7675,1.7635,1.7658,1.7704,1.7726,1.7749,1.7766,1.7766,1.7743,1.7811,3.8792,3.8713,3.8534,3.8405,3.8313,3.7587,3.7294,3.7258,3.6527,3.6176,3.612,3.5925,3.5795,3.5777,3.5705,3.5668,3.5678,3.5615,3.5158,3.4426,3.433,3.433,3.4264,3.4288,3.4269,3.4221,3.4269,3.4288,3.4189,3.4032,3.392,3.3677,3.2961,3.2432,3.2056,3.1589,3.1103,3.0942,3.0905,3.0927,3.0973,3.0976,3.0999,3.1043,3.1043,3.1083,3.103,3.0068,2.9548,2.9548,2.9511,2.9472,2.9453,2.9433,2.9412,2.9431,2.9451,2.9471,2.9491,2.9512,2.9569,2.955,2.9531,2.9472,2.9394,2.9353,2.9291,2.9203,2.9115,2.9067,2.8879,2.853,2.776,2.6871,2.5126,2.4432,2.5231,2.5636,2.5683,2.5558,2.5416,2.5141,2.4563,2.3771,2.3148,2.3037,2.2254,2.1622,2.1787,2.142,2.0912,2.0568,2.0419,2.0069,1.9611,1.9114,1.8848,1.8465,1.8236,1.8009,1.7883,1.7789,1.7698,1.7652,1.7606,1.7582,1.7542,1.7566,1.7612,1.7635,1.7658,1.7658,1.7658,1.7704,1.7749,3.9252,3.8695,3.9062,3.9038,3.8755,3.8221,3.8095,3.8024,3.7304,3.6925,3.686,3.6546,3.6408,3.638,3.6229,3.6201,3.6153,3.6065,3.5564,3.4815,3.4611,3.4587,3.4488,3.4241,3.4173,3.413,3.4173,3.4148,3.4099,3.4124,3.4099,3.3887,3.3405,3.293,3.2691,3.2187,3.1776,3.1532,3.1483,3.1549,3.1597,3.1639,3.1668,3.1737,3.176,3.176,3.1708,3.0825,3.0365,3.029,3.0085,2.9787,2.9467,2.939,2.939,2.9388,2.939,2.9412,2.9412,2.9472,2.9492,2.9454,2.9453,2.9392,2.927,2.9228,2.9138,2.8998,2.8929,2.8858,2.8743,2.8644,2.8261,2.7725,2.6501,2.5787,2.6226,2.6471,2.6391,2.6274,2.6208,2.6117,2.5564,2.509,2.4451,2.419,2.3289,2.2554,2.2701,2.2128,2.1765,2.1341,2.0884,2.0653,2.0595,2.0199,1.9746,1.9121,1.8506,1.807,1.7726,1.7652,1.7559,1.7559,1.7552,1.7529,1.7529,1.7519,1.7566,1.7566,1.7566,1.7612,1.7635,1.7635,1.7658,4.013,3.8802,3.9593,3.9528,3.8927,3.8847,3.8822,3.8715,3.8087,3.7661,3.7503,3.693,3.6534,3.6362,3.6444,3.6364,3.6103,3.6087,3.6041,3.5786,3.548,3.5174,3.4926,3.4323,3.3998,3.3998,3.3998,3.3965,3.3868,3.3895,3.3842,3.3743,3.3607,3.3305,3.2748,3.2529,3.2182,3.1689,3.1594,3.1708,3.1765,3.1753,3.1808,3.1945,3.2006,3.2048,3.2112,3.2005,3.1838,3.1671,3.0987,3.0373,2.9779,2.9537,2.9704,2.9741,2.9576,2.9671,2.9636,2.9843,2.9826,2.9802,2.9741,2.9418,2.9529,2.9379,2.9172,2.901,2.8809,2.8644,2.8518,2.8466,2.8404,2.8362,2.7887,2.7817,2.7964,2.7929,2.7467,2.6854,2.6774,2.6757,2.6183,2.5893,2.5532,2.524,2.4736,2.4311,2.3914,2.3159,2.2318,2.1826,2.1476,2.1329,2.1302,2.0798,2.036,1.9989,1.9256,1.8535,1.7903,1.7733,1.7529,1.7505,1.7622,1.7565,1.7498,1.7505,1.7505,1.7505,1.7512,1.7582,1.7566,1.7559,1.7566,4.0653,4.0239,4.0522,4.017,3.9543,3.9551,3.9252,3.8768,3.8432,3.8236,3.8169,3.7979,3.7734,3.7717,3.7566,3.7537,3.7329,3.7178,3.7234,3.7194,3.6522,3.5751,3.4999,3.4238,3.386,3.386,3.3834,3.3807,3.3689,3.3671,3.3615,3.3509,3.3357,3.3255,3.3125,3.2984,3.2947,3.2835,3.2827,3.2875,3.2949,3.303,3.3164,3.332,3.3315,3.334,3.342,3.3469,3.2868,3.1875,3.1656,3.1414,3.1095,3.1039,3.1024,3.1024,3.1098,3.1117,3.1098,3.112,3.1136,3.1106,3.0853,3.0928,3.0809,3.0137,2.974,2.945,2.9011,2.8546,2.8416,2.8318,2.8237,2.8136,2.8126,2.8099,2.8014,2.7996,2.7872,2.7604,2.7579,2.752,2.7317,2.6872,2.6541,2.6566,2.5905,2.5051,2.4681,2.3876,2.29,2.2599,2.2272,2.216,2.191,2.1413,2.1003,2.0789,2.0111,1.9253,1.8575,1.8059,1.7738,1.7498,1.7871,1.7937,1.7657,1.7484,1.7484,1.7583,1.7467,1.7498,1.7451,1.7403,1.7441,4.1497,4.0775,4.1188,4.0894,4.0163,3.99,3.9511,3.9022,3.8624,3.8465,3.8401,3.8336,3.8219,3.8189,3.8018,3.7897,3.7828,3.7685,3.7595,3.747,3.6755,3.5807,3.4884,3.4254,3.3943,3.3633,3.3633,3.3577,3.3462,3.3433,3.3327,3.3226,3.3042,3.306,3.3068,3.306,3.3011,3.3104,3.3165,3.3256,3.3386,3.3444,3.3569,3.3707,3.3834,3.386,3.3947,3.4005,3.3469,3.2558,3.2284,3.2135,3.1819,3.1801,3.1801,3.1801,3.1801,3.1782,3.1782,3.1782,3.1733,3.1644,3.1592,3.1427,3.1203,3.0709,3.0368,3.0152,2.9656,2.9233,2.8746,2.8368,2.8116,2.8025,2.794,2.7882,2.7882,2.7929,2.79,2.7853,2.7836,2.7893,2.7996,2.7441,2.7419,2.7326,2.6483,2.5893,2.5365,2.4408,2.3561,2.3177,2.2716,2.2439,2.2238,2.1827,2.1542,2.1343,2.083,2.0013,1.9393,1.8693,1.8493,1.8319,1.8344,1.8302,1.8162,1.8005,1.7922,1.7922,1.7617,1.7453,1.7461,1.7658,1.7642,4.2429,4.0996,4.1812,4.1665,4.0864,4.0188,3.9947,3.9586,3.9075,3.8678,3.8507,3.8316,3.8231,3.7984,3.7863,3.7721,3.7631,3.7503,3.741,3.7177,3.6664,3.5915,3.4979,3.4695,3.422,3.3677,3.3478,3.3364,3.3268,3.3104,3.2993,3.2916,3.2805,3.274,3.2755,3.274,3.274,3.2755,3.282,3.2948,3.3055,3.3117,3.3268,3.3473,3.3587,3.3698,3.3815,3.3884,3.3629,3.311,3.3096,3.2781,3.2187,3.2075,3.2112,3.2187,3.2238,3.2224,3.2094,3.2173,3.2033,3.201,3.1868,3.1532,3.1519,3.1292,3.1008,3.0837,3.0724,3.0101,2.9467,2.8652,2.818,2.8052,2.7877,2.7889,2.7748,2.7795,2.7842,2.7748,2.7701,2.7701,2.7701,2.7701,2.7683,2.7596,2.6929,2.6532,2.6016,2.5299,2.4389,2.3605,2.3089,2.2569,2.2383,2.2181,2.2012,2.1809,2.1339,2.0722,2.0246,1.9737,1.9574,1.9375,1.9051,1.9024,1.9184,1.8979,1.8616,1.8451,1.8341,1.7962,1.7674,1.8044,1.8193,4.2996,4.2596,4.2814,4.2414,4.1705,4.1502,4.1118,4.05,4.0302,3.974,3.9309,3.9132,3.8614,3.7934,3.7846,3.7775,3.7613,3.7466,3.7354,3.7279,3.719,3.6573,3.5758,3.5328,3.4628,3.4071,3.3892,3.3555,3.3098,3.2927,3.269,3.259,3.2507,3.2353,3.2404,3.2387,3.2353,3.2404,3.2523,3.2606,3.2737,3.2866,3.3024,3.3208,3.3404,3.3549,3.3643,3.3726,3.3715,3.3674,3.3659,3.3543,3.3401,3.3401,3.3364,3.3346,3.342,3.3475,3.3469,3.3308,3.3386,3.3172,3.2958,3.3029,3.2861,3.2043,3.1643,3.138,3.0909,3.0467,3.0026,2.944,2.8775,2.8323,2.8539,2.8596,2.7929,2.7748,2.7748,2.773,2.7701,2.7701,2.7701,2.7701,2.7683,2.7666,2.7426,2.7081,2.6603,2.6091,2.5269,2.4344,2.3636,2.3083,2.2524,2.2303,2.2032,2.1957,2.162,2.1363,2.0903,2.0539,2.0218,1.989,1.9517,1.9688,2.0058,1.9612,1.9208,1.9121,1.9028,1.8696,1.8506,1.8723,1.87,4.3233,4.3104,4.3104,4.2813,4.2359,4.1978,4.1614,4.1196,4.0761,4.0182,3.9549,3.9334,3.8794,3.7969,3.7881,3.781,3.7649,3.7449,3.7317,3.7241,3.7185,3.6935,3.6597,3.6145,3.5545,3.4604,3.4426,3.3965,3.3434,3.3103,3.2929,3.2457,3.2301,3.2232,3.2214,3.2179,3.2196,3.2232,3.2284,3.2353,3.2489,3.259,3.2787,3.3011,3.3208,3.3345,3.3452,3.3538,3.3577,3.3615,3.3726,3.3815,3.3921,3.3921,3.3921,3.3947,3.3921,3.3913,3.3895,3.3834,3.3689,3.3689,3.3491,3.3345,3.319,3.2594,3.2358,3.2157,3.1777,3.1296,3.0794,3.0328,2.9579,2.9211,2.9509,2.9316,2.814,2.7701,2.7701,2.7701,2.7701,2.7701,2.7701,2.7701,2.7701,2.7683,2.7666,2.7344,2.7217,2.6671,2.6086,2.5248,2.4384,2.3637,2.2874,2.2383,2.1949,2.1869,2.1757,2.1661,2.145,2.1102,2.0771,2.0561,2.0423,2.0666,2.0867,2.0319,1.9906,1.9813,1.9705,1.9458,1.9284,1.9208,1.9154,4.3269,4.3104,4.3086,4.3012,4.2792,4.2194,4.1922,4.1796,4.118,4.0546,3.9677,3.9462,3.8993,3.8146,3.7951,3.7846,3.7685,3.7522,3.7392,3.7223,3.7203,3.7111,3.6946,3.6826,3.6423,3.5332,3.5101,3.4624,3.4076,3.3723,3.3196,3.2617,3.2249,3.2126,3.2073,3.2054,3.2072,3.2089,3.2073,3.2144,3.2301,3.2371,3.2541,3.2787,3.2979,3.3104,3.3201,3.3292,3.3352,3.3352,3.3422,3.3577,3.3726,3.3788,3.378,3.3834,3.378,3.3726,3.3698,3.3633,3.3538,3.3433,3.3304,3.3152,3.2961,3.283,3.2695,3.2634,3.2376,3.2115,3.1538,3.121,3.0878,3.058,3.0738,3.0036,2.8877,2.8193,2.7929,2.7701,2.7701,2.7701,2.7701,2.7701,2.7701,2.7701,2.7701,2.7642,2.7448,2.7158,2.6487,2.5885,2.5014,2.4204,2.3427,2.2728,2.2288,2.2126,2.2013,2.1864,2.1847,2.1549,2.1284,2.1499,2.1516,2.1569,2.1457,2.1059,2.0721,2.057,2.0443,2.0315,2.007,1.9731,1.9719,4.3214,4.3178,4.3013,4.292,4.2864,4.2737,4.2647,4.2683,4.2448,4.1651,4.0383,4.0257,3.9372,3.8343,3.7984,3.7898,3.7721,3.7613,3.7466,3.7354,3.7297,3.7259,3.722,3.7203,3.7011,3.6743,3.6141,3.5326,3.455,3.3844,3.3528,3.3016,3.2385,3.2034,3.191,3.1837,3.191,3.1946,3.1965,3.2037,3.2179,3.2267,3.2371,3.259,3.2755,3.287,3.2902,3.2997,3.3091,3.3073,3.3135,3.3256,3.3393,3.3549,3.3577,3.3577,3.3549,3.352,3.3462,3.3393,3.3304,3.3165,3.3042,3.2948,3.282,3.2722,3.2657,3.2574,3.2525,3.2335,3.2247,3.2002,3.2072,3.1861,3.1458,3.123,3.0984,2.986,2.8491,2.7999,2.7841,2.7701,2.7701,2.7701,2.7672,2.7672,2.7672,2.763,2.7465,2.7144,2.6681,2.6094,2.5541,2.4776,2.3999,2.3303,2.2758,2.2642,2.2462,2.2065,2.1983,2.1847,2.1781,2.1781,2.1781,2.1731,2.1606,2.1497,2.1401,2.1171,2.1157,2.1174,2.0868,2.0564,2.0763,4.3178,4.3142,4.3049,4.2956,4.29,4.29,4.29,4.29,4.2864,4.1995,4.0872,4.0437,3.9606,3.8448,3.8088,3.7985,3.781,3.7685,3.7577,3.7429,3.7354,3.7334,3.7334,3.7317,3.7354,3.721,3.6799,3.6139,3.5412,3.5023,3.4174,3.3258,3.275,3.2327,3.1906,3.18,3.1837,3.1873,3.1929,3.2001,3.2213,3.2302,3.2371,3.2507,3.2557,3.2674,3.2722,3.2755,3.277,3.2802,3.2866,3.2948,3.306,3.3183,3.3304,3.3364,3.3304,3.3226,3.3183,3.3109,3.2997,3.2948,3.282,3.2755,3.269,3.2606,3.2523,3.2491,3.244,3.2406,3.2371,3.2406,3.2406,3.2353,3.2019,3.2019,3.1844,3.0527,2.9421,2.8386,2.7947,2.7771,2.7701,2.7701,2.7642,2.7659,2.7689,2.7569,2.7483,2.7129,2.6753,2.6401,2.5864,2.5263,2.458,2.3935,2.3423,2.3274,2.2961,2.2566,2.2351,2.2302,2.1986,2.1751,2.1781,2.1883,2.1751,2.1625,2.1675,2.1724,2.1562,2.1467,2.1505,2.1526,2.1511,4.3269,4.303,4.3211,4.3081,4.2862,4.2844,4.2806,4.2844,4.2824,4.192,4.0565,4.0348,3.957,3.8432,3.8072,3.8003,3.7828,3.7685,3.754,3.7411,3.7374,3.7354,3.741,3.7429,3.7449,3.7485,3.7377,3.7017,3.6317,3.589,3.5019,3.408,3.3534,3.2832,3.2199,3.1921,3.1942,3.1946,3.1929,3.2072,3.2301,3.2389,3.2422,3.2491,3.2491,3.2507,3.2557,3.2573,3.2606,3.2623,3.269,3.2773,3.2773,3.282,3.2948,3.3109,3.3046,3.2965,3.2884,3.287,3.2773,3.2722,3.2657,3.259,3.2557,3.2489,3.2439,3.2406,3.2406,3.2406,3.2406,3.2406,3.2406,3.2406,3.2388,3.2335,3.2002,3.1142,3.0071,2.9123,2.8298,2.7841,2.7736,2.7659,2.763,2.7569,2.76,2.7509,2.7341,2.707,2.6757,2.6572,2.6185,2.5714,2.5144,2.4545,2.4165,2.4,2.3605,2.3194,2.2998,2.2883,2.2567,2.2314,2.2054,2.2106,2.1939,2.1771,2.1738,2.1738,2.1724,2.1694,2.1634,2.1634,2.1603,4.3532,4.2894,4.3444,4.3296,4.2685,4.2631,4.2649,4.2649,4.2631,4.1731,4.0363,4.0183,3.9391,3.8186,3.7792,3.7703,3.7613,3.7485,3.7429,3.7374,3.7374,3.7466,3.7558,3.7649,3.7631,3.7631,3.7631,3.7468,3.6998,3.637,3.5794,3.5004,3.3848,3.3043,3.2648,3.2059,3.1819,3.1912,3.1912,3.202,3.2249,3.2371,3.2406,3.2388,3.2422,3.244,3.2457,3.2507,3.2489,3.2523,3.259,3.2606,3.2639,3.2639,3.2639,3.2722,3.2755,3.2773,3.269,3.2657,3.2608,3.2574,3.2523,3.2473,3.2439,3.2422,3.2422,3.2406,3.2406,3.2406,3.2406,3.2406,3.2406,3.2406,3.2406,3.2406,3.2213,3.1809,3.0738,2.9632,2.8719,2.8087,2.7736,2.7647,2.7587,2.7557,2.7478,2.7386,2.723,2.6973,2.6691,2.6488,2.6369,2.5927,2.5622,2.5071,2.4837,2.4652,2.4323,2.3898,2.3618,2.3505,2.3473,2.3207,2.2815,2.2358,2.2159,2.1993,2.1853,2.1768,2.1768,2.1738,2.1694,2.1694,2.1694,4.3519,4.262,4.3373,4.3207,4.2566,4.2552,4.2609,4.2609,4.2591,4.198,4.0899,4.0305,3.9245,3.7972,3.754,3.7466,3.741,3.7279,3.7223,3.7261,3.7337,3.7429,3.7503,3.7631,3.7685,3.7685,3.765,3.7559,3.725,3.694,3.6415,3.5436,3.4439,3.3529,3.2993,3.2236,3.1998,3.2037,3.2108,3.2214,3.2301,3.2354,3.2406,3.2406,3.2406,3.2406,3.2406,3.244,3.2457,3.2457,3.2473,3.2507,3.2473,3.2473,3.2507,3.2507,3.2541,3.2541,3.2557,3.2489,3.2473,3.2457,3.2439,3.2422,3.2406,3.2406,3.2406,3.2406,3.2406,3.2406,3.2406,3.2406,3.2406,3.2406,3.2406,3.2406,3.2335,3.2072,3.137,3.0246,2.9141,2.8438,2.7841,2.7647,2.7557,2.7465,2.7355,2.7261,2.7103,2.6891,2.6624,2.6383,2.6279,2.612,2.5914,2.5524,2.537,2.5232,2.5192,2.4736,2.4281,2.4141,2.408,2.3833,2.3353,2.2914,2.2524,2.2194,2.2038,2.1917,2.1781,2.185,2.1873,2.1754,2.1754,4.3129,4.215,4.3255,4.3286,4.2578,4.2499,4.2468,4.2468,4.2409,4.2002,4.1175,4.0292,3.907,3.7998,3.7577,3.7447,3.7182,3.7031,3.7031,3.7126,3.7241,3.7317,3.7411,3.7595,3.7667,3.7685,3.7667,3.7577,3.7411,3.719,3.6658,3.5762,3.4787,3.4012,3.3187,3.2412,3.1948,3.2126,3.2284,3.2354,3.2406,3.2406,3.2406,3.2406,3.2406,3.2406,3.2406,3.2406,3.2406,3.2406,3.2406,3.2422,3.244,3.2422,3.2422,3.244,3.244,3.2457,3.2457,3.2457,3.2406,3.2406,3.2406,3.2406,3.2406,3.2406,3.2406,3.2406,3.2406,3.2406,3.2406,3.2406,3.2406,3.2406,3.2406,3.2406,3.2388,3.2177,3.1581,3.0317,2.9281,2.8526,2.8005,2.7687,2.7526,2.7404,2.7279,2.7186,2.7041,2.6927,2.6623,2.6378,2.6206,2.6115,2.5974,2.5832,2.5738,2.568,2.5637,2.547,2.494,2.4745,2.4736,2.4349,2.3951,2.3942,2.3823,2.2998,2.2256,2.2569,2.27,2.2266,2.2115,2.198,2.1814,4.2269,4.1422,4.3276,4.3597,4.2934,4.2331,4.2048,4.2072,4.2048,4.1569,4.0772,3.9888,3.9024,3.8181,3.7837,3.7458,3.6881,3.6783,3.6829,3.6948,3.7066,3.7203,3.7354,3.7485,3.7595,3.7631,3.7613,3.7503,3.7392,3.7185,3.6935,3.6464,3.5066,3.4411,3.3606,3.2602,3.2089,3.2196,3.2354,3.2406,3.2406,3.2406,3.2406,3.2406,3.2406,3.2406,3.2406,3.2406,3.2406,3.2406,3.2406,3.2406,3.2406,3.2406,3.2406,3.2406,3.2406,3.2406,3.2406,3.2406,3.2406,3.2406,3.2406,3.2406,3.2406,3.2406,3.2406,3.2406,3.2406,3.2406,3.2406,3.2406,3.2406,3.2406,3.2406,3.2406,3.2406,3.2388,3.1686,3.0387,2.9509,2.893,2.8426,2.8207,2.7923,2.7782,2.787,2.779,2.725,2.7061,2.6686,2.6426,2.6184,2.6043,2.5917,2.5807,2.5717,2.5659,2.5616,2.5616,2.5454,2.5373,2.5195,2.5077,2.4765,2.4964,2.5001,2.417,2.3635,2.3749,2.357,2.2914,2.2465,2.225,2.2016,4.2236,4.2009,4.2648,4.2579,4.2053,4.1833,4.1754,4.1754,4.1754,4.1288,4.0463,4.0009,3.9338,3.8564,3.7802,3.7482,3.7126,3.6641,3.6637,3.6748,3.6891,3.7048,3.7203,3.7317,3.7429,3.7429,3.741,3.7354,3.7185,3.7069,3.6948,3.6295,3.517,3.448,3.3692,3.2815,3.2282,3.2267,3.2354,3.2406,3.2406,3.2406,3.2406,3.2406,3.2406,3.2406,3.2406,3.2406,3.2406,3.2406,3.2406,3.2406,3.2406,3.2406,3.2406,3.2406,3.2406,3.2406,3.2406,3.2406,3.2406,3.2406,3.2406,3.2406,3.2406,3.2406,3.2406,3.2406,3.2406,3.2406,3.2406,3.2406,3.2406,3.2406,3.2406,3.2406,3.2406,3.2406,3.1967,3.0738,3.0159,2.965,2.9197,2.8749,2.8464,2.823,2.8334,2.834,2.7842,2.7412,2.7155,2.6795,2.6535,2.6109,2.5967,2.5824,2.568,2.5621,2.5616,2.5616,2.5616,2.56,2.5454,2.547,2.5438,2.5389,2.526,2.507,2.4834,2.4479,2.3929,2.3309,2.293,2.2615,2.2415,4.1921,4.195,4.1873,4.1794,4.1649,4.1558,4.1453,4.1426,4.1426,4.1073,4.0416,4.029,3.9783,3.8922,3.8339,3.7607,3.7291,3.6836,3.6619,3.6572,3.669,3.6851,3.697,3.7048,3.7164,3.7182,3.7143,3.7087,3.6992,3.6948,3.6788,3.6284,3.5409,3.4683,3.3848,3.2869,3.2214,3.2301,3.2388,3.2406,3.2406,3.2406,3.2406,3.2406,3.2406,3.2406,3.2406,3.2406,3.2406,3.2406,3.2406,3.2406,3.2406,3.2406,3.2406,3.2406,3.2406,3.2406,3.2406,3.2406,3.2406,3.2406,3.2406,3.2406,3.2406,3.2406,3.2406,3.2406,3.2406,3.2406,3.2406,3.2406,3.2406,3.2406,3.2406,3.2406,3.2406,3.2371,3.1879,3.1159,3.072,3.0317,2.9986,2.9572,2.939,2.9067,2.8851,2.887,2.8643,2.8228,2.7921,2.749,2.7058,2.6528,2.6036,2.584,2.5659,2.5637,2.5616,2.5616,2.5616,2.5616,2.5616,2.5567,2.5551,2.56,2.5503,2.5345,2.5086,2.4847,2.43,2.3832,2.3408,2.3128,2.3011,4.1099,4.0953,4.0987,4.1509,4.2096,4.1522,4.1198,4.1123,4.1093,4.0931,4.0655,4.059,4.0168,3.9474,3.9084,3.8333,3.7393,3.7158,3.6861,3.6481,3.6485,3.6667,3.6731,3.6851,3.6908,3.6948,3.6948,3.6869,3.6811,3.6806,3.6643,3.6377,3.5682,3.4874,3.4047,3.28,3.2178,3.2249,3.2389,3.2371,3.2371,3.2371,3.2371,3.2371,3.2371,3.2354,3.2354,3.2371,3.2301,3.2177,3.2143,3.2143,3.2178,3.2178,3.2231,3.2354,3.2371,3.2388,3.2388,3.2406,3.2406,3.2406,3.2406,3.2406,3.2406,3.2406,3.2406,3.2406,3.2406,3.2406,3.2406,3.2406,3.2406,3.2406,3.2406,3.2406,3.2406,3.2406,3.1949,3.1598,3.1282,3.0966,3.0688,3.0429,3.0298,3.0006,2.9558,2.9402,2.9448,2.9153,2.888,2.8325,2.7805,2.7072,2.6508,2.5901,2.5654,2.5616,2.5616,2.5616,2.5616,2.5616,2.5616,2.5616,2.5616,2.5616,2.5616,2.5584,2.5357,2.5151,2.4912,2.4479,2.4028,2.3654,2.3539,4.0935,4.0871,4.0871,4.1073,4.1358,4.1133,4.0935,4.084,4.0728,4.0631,4.0534,4.0502,4.0319,3.9895,3.9336,3.8639,3.7802,3.7036,3.6676,3.6277,3.6335,3.6444,3.6568,3.6667,3.6725,3.6766,3.6725,3.6766,3.6829,3.6725,3.6725,3.6516,3.5931,3.5018,3.4181,3.3231,3.2819,3.277,3.251,3.2214,3.2196,3.2214,3.2232,3.2232,3.2267,3.2267,3.2267,3.2267,3.2109,3.174,3.1618,3.1515,3.1549,3.1532,3.169,3.2004,3.2179,3.2232,3.2267,3.2319,3.2406,3.2406,3.2406,3.2406,3.2406,3.2406,3.2406,3.2406,3.2406,3.2406,3.2406,3.2406,3.2406,3.2406,3.2406,3.2406,3.2406,3.2406,3.2213,3.1967,3.1686,3.137,3.1089,3.1198,3.115,3.1202,3.082,3.0766,3.0831,3.0381,3.0,2.9321,2.8696,2.7805,2.7085,2.6611,2.6178,2.6108,2.587,2.5616,2.5616,2.5729,2.5632,2.5648,2.5632,2.5616,2.5616,2.5616,2.5616,2.5454,2.5216,2.4924,2.4544,2.4221,2.4076,4.0871,4.0871,4.0871,4.0871,4.0871,4.0871,4.0776,4.0648,4.0419,4.037,4.0337,4.0288,4.0221,4.0018,3.9613,3.8717,3.7953,3.7505,3.6537,3.6173,3.6148,3.6276,3.6377,3.6513,3.6502,3.6561,3.6602,3.6568,3.6667,3.6626,3.6684,3.6586,3.622,3.5774,3.4988,3.4293,3.3601,3.343,3.3084,3.256,3.2492,3.2335,3.2126,3.2108,3.2144,3.2179,3.2179,3.2074,3.183,3.1288,3.0974,3.0802,3.0748,3.0905,3.1098,3.1533,3.1986,3.2074,3.2214,3.2267,3.2319,3.2388,3.2406,3.2406,3.2406,3.2406,3.2406,3.2406,3.2406,3.2406,3.2406,3.2406,3.2406,3.2406,3.2406,3.2406,3.2406,3.2406,3.2388,3.2177,3.2072,3.1756,3.1581,3.1863,3.2022,3.2092,3.2179,3.209,3.1929,3.1424,3.085,3.0238,2.9692,2.8996,2.8185,2.7441,2.7043,2.6651,2.6406,2.6211,2.6043,2.6243,2.5962,2.5664,2.5648,2.5616,2.5616,2.5616,2.5578,2.5578,2.5497,2.5243,2.4972,2.4798,2.4674,4.0888,4.0871,4.0871,4.0888,4.0888,4.0871,4.0745,4.0485,4.0221,4.0138,4.0121,4.0138,4.0121,4.0121,4.002,3.9226,3.8115,3.797,3.7106,3.6322,3.6365,3.6378,3.6448,3.6569,3.6689,3.6525,3.6464,3.6693,3.6579,3.6626,3.6667,3.6725,3.6626,3.6434,3.5941,3.5366,3.4652,3.4283,3.3462,3.3045,3.2854,3.2367,3.2124,3.2054,3.2073,3.2073,3.2073,3.202,3.1638,3.122,3.0889,3.0437,3.028,3.0472,3.0715,3.1116,3.1672,3.1986,3.2179,3.2179,3.2267,3.2354,3.2406,3.2406,3.2406,3.2406,3.2406,3.2406,3.2406,3.2406,3.2406,3.2406,3.2406,3.2406,3.2406,3.2406,3.2406,3.2406,3.2406,3.2353,3.2335,3.2195,3.2125,3.2336,3.2267,3.2267,3.2232,3.2144,3.2037,3.2001,3.146,3.0986,3.0543,3.0247,2.9446,2.8465,2.7909,2.7531,2.7547,2.7365,2.713,2.6759,2.6487,2.6189,2.5762,2.5616,2.5616,2.5578,2.5578,2.554,2.5524,2.546,2.519,2.5345,2.5306,4.0745,4.0745,4.0745,4.0745,4.0745,4.0745,4.0697,4.0583,4.0436,4.0337,4.0255,4.0238,4.0188,4.0087,3.9986,3.9328,3.879,3.8369,3.7848,3.7354,3.6941,3.7267,3.7422,3.7421,3.7401,3.7162,3.6982,3.68,3.6713,3.6708,3.6829,3.6926,3.6869,3.6869,3.6711,3.6374,3.5771,3.5014,3.4001,3.3546,3.3058,3.2466,3.2189,3.1996,3.1965,3.1965,3.1965,3.1948,3.1567,3.1046,3.082,3.0404,2.9781,2.9851,3.0041,3.0802,3.1444,3.202,3.2108,3.2179,3.2267,3.2354,3.2406,3.2406,3.2406,3.2406,3.2406,3.2406,3.2406,3.2406,3.2406,3.2406,3.2406,3.2406,3.2406,3.2406,3.2406,3.2406,3.2406,3.2406,3.2406,3.2406,3.2388,3.2301,3.2232,3.2232,3.2162,3.2004,3.2074,3.1968,3.1932,3.144,3.1244,3.0919,3.0281,2.9362,2.887,2.8445,2.8494,2.8336,2.7856,2.7427,2.7111,2.6691,2.628,2.5907,2.5616,2.5627,2.5712,2.5502,2.5432,2.5432,2.547,2.5546,2.5621,4.0374,4.0631,4.0631,4.0648,4.0648,4.0697,4.0714,4.0697,4.0583,4.0436,4.0387,4.0288,4.0255,4.0138,3.9952,3.9446,3.8673,3.8421,3.7937,3.7319,3.7567,3.7593,3.777,3.7819,3.7445,3.7305,3.7076,3.6705,3.6672,3.6766,3.6886,3.6908,3.6948,3.6987,3.6895,3.6768,3.6571,3.5811,3.4961,3.4202,3.3536,3.2859,3.2369,3.2145,3.2063,3.1891,3.1893,3.1875,3.1513,3.0941,3.0732,3.0335,2.9851,2.9834,3.0075,3.0818,3.1424,3.1653,3.1672,3.1987,3.2162,3.2354,3.2406,3.2406,3.2406,3.2406,3.2406,3.2406,3.2406,3.2406,3.2406,3.2406,3.2406,3.2406,3.2406,3.2406,3.2406,3.2406,3.2406,3.2406,3.2406,3.2406,3.2371,3.2267,3.2022,3.1742,3.1463,3.1237,3.1446,3.1742,3.1863,3.1719,3.1647,3.1539,3.08,3.0074,2.971,2.9399,2.9499,2.9222,2.8633,2.8152,2.7891,2.7347,2.6758,2.6435,2.6105,2.5915,2.5908,2.5676,2.5516,2.5429,2.5436,2.5416,2.5508,3.9846,4.0366,4.0451,4.0485,4.0534,4.0631,4.0697,4.0697,4.0583,4.0534,4.0485,4.0387,4.0288,4.0238,3.9969,3.9444,3.8872,3.855,3.811,3.6995,3.7533,3.7703,3.7567,3.7236,3.7386,3.7086,3.6844,3.6732,3.6606,3.6684,3.6766,3.6788,3.6788,3.6869,3.693,3.6948,3.6803,3.6576,3.5889,3.5243,3.477,3.393,3.2938,3.2748,3.2334,3.1903,3.1817,3.1679,3.1489,3.1024,3.0713,3.0437,3.0196,3.0196,3.0541,3.0869,3.1422,3.1582,3.1602,3.1847,3.2179,3.2336,3.2406,3.2406,3.2406,3.2406,3.2406,3.2406,3.2406,3.2406,3.2406,3.2406,3.2406,3.2406,3.2406,3.2406,3.2406,3.2406,3.2406,3.2406,3.2406,3.2406,3.2319,3.2197,3.183,3.1359,3.1028,3.0716,3.0612,3.1064,3.122,3.1409,3.1216,3.1007,3.07,3.0183,3.0386,3.0342,3.0135,2.9815,2.8911,2.8707,2.8633,2.7989,2.7364,2.7025,2.6728,2.6559,2.6302,2.6007,2.5775,2.5536,2.5463,2.5589,2.5442,3.9333,3.9572,4.0116,4.0387,4.0485,4.0534,4.0583,4.0697,4.0648,4.0648,4.0631,4.0485,4.0404,4.0305,3.9935,3.9441,3.9201,3.8702,3.845,3.8095,3.8122,3.7771,3.7882,3.7668,3.754,3.7097,3.6874,3.6724,3.6523,3.6602,3.6702,3.6742,3.6725,3.6748,3.6851,3.6869,3.6851,3.6913,3.6539,3.5925,3.5422,3.4523,3.3593,3.3162,3.2645,3.2265,3.2093,3.1783,3.1714,3.1524,3.1541,3.1127,3.0524,3.0644,3.0679,3.0817,3.1351,3.1634,3.1741,3.1864,3.2144,3.2336,3.2406,3.2406,3.2406,3.2406,3.2406,3.2406,3.2406,3.2406,3.2406,3.2406,3.2406,3.2406,3.2406,3.2406,3.2406,3.2406,3.2406,3.2406,3.2406,3.2354,3.2267,3.2022,3.162,3.1272,3.0941,3.0525,2.992,2.9989,2.9937,3.0058,3.0076,2.9936,2.9928,2.9915,2.9914,2.9772,2.9453,2.927,2.9108,2.909,2.8949,2.8442,2.795,2.7672,2.74,2.724,2.6933,2.65,2.6388,2.6286,2.6286,2.6358,2.591,3.8846,3.9171,3.99,4.0238,4.032,4.0387,4.0436,4.0502,4.06,4.06,4.0583,4.0534,4.0436,4.0305,3.9935,3.9573,3.9292,3.8898,3.8453,3.8318,3.8114,3.7802,3.7781,3.7567,3.7116,3.6679,3.6604,3.6457,3.637,3.6335,3.6377,3.652,3.6544,3.6585,3.6708,3.6748,3.6788,3.6846,3.6684,3.6365,3.5838,3.5077,3.4456,3.3938,3.3283,3.28,3.2369,3.2041,3.18,3.1783,3.1748,3.1645,3.1248,3.1231,3.1024,3.1042,3.1337,3.1773,3.1776,3.1952,3.2197,3.2354,3.2406,3.2406,3.2406,3.2406,3.2406,3.2406,3.2406,3.2406,3.2406,3.2406,3.2406,3.2406,3.2406,3.2406,3.2406,3.2406,3.2406,3.2406,3.2406,3.2388,3.2301,3.2179,3.1812,3.1602,3.12,3.011,2.9506,2.9076,2.8954,2.8851,2.8956,2.9196,2.9394,2.9299,2.9171,2.8963,2.8699,2.8829,2.8851,2.9199,2.9216,2.879,2.8483,2.8339,2.8099,2.7892,2.7466,2.6968,2.7025,2.7173,2.7147,2.7115,2.675,3.8289,3.9039,3.9766,4.0087,4.0121,4.0238,4.0288,4.0337,4.0436,4.0468,4.0485,4.0485,4.0485,4.0288,3.9918,3.9556,3.9169,3.875,3.8359,3.7721,3.7319,3.6915,3.6518,3.6249,3.6206,3.6185,3.6112,3.612,3.6079,3.6105,3.6148,3.6276,3.6318,3.6419,3.6602,3.6661,3.6684,3.6684,3.6602,3.6502,3.6167,3.5739,3.5301,3.4697,3.4007,3.3197,3.2783,3.2403,3.199,3.18,3.18,3.1768,3.1733,3.1629,3.1441,3.1373,3.1582,3.1654,3.1568,3.1882,3.2162,3.2354,3.2406,3.2423,3.2423,3.2529,3.2546,3.2581,3.2581,3.2476,3.2476,3.2476,3.2476,3.2406,3.2406,3.2406,3.2406,3.2406,3.2406,3.2406,3.2406,3.2388,3.2284,3.2196,3.202,3.1827,3.1079,2.992,2.8989,2.8663,2.844,2.8201,2.81,2.8373,2.8554,2.8426,2.8166,2.8031,2.7833,2.8176,2.8495,2.8608,2.8839,2.9191,2.8958,2.8626,2.863,2.855,2.806,2.7646,2.7944,2.8131,2.7971,2.7892,2.7662,3.7818,3.9056,3.9783,4.007,4.0121,4.0121,4.0188,4.0305,4.0337,4.0387,4.0436,4.0387,4.0288,4.0188,3.9867,3.9504,3.9077,3.8639,3.777,3.7013,3.6717,3.5983,3.5482,3.5454,3.553,3.5579,3.5678,3.579,3.5888,3.5949,3.6019,3.6062,3.6208,3.6293,3.636,3.6461,3.6544,3.6544,3.6544,3.6461,3.6461,3.6108,3.5732,3.5301,3.4938,3.3973,3.3266,3.2817,3.2334,3.199,3.18,3.1819,3.1839,3.1875,3.1756,3.1741,3.195,3.1916,3.1934,3.2039,3.2301,3.2406,3.2423,3.2476,3.2634,3.302,3.3073,3.3213,3.3108,3.2757,3.2687,3.2687,3.2669,3.2493,3.2406,3.2406,3.2406,3.2406,3.2406,3.2406,3.2406,3.2354,3.2249,3.2161,3.2037,3.1738,3.1355,3.0196,2.9316,2.8697,2.8098,2.7758,2.7521,2.7097,2.7131,2.7102,2.6942,2.6862,2.6989,2.7429,2.7711,2.7814,2.811,2.851,2.8782,2.8578,2.8678,2.8745,2.8994,2.875,2.901,2.9166,2.8926,2.8742,2.8496]}]]